[[{"header":{"parameterUnit":"m.s-1","parameterCategory":1,"la1":30.6,"la2":29.2853,"lo1":-89.7004,"lo2":-87.6739,"dy":0.0162,"dx":0.0183,"nx":112,"ny":82,"refTime":"2026-03-10T00:00:00:Z","depth":0,"parameterNumber":2,"parameterNumberName":"U-component_of_WINDS"},"data":[0.0,0.0,0.0,0.0,0.0,0.0,0.0,0.0,0.0,0.0,0.0,0.0,0.0,0.0,0.0,0.0,0.0,0.0,0.0,0.0,0.0,0.0,0.0,0.0,0.0,0.0,0.0,0.0,0.0,0.0,0.0,0.0,0.0,0.0,0.0,0.0,0.0,0.0,0.0,0.0,0.0,0.0,0.0,0.0,0.0,0.0,0.0,0.0,0.0,0.0,0.0,0.0,0.0,0.0,0.0,0.0,0.0,0.0,0.0,0.0,0.0,0.0,0.0,0.0,0.0,0.0,0.0,0.0,0.0,0.0,0.0,0.0,0.0,0.0,0.0,0.0,0.0,0.0,0.0,0.0,0.0,0.0,0.0,0.0,0.0,0.0,0.0,0.0,0.0,0.0,-5.9993,-6.1517,-6.4631,-6.6837,-6.7436,-6.6197,-6.3905,-6.043,0.0,0.0,0.0,0.0,0.0,0.0,0.0,0.0,0.0,0.0,0.0,0.0,0.0,0.0,0.0,0.0,0.0,0.0,0.0,0.0,0.0,0.0,0.0,0.0,0.0,0.0,0.0,0.0,0.0,0.0,0.0,0.0,0.0,0.0,0.0,0.0,0.0,0.0,0.0,0.0,0.0,0.0,0.0,0.0,0.0,0.0,0.0,0.0,0.0,0.0,0.0,0.0,0.0,0.0,0.0,0.0,0.0,0.0,0.0,0.0,0.0,0.0,0.0,0.0,0.0,0.0,0.0,0.0,0.0,0.0,0.0,0.0,0.0,0.0,0.0,0.0,0.0,0.0,0.0,0.0,0.0,0.0,0.0,0.0,0.0,0.0,0.0,0.0,0.0,0.0,0.0,0.0,0.0,0.0,0.0,0.0,0.0,0.0,0.0,0.0,0.0,0.0,0.0,0.0,-5.8487,-6.2924,-6.5244,-6.6239,-6.5751,-6.4869,-6.2904,-5.9609,0.0,0.0,0.0,0.0,0.0,0.0,0.0,0.0,0.0,0.0,0.0,0.0,0.0,0.0,0.0,0.0,0.0,0.0,0.0,0.0,0.0,0.0,0.0,0.0,0.0,0.0,0.0,0.0,0.0,0.0,0.0,0.0,0.0,0.0,0.0,0.0,0.0,0.0,0.0,0.0,0.0,0.0,0.0,0.0,0.0,0.0,0.0,0.0,0.0,0.0,0.0,0.0,0.0,0.0,0.0,0.0,0.0,0.0,0.0,0.0,0.0,0.0,0.0,0.0,0.0,0.0,0.0,0.0,0.0,0.0,0.0,0.0,0.0,0.0,0.0,0.0,0.0,0.0,0.0,0.0,0.0,0.0,0.0,0.0,0.0,0.0,0.0,0.0,0.0,0.0,0.0,0.0,0.0,0.0,0.0,0.0,0.0,0.0,0.0,0.0,0.0,0.0,0.0,-5.7362,-5.8755,-6.248,-6.4075,-6.476,-6.4416,-6.3783,-6.1944,-5.8534,-5.8005,0.0,0.0,0.0,0.0,0.0,0.0,0.0,0.0,0.0,0.0,0.0,0.0,0.0,0.0,0.0,0.0,0.0,0.0,0.0,0.0,0.0,0.0,0.0,0.0,0.0,0.0,0.0,0.0,0.0,0.0,0.0,0.0,0.0,0.0,0.0,0.0,0.0,0.0,0.0,0.0,0.0,0.0,0.0,0.0,0.0,0.0,0.0,0.0,0.0,0.0,0.0,0.0,0.0,0.0,0.0,0.0,0.0,0.0,0.0,0.0,0.0,0.0,0.0,0.0,0.0,0.0,0.0,0.0,0.0,0.0,0.0,0.0,0.0,0.0,0.0,0.0,0.0,0.0,0.0,0.0,0.0,0.0,0.0,0.0,0.0,0.0,0.0,0.0,0.0,0.0,0.0,0.0,0.0,0.0,0.0,0.0,0.0,0.0,0.0,0.0,0.0,0.0,-5.8434,-5.9935,-6.1908,-6.2959,-6.3458,-6.3321,-6.2591,-6.0776,-5.7515,-5.6476,0.0,0.0,0.0,0.0,0.0,0.0,0.0,0.0,0.0,0.0,0.0,0.0,0.0,0.0,0.0,0.0,0.0,0.0,0.0,0.0,0.0,0.0,0.0,0.0,0.0,0.0,0.0,0.0,0.0,0.0,0.0,0.0,0.0,0.0,0.0,0.0,0.0,0.0,0.0,0.0,0.0,0.0,0.0,0.0,0.0,0.0,0.0,0.0,0.0,0.0,0.0,0.0,0.0,0.0,0.0,0.0,0.0,0.0,0.0,0.0,0.0,0.0,0.0,0.0,0.0,0.0,0.0,0.0,0.0,0.0,0.0,0.0,0.0,0.0,0.0,0.0,0.0,0.0,0.0,0.0,0.0,0.0,0.0,0.0,0.0,0.0,0.0,0.0,0.0,0.0,0.0,0.0,0.0,0.0,0.0,0.0,0.0,0.0,0.0,0.0,0.0,0.0,-5.8896,-6.1908,-6.2101,-6.2844,-6.3075,-6.2441,-6.1063,-5.9114,-5.6647,-5.5029,0.0,0.0,0.0,0.0,0.0,0.0,0.0,0.0,0.0,0.0,0.0,0.0,0.0,0.0,0.0,0.0,0.0,0.0,0.0,0.0,0.0,0.0,0.0,0.0,0.0,0.0,0.0,0.0,0.0,0.0,0.0,0.0,0.0,0.0,0.0,0.0,0.0,0.0,0.0,0.0,0.0,0.0,0.0,0.0,0.0,0.0,0.0,0.0,0.0,0.0,0.0,0.0,0.0,0.0,0.0,0.0,0.0,0.0,0.0,0.0,0.0,0.0,0.0,0.0,0.0,0.0,0.0,0.0,0.0,0.0,0.0,0.0,0.0,0.0,0.0,0.0,0.0,0.0,0.0,0.0,0.0,0.0,0.0,0.0,0.0,0.0,0.0,0.0,0.0,0.0,0.0,0.0,0.0,0.0,0.0,0.0,0.0,0.0,0.0,0.0,0.0,0.0,-5.755,-6.0127,-6.1166,-6.155,-6.1636,-6.14,-6.0902,-5.9117,-5.5566,0.0,0.0,0.0,0.0,0.0,0.0,0.0,0.0,0.0,0.0,0.0,0.0,0.0,0.0,0.0,0.0,0.0,0.0,0.0,0.0,0.0,0.0,0.0,0.0,0.0,0.0,0.0,0.0,0.0,0.0,0.0,0.0,0.0,0.0,0.0,0.0,0.0,0.0,0.0,0.0,0.0,0.0,0.0,0.0,0.0,0.0,0.0,0.0,0.0,0.0,0.0,0.0,0.0,0.0,0.0,0.0,0.0,0.0,0.0,0.0,0.0,0.0,0.0,0.0,0.0,0.0,0.0,0.0,0.0,0.0,0.0,0.0,0.0,0.0,0.0,0.0,0.0,0.0,0.0,0.0,0.0,0.0,0.0,0.0,0.0,0.0,0.0,0.0,0.0,0.0,0.0,0.0,0.0,0.0,0.0,0.0,0.0,0.0,0.0,0.0,0.0,0.0,-5.3933,-5.678,-5.9242,-6.0666,-6.0781,-6.0781,-6.0781,-6.0191,-5.8347,-5.4931,0.0,0.0,0.0,0.0,0.0,0.0,0.0,0.0,0.0,0.0,0.0,0.0,0.0,0.0,0.0,0.0,0.0,0.0,0.0,0.0,0.0,0.0,0.0,0.0,0.0,0.0,0.0,0.0,0.0,0.0,0.0,0.0,0.0,0.0,0.0,0.0,0.0,0.0,0.0,0.0,0.0,0.0,0.0,0.0,0.0,0.0,0.0,0.0,0.0,0.0,0.0,0.0,0.0,0.0,0.0,0.0,0.0,0.0,0.0,0.0,0.0,0.0,0.0,0.0,0.0,0.0,0.0,0.0,0.0,0.0,0.0,0.0,0.0,0.0,0.0,0.0,0.0,0.0,0.0,0.0,0.0,0.0,0.0,0.0,0.0,0.0,0.0,0.0,0.0,0.0,0.0,0.0,0.0,0.0,0.0,0.0,0.0,0.0,0.0,0.0,0.0,0.0,-5.3203,-5.6896,-5.9819,-6.0704,-6.0781,-6.0781,-6.0781,-5.8616,-5.651,0.0,0.0,0.0,0.0,0.0,0.0,0.0,0.0,0.0,0.0,0.0,0.0,0.0,0.0,0.0,0.0,0.0,0.0,0.0,0.0,0.0,0.0,0.0,0.0,0.0,0.0,0.0,0.0,0.0,0.0,0.0,0.0,0.0,0.0,0.0,0.0,0.0,0.0,0.0,0.0,0.0,0.0,0.0,0.0,0.0,0.0,0.0,0.0,0.0,0.0,0.0,0.0,0.0,0.0,0.0,0.0,0.0,0.0,0.0,0.0,0.0,0.0,0.0,0.0,0.0,0.0,0.0,0.0,0.0,0.0,0.0,0.0,0.0,0.0,0.0,0.0,0.0,0.0,0.0,0.0,0.0,0.0,0.0,0.0,0.0,0.0,0.0,0.0,0.0,0.0,0.0,0.0,0.0,0.0,0.0,0.0,0.0,0.0,0.0,0.0,0.0,0.0,0.0,-5.3126,-5.6896,-5.9819,-6.0704,-6.0781,-6.0781,-6.0781,-5.9579,-5.7349,-5.3851,0.0,0.0,0.0,0.0,0.0,0.0,0.0,0.0,0.0,0.0,0.0,0.0,0.0,0.0,0.0,0.0,0.0,0.0,0.0,0.0,0.0,0.0,0.0,0.0,0.0,0.0,0.0,0.0,0.0,0.0,0.0,0.0,0.0,0.0,0.0,0.0,0.0,0.0,0.0,0.0,0.0,0.0,0.0,0.0,0.0,0.0,0.0,0.0,0.0,0.0,0.0,0.0,0.0,0.0,0.0,0.0,0.0,0.0,0.0,0.0,0.0,0.0,0.0,0.0,0.0,0.0,0.0,0.0,0.0,0.0,0.0,0.0,0.0,0.0,0.0,0.0,0.0,0.0,0.0,0.0,0.0,0.0,0.0,0.0,0.0,0.0,0.0,0.0,0.0,0.0,0.0,0.0,0.0,0.0,0.0,0.0,0.0,0.0,0.0,0.0,0.0,0.0,-5.3049,-5.6626,-5.9358,-6.0204,-6.0281,-6.0165,-5.9819,-5.9011,-5.6857,-5.2933,0.0,0.0,0.0,0.0,0.0,0.0,0.0,0.0,0.0,0.0,0.0,0.0,0.0,0.0,0.0,0.0,0.0,0.0,0.0,0.0,0.0,0.0,0.0,0.0,0.0,0.0,0.0,0.0,0.0,0.0,0.0,0.0,0.0,0.0,0.0,0.0,0.0,0.0,0.0,0.0,0.0,0.0,0.0,0.0,0.0,0.0,0.0,0.0,0.0,0.0,0.0,0.0,0.0,0.0,0.0,0.0,0.0,0.0,0.0,0.0,0.0,0.0,0.0,0.0,0.0,0.0,0.0,0.0,0.0,0.0,0.0,0.0,0.0,0.0,0.0,0.0,0.0,0.0,0.0,0.0,0.0,0.0,0.0,0.0,0.0,0.0,0.0,0.0,0.0,0.0,0.0,0.0,0.0,0.0,0.0,0.0,0.0,0.0,0.0,0.0,0.0,0.0,-5.2856,-5.6011,-5.8396,-5.9281,-5.9396,-5.9088,-5.8357,-5.7511,-5.5588,-5.2231,0.0,0.0,0.0,0.0,0.0,0.0,0.0,0.0,0.0,0.0,0.0,0.0,0.0,0.0,0.0,0.0,0.0,0.0,0.0,0.0,0.0,0.0,0.0,0.0,0.0,0.0,0.0,0.0,0.0,0.0,0.0,0.0,0.0,0.0,0.0,0.0,0.0,0.0,0.0,0.0,0.0,0.0,0.0,0.0,0.0,0.0,0.0,0.0,0.0,0.0,0.0,0.0,0.0,0.0,0.0,0.0,0.0,0.0,0.0,0.0,-5.7857,-5.8242,0.0,0.0,0.0,0.0,0.0,0.0,0.0,0.0,0.0,0.0,0.0,0.0,0.0,0.0,0.0,0.0,0.0,0.0,0.0,0.0,0.0,0.0,0.0,0.0,0.0,0.0,0.0,0.0,0.0,0.0,0.0,0.0,0.0,0.0,0.0,0.0,0.0,0.0,0.0,0.0,-5.1962,-5.4549,-5.6857,-5.8396,-5.855,-5.8511,-5.8319,-5.7511,-5.5818,-5.3087,-5.1366,0.0,0.0,0.0,0.0,0.0,0.0,0.0,0.0,0.0,0.0,0.0,0.0,0.0,0.0,0.0,0.0,0.0,0.0,0.0,0.0,0.0,0.0,0.0,0.0,0.0,0.0,0.0,0.0,0.0,0.0,0.0,0.0,0.0,0.0,0.0,0.0,0.0,0.0,0.0,0.0,0.0,0.0,0.0,0.0,0.0,0.0,0.0,0.0,0.0,0.0,0.0,0.0,0.0,0.0,0.0,0.0,0.0,0.0,0.0,-5.9177,-5.9319,0.0,0.0,0.0,0.0,0.0,0.0,0.0,0.0,0.0,0.0,0.0,0.0,0.0,0.0,0.0,0.0,0.0,0.0,0.0,0.0,0.0,0.0,0.0,0.0,0.0,0.0,0.0,0.0,0.0,0.0,0.0,0.0,0.0,0.0,0.0,0.0,0.0,0.0,0.0,0.0,-5.1403,-5.367,-5.5605,-5.6902,-5.7055,-5.6902,-5.6507,-5.6244,-5.4989,-5.2449,-5.0901,0.0,0.0,0.0,0.0,0.0,0.0,0.0,0.0,0.0,0.0,0.0,0.0,0.0,0.0,0.0,0.0,0.0,0.0,0.0,0.0,0.0,0.0,0.0,0.0,0.0,0.0,0.0,0.0,0.0,0.0,0.0,0.0,0.0,0.0,0.0,0.0,0.0,0.0,0.0,0.0,0.0,0.0,0.0,0.0,0.0,0.0,0.0,0.0,0.0,0.0,0.0,0.0,0.0,-5.9939,-6.0129,-5.9755,-6.0469,-6.0809,-6.0825,-6.1091,-6.1032,-6.0802,-6.1377,0.0,0.0,0.0,0.0,0.0,0.0,0.0,0.0,0.0,0.0,0.0,0.0,0.0,0.0,0.0,0.0,0.0,0.0,0.0,0.0,0.0,0.0,-5.299,-5.1798,-5.2483,-5.25,-4.9422,0.0,0.0,0.0,0.0,0.0,0.0,0.0,0.0,0.0,0.0,0.0,-5.0583,-5.2594,-5.4229,-5.5158,-5.5271,-5.5066,-5.4522,-5.479,-5.4022,-5.1788,-5.0367,-4.8593,0.0,0.0,0.0,0.0,0.0,0.0,0.0,0.0,0.0,0.0,0.0,0.0,0.0,0.0,0.0,0.0,0.0,0.0,0.0,0.0,0.0,0.0,0.0,0.0,0.0,0.0,0.0,0.0,0.0,0.0,0.0,0.0,-6.2204,-6.2897,0.0,0.0,0.0,0.0,0.0,0.0,0.0,0.0,0.0,0.0,0.0,0.0,0.0,-5.8568,-5.9156,-6.0004,-6.044,-6.037,-6.118,-6.154,-6.1467,-6.158,-6.1618,-6.1674,-6.246,0.0,-6.0585,-5.9942,0.0,0.0,0.0,0.0,0.0,0.0,0.0,0.0,0.0,0.0,0.0,0.0,0.0,0.0,0.0,0.0,0.0,0.0,0.0,0.0,0.0,0.0,-5.574,-5.3459,-5.3601,-5.3698,-5.1805,-4.9816,-4.8102,-4.7184,-4.6516,-4.5899,0.0,0.0,0.0,0.0,0.0,0.0,-4.8583,-5.0203,-5.1873,-5.3345,-5.3534,-5.3783,-5.4446,-5.4532,-5.411,-5.3021,-5.1441,-5.0033,-4.8947,-4.6311,0.0,0.0,0.0,0.0,0.0,0.0,0.0,0.0,0.0,0.0,0.0,0.0,0.0,0.0,0.0,0.0,0.0,0.0,0.0,0.0,0.0,0.0,0.0,0.0,0.0,0.0,0.0,0.0,0.0,-6.2243,-6.2643,-6.2295,-6.2306,-6.1822,0.0,0.0,0.0,0.0,0.0,0.0,0.0,0.0,0.0,-6.0035,-5.9678,-5.9904,-6.0696,-6.109,-6.1356,-6.1572,-6.1908,-6.2176,-6.2339,-6.2339,-6.2339,-6.2398,-6.2769,-6.2271,-6.1162,-6.0868,-5.9995,-5.8731,0.0,0.0,0.0,0.0,-5.6936,-5.6693,-5.6916,-5.6773,-5.6246,-5.4818,0.0,0.0,0.0,0.0,0.0,0.0,0.0,-5.2582,-5.3057,-5.418,-5.502,-5.4383,-5.4317,-5.4185,-5.346,-5.1732,-4.9941,-4.8604,-4.848,-4.7909,-4.5836,-4.5369,0.0,0.0,0.0,-4.6967,-4.7844,-4.9222,-5.0559,-5.1712,-5.1861,-5.201,-5.2382,-5.2632,-5.2394,-5.1499,-5.056,-4.9625,-4.8744,-4.7033,-4.5672,0.0,0.0,0.0,0.0,0.0,0.0,0.0,0.0,0.0,0.0,0.0,0.0,0.0,0.0,0.0,0.0,0.0,0.0,0.0,0.0,0.0,0.0,0.0,0.0,0.0,0.0,0.0,0.0,-6.2746,-6.2863,-6.1826,-6.249,-6.2096,0.0,0.0,0.0,0.0,0.0,0.0,-5.9889,-6.0301,-6.073,-6.1142,-6.0955,-6.1237,-6.2061,-6.2061,-6.2176,-6.2435,-6.2435,-6.2576,-6.278,-6.278,-6.278,-6.278,-6.2585,-6.2144,-6.1593,-6.1533,-6.0639,-5.9215,-5.852,-5.7729,-5.7035,-5.7278,-5.7223,-5.713,-5.7828,-5.7941,-5.7491,-5.5844,-5.4757,-5.3634,-5.1112,0.0,0.0,0.0,0.0,-5.2115,-5.2977,-5.3571,-5.4032,-5.4442,-5.4474,-5.4326,-5.4142,-5.3151,-5.1758,-4.9832,-4.9792,-4.9202,-4.644,-4.5706,0.0,-4.5115,-4.5752,-4.6578,-4.7431,-4.855,-4.9554,-5.0398,-5.0472,-5.0582,-5.0765,-5.1063,-5.0971,-5.0304,-4.9816,-4.9209,-4.8609,-4.7673,-4.6477,-4.4998,0.0,0.0,0.0,0.0,0.0,0.0,0.0,0.0,0.0,0.0,0.0,0.0,0.0,0.0,0.0,0.0,0.0,0.0,0.0,0.0,0.0,0.0,0.0,0.0,0.0,0.0,0.0,0.0,0.0,-6.259,-6.3524,0.0,0.0,0.0,0.0,-5.9288,-5.9963,-6.0735,-6.147,-6.0809,-6.1116,-6.2659,-6.1948,-6.1948,-6.2733,-6.2733,-6.2769,-6.2757,-6.2757,-6.2793,-6.278,-6.278,-6.278,-6.2768,-6.1998,-6.163,-6.152,-6.0785,-5.9976,-5.9164,-5.8809,-5.8137,-5.7464,-5.8286,-5.81,-5.7441,-5.7862,-5.75,-5.6963,-5.761,-5.5772,-5.3214,-5.3067,-5.1434,0.0,0.0,-5.1985,-5.2169,-5.2994,-5.3781,-5.4185,-5.3466,-5.387,-5.4179,-5.3424,-5.3203,-5.2417,-5.0037,-4.897,-4.7997,-4.6599,0.0,-4.5102,-4.6169,-4.6091,-4.6214,-4.704,-4.7829,-4.871,-4.9574,-4.9647,-4.9978,-5.0729,-5.0822,-5.0805,-5.0769,-5.0037,-4.9578,-4.9541,-4.834,-4.7222,-4.6329,-4.5106,0.0,0.0,0.0,0.0,0.0,0.0,0.0,0.0,0.0,0.0,0.0,0.0,0.0,0.0,0.0,0.0,0.0,0.0,0.0,0.0,0.0,0.0,0.0,0.0,0.0,0.0,0.0,0.0,-6.4027,-6.4858,0.0,-6.2812,-6.2372,-6.1995,-6.1557,-6.2291,-6.2915,-6.3172,-6.3429,-6.3576,-6.3613,-6.3356,-6.3062,-6.278,-6.278,-6.278,-6.278,-6.278,-6.278,-6.278,-6.278,-6.2511,-6.1998,-6.1704,-6.13,-6.0786,-5.9979,-5.9441,-5.9134,-5.8481,-5.8054,-5.781,-5.8128,-5.8054,-5.7825,-5.7955,-5.7813,-5.7519,-5.7299,-5.6088,-5.4656,-5.4142,-5.3371,-5.2711,-5.2747,-5.2784,-5.2858,-5.3151,-5.3408,-5.3555,-5.3298,-5.3445,-5.3555,-5.324,-5.2784,-5.2013,-5.0618,-5.0105,-4.9263,-4.7223,-4.6525,-4.6214,-4.6098,-4.6415,-4.6782,-4.7076,-4.7773,-4.8416,-4.871,-4.8746,-4.8893,-4.9187,-4.9187,-4.9187,-4.9187,-4.893,-4.8746,-4.8746,-4.831,-4.7444,-4.6079,-4.5107,-4.3558,0.0,0.0,0.0,0.0,0.0,0.0,0.0,0.0,0.0,0.0,0.0,0.0,0.0,0.0,0.0,0.0,0.0,0.0,0.0,0.0,0.0,0.0,0.0,0.0,0.0,-6.3686,-6.474,-6.4771,-6.5905,-6.5976,-6.4251,-6.4053,-6.3833,-6.3282,-6.4016,-6.4604,-6.4897,-6.5154,-6.5081,-6.453,-6.4237,-6.3686,-6.278,-6.278,-6.2658,-6.2401,-6.2401,-6.2254,-6.1998,-6.1998,-6.1704,-6.119,-6.0896,-6.0493,-5.9942,-5.9134,-5.8804,-5.8767,-5.8217,-5.7997,-5.7997,-5.7997,-5.7997,-5.7997,-5.7997,-5.7997,-5.7923,-5.7373,-5.6675,-5.5831,-5.506,-5.462,-5.4216,-5.3424,-5.3203,-5.3203,-5.3203,-5.3203,-5.3203,-5.3203,-5.3203,-5.3151,-5.2858,-5.238,-5.1683,-5.0582,-5.0398,-4.9774,-4.7846,-4.7259,-4.7003,-4.6764,-4.6929,-4.7186,-4.748,-4.7957,-4.8306,-4.8306,-4.8306,-4.8306,-4.8306,-4.803,-4.7883,-4.7883,-4.7645,-4.7498,-4.7498,-4.7498,-4.6874,-4.5516,-4.4452,-4.2966,-4.1095,0.0,0.0,0.0,0.0,0.0,0.0,0.0,0.0,0.0,0.0,0.0,0.0,0.0,0.0,0.0,0.0,0.0,0.0,0.0,0.0,0.0,0.0,0.0,-6.1826,-6.3193,-6.434,-6.4851,-6.6542,-6.6769,-6.4457,-6.5632,-6.5888,-6.431,-6.4934,-6.5742,-6.6512,-6.5778,-6.5338,-6.5301,-6.453,-6.3686,-6.278,-6.278,-6.2365,-6.1594,-6.1557,-6.1153,-6.0419,-6.0419,-6.0382,-6.0309,-5.9515,-5.9184,-5.9074,-5.8327,-5.7997,-5.7997,-5.7997,-5.7997,-5.7997,-5.7997,-5.7997,-5.7997,-5.7997,-5.7997,-5.7997,-5.7997,-5.7483,-5.6675,-5.5831,-5.506,-5.4252,-5.3424,-5.3203,-5.3203,-5.3203,-5.3203,-5.3203,-5.3203,-5.3167,-5.2968,-5.216,-5.194,-5.1463,-4.9904,-4.9574,-4.928,-4.8453,-4.7626,-4.7406,-4.8196,-4.7626,0.0,-4.8159,-4.8233,-4.8233,-4.8269,-4.8269,-4.8269,-4.8269,-4.7553,-4.7076,-4.7076,-4.6324,-4.5883,-4.5883,-4.5883,-4.5516,-4.4728,-4.313,-4.1919,-4.1095,0.0,0.0,0.0,0.0,0.0,0.0,0.0,0.0,0.0,0.0,0.0,0.0,0.0,0.0,0.0,0.0,0.0,0.0,0.0,0.0,0.0,-6.2407,-6.3035,-6.3035,-6.4427,-6.5853,-6.6798,-6.7353,-6.765,-6.7577,-6.743,-6.7173,-6.6733,-6.6916,-6.7136,-6.7357,-6.6623,-6.5888,-6.5338,-6.453,-6.3686,-6.278,-6.2218,-6.1814,-6.1594,-6.1006,-6.0603,-6.0419,-6.0419,-6.0089,-5.9515,-5.9294,-5.8877,-5.8327,-5.8107,-5.7997,-5.7997,-5.7997,-5.7997,-5.7997,-5.7997,-5.7997,-5.7997,-5.7997,-5.7997,-5.7997,-5.7997,-5.785,-5.7409,-5.6014,-5.5427,-5.4987,-5.3592,-5.3203,-5.3203,-5.3203,-5.3203,-5.3203,-5.3203,-5.2747,-5.227,-5.205,-5.1079,-5.0124,-4.9684,-4.9077,-4.86,-4.8343,-4.8122,-4.803,-4.8269,-4.7626,-4.7186,-4.7406,-4.6911,-4.6801,-4.7369,-4.7443,-4.7443,-4.7443,-4.7223,-4.6856,-4.6287,-4.603,-4.5883,-4.5883,-4.5883,-4.5516,-4.4728,-4.313,-4.1919,0.0,0.0,0.0,0.0,0.0,0.0,0.0,0.0,0.0,0.0,0.0,0.0,0.0,0.0,0.0,0.0,0.0,0.0,0.0,0.0,0.0,0.0,-6.3193,-6.3978,-6.4681,-6.5582,-6.6715,-6.8035,-6.8201,-6.8385,-6.8862,-6.8495,-6.8054,-6.7724,-6.7687,-6.7687,-6.7687,-6.6953,-6.6145,-6.5338,-6.453,-6.3503,-6.2328,-6.1814,-6.1263,-6.0603,-6.0126,-5.9722,-5.9391,-5.9391,-5.9134,-5.8694,-5.8694,-5.8437,-5.7997,-5.7997,-5.7997,-5.7997,0.0,0.0,0.0,0.0,-5.7997,-5.7997,-5.7997,-5.7997,-5.7997,-5.7997,-5.7776,-5.7262,-5.5978,-5.5354,-5.484,-5.3555,-5.3203,-5.3203,-5.3203,-5.3203,-5.3115,-5.2784,-5.2344,-5.1793,-5.1153,-5.0271,-4.95,-4.9133,-4.8636,0.0,-4.8306,-4.8306,-4.8196,-4.7846,-4.7406,-4.6966,-4.6636,-4.6177,-4.6067,-4.6544,-4.6599,-4.6599,-4.6599,-4.6269,0.0,0.0,0.0,-4.4892,-4.4892,-4.4892,0.0,0.0,0.0,0.0,0.0,0.0,0.0,0.0,-4.1075,-4.1222,0.0,0.0,0.0,0.0,0.0,0.0,0.0,0.0,0.0,0.0,0.0,0.0,0.0,0.0,0.0,0.0,-6.4044,-6.4897,-6.6402,-6.6623,-6.7173,-6.8605,-6.8752,-6.8752,-6.8752,-6.8752,-6.8458,-6.7724,-6.7687,-6.765,-6.7577,-6.6806,0.0,0.0,0.0,-6.3209,-6.163,-6.152,-6.0713,-5.9184,-5.9111,-5.8694,-5.7997,-5.7997,-5.7997,-5.7997,-5.7997,-5.7997,-5.7997,-5.7997,-5.7997,-5.7997,-5.7997,-5.7997,-5.7997,-5.7997,-5.7997,-5.7997,-5.7997,0.0,0.0,-5.7886,-5.7373,-5.6638,-5.5721,-5.495,-5.4216,-5.3424,-5.3203,-5.3203,-5.3203,-5.3203,-5.3004,-5.2197,-5.194,-5.1426,-4.9941,-4.9537,-4.9243,-4.8453,-4.8306,-4.8269,-4.8196,-4.8159,-4.7939,-4.7223,-4.6966,-4.6562,-4.5847,-4.57,-4.5663,-4.5736,-4.5773,0.0,-4.5773,-4.5112,-4.4672,-4.4544,-4.3901,-4.3515,-4.3515,-4.3515,-4.3515,-4.3515,-4.3515,-4.3515,-4.3515,-4.3515,-4.3515,-4.3441,-4.1295,-4.1075,0.0,0.0,0.0,0.0,0.0,0.0,0.0,0.0,0.0,0.0,0.0,0.0,0.0,0.0,0.0,-6.4376,-6.5374,-6.6366,-6.732,-6.7467,-6.7577,-6.7907,-6.7907,-6.7907,-6.7907,-6.7907,-6.7871,-6.7714,-6.7687,-6.7393,-6.6769,-6.5962,-6.5154,-6.4347,-6.3503,-6.2585,-6.1594,-6.097,-6.0162,-5.9184,-5.8547,0.0,-5.7997,-5.7997,-5.7997,-5.7997,-5.7997,-5.7997,-5.7997,-5.7997,-5.7997,-5.7997,-5.7997,-5.7997,-5.7997,-5.7997,-5.7997,-5.7997,-5.7997,-5.7997,-5.7886,-5.7262,-5.6932,-5.6528,-5.506,-5.4509,0.0,-5.3424,-5.3203,-5.3203,-5.3203,-5.3203,-5.3004,-5.2197,-5.1499,-5.0765,-4.9831,-4.904,-4.8489,-4.8343,-4.8306,-4.8086,-4.7443,-4.7333,-4.7259,-4.7113,-4.6012,-4.5095,-4.4948,-4.4378,-4.4195,-4.4856,-4.4929,-4.4929,-4.4929,-4.4764,-4.4415,-4.3754,-4.3571,-4.3515,-4.3515,-4.3515,-4.3515,-4.3515,-4.3515,-4.3515,-4.3515,-4.3515,-4.3515,-4.3515,-4.3037,-4.2964,0.0,0.0,0.0,0.0,0.0,0.0,0.0,0.0,0.0,0.0,0.0,-6.3846,-6.3524,0.0,-6.5073,-6.553,-6.6132,-6.6769,-6.7577,-6.7687,-6.7687,-6.7687,-6.7687,-6.7687,-6.7687,-6.7687,-6.7687,-6.7687,-6.732,-6.6916,-6.6512,-6.5375,-6.453,-6.409,-6.2842,-6.1814,-6.1006,-6.0199,-5.9391,-5.8584,-5.818,-5.7997,-5.7997,-5.7997,-5.7997,-5.7997,-5.7997,-5.7997,-5.7997,-5.7997,-5.7997,-5.7997,-5.7997,-5.7997,-5.7997,-5.7997,-5.7997,-5.7997,-5.7997,-5.7997,-5.7886,-5.7079,-5.6528,-5.5978,-5.4766,-5.4106,-5.3739,-5.3314,-5.3203,-5.3203,-5.3203,-5.3203,-5.2894,-5.1683,-5.1096,-5.0472,-4.9224,-4.86,-4.8306,-4.8306,-4.8306,-4.8049,-4.7223,-4.6746,-4.6361,-4.5938,-4.5205,-4.4562,-4.4158,-4.3754,-4.3662,-4.4048,-4.4085,-4.3997,-4.3706,-4.3425,-4.309,-4.2657,-4.294,-4.3105,-4.3105,-4.3339,-4.3515,-4.3515,-4.3515,-4.3515,-4.3515,-4.3515,-4.3515,-4.3515,-4.3515,-4.3515,0.0,0.0,0.0,0.0,0.0,0.0,0.0,-6.3332,-6.3447,-6.482,-6.5205,-6.5416,-6.5704,-6.5917,-6.6216,-6.6567,-6.6812,-6.7173,-6.7834,-6.7907,-6.7907,-6.7907,-6.7797,-6.7687,-6.7687,-6.7687,-6.7687,-6.7687,-6.6953,-6.6439,-6.6292,-6.4897,-6.4016,-6.3833,-6.2401,-6.119,-6.0419,-5.9588,-5.8804,-5.7997,-5.7997,-5.7997,-5.7997,-5.7997,-5.7997,-5.7997,-5.7997,-5.7997,-5.7997,-5.7997,-5.7997,-5.7997,-5.7997,-5.7997,-5.7997,-5.7997,-5.7997,-5.7997,-5.7997,-5.7886,-5.7629,-5.6822,-5.6014,-5.5207,-5.4399,-5.3702,-5.3203,-5.3203,-5.3203,-5.3203,-5.3203,-5.3078,-5.2601,-5.1169,-5.0692,-5.0141,-4.8636,-4.8306,-4.8306,-4.8306,-4.8306,-4.8012,-4.7039,-4.6324,-4.5626,-4.4819,-4.4562,-4.4232,-4.3588,-4.3515,-4.3515,-4.3515,-4.3428,-4.3142,-4.2577,-4.22,-4.1916,-4.181,-4.2262,-4.2537,-4.2537,-4.3032,-4.3339,-4.3339,-4.3463,-4.3515,-4.3515,-4.3515,-4.3515,-4.3515,-4.3515,-4.3515,-6.4636,-6.3897,-6.3782,-6.5128,-6.4974,-6.5243,0.0,-6.7628,-6.659,-6.6782,-6.7436,-6.7623,-6.6526,-6.7068,-6.7618,-6.7244,-6.8007,-6.8678,-6.8752,-6.8788,-6.8788,-6.8788,-6.8128,-6.7687,-6.7687,-6.7687,-6.7687,-6.7687,-6.6953,-6.6182,-6.5485,-6.4604,-6.3759,-6.2989,-6.2071,-6.119,-6.0419,-5.9588,-5.8804,-5.7997,-5.7997,-5.7997,-5.7997,-5.7997,-5.7997,-5.7997,-5.7997,-5.7997,-5.7997,-5.7997,-5.7997,-5.7997,-5.7997,-5.7997,-5.7997,-5.7997,-5.7997,-5.7997,-5.7997,-5.7519,-5.6822,-5.5978,-5.517,-5.4363,-5.3592,-5.3298,-5.3203,-5.3203,-5.3203,-5.3203,-5.3203,-5.2674,-5.1903,-5.1022,-5.0251,-4.9463,-4.8526,-4.8306,-4.8306,-4.8306,-4.8306,-4.7829,-4.6287,-4.5957,-4.5626,-4.4819,-4.4085,-4.3625,-4.3515,-4.3515,-4.3515,-4.3515,-4.3087,-4.2557,-4.1958,-4.2322,-4.2362,-4.1832,-4.1874,-4.1895,-4.1895,-4.2462,-4.277,-4.277,-4.325,-4.3515,-4.3515,-4.3515,-4.3515,-4.3515,-4.3515,-4.3515,-6.6215,-6.5782,-6.5705,-6.6397,-6.709,-6.7936,-6.936,-6.9129,-6.8898,-6.986,-7.036,-7.0479,-7.008,-7.0375,-7.0419,-6.9593,-6.9818,-7.0006,-6.9651,-6.9192,-6.8898,-6.8898,-6.8201,-6.7687,-6.7687,-6.7687,-6.7504,-6.7026,-6.6256,-6.5448,-6.464,-6.3796,-6.3172,-6.278,-6.1557,-6.075,-6.0419,-5.9134,-5.8327,-5.7997,-5.7997,-5.7997,-5.7997,-5.7997,-5.7997,-5.7997,-5.7997,-5.7997,-5.7997,-5.7997,-5.7997,-5.7997,-5.7997,-5.7997,-5.7997,-5.7997,-5.7997,-5.7923,-5.7446,-5.7079,-5.6602,-5.5317,-5.4656,-5.4252,-5.3445,-5.3203,-5.3203,-5.3203,-5.3203,-5.3203,-5.3203,-5.2601,-5.1793,-5.0986,-5.0178,-4.9353,-4.8489,-4.8306,-4.8306,-4.8306,-4.8306,-4.7792,-4.6177,-4.5883,-4.548,-4.4195,-4.3718,-4.3515,-4.3515,-4.3515,-4.3515,-4.3515,-4.2696,-4.2062,-4.1832,-4.142,-4.1094,-4.0838,-4.1105,-4.1273,-4.1273,-4.22,-4.2693,-4.2693,-4.2939,-4.305,-4.305,-4.305,-4.305,-4.305,-4.3339,-4.3515,-6.6537,-6.6744,-6.7205,-6.7705,-6.909,-7.0437,-7.0706,-7.0744,-7.1091,-7.2322,-7.236,-7.2237,-7.2445,-7.2181,-7.1673,-7.0968,-7.0904,-7.0858,-7.0478,-6.9743,-6.9155,-6.8935,-6.7981,-6.7357,-6.7357,-6.7577,-6.7357,-6.6549,-6.5742,-6.4971,-6.4127,-6.3282,-6.267,-6.2475,-6.1117,-6.0309,-6.0089,-5.8694,-5.7997,-5.7997,-5.7997,-5.7997,-5.7997,-5.7997,-5.7997,-5.7997,-5.7997,-5.7997,-5.7997,-5.7997,-5.7997,-5.7997,-5.7997,-5.785,-5.7666,-5.7666,-5.7666,-5.7593,-5.7005,-5.6528,-5.5941,-5.4766,-5.4252,-5.3959,-5.3408,-5.3203,-5.3203,-5.3203,-5.3203,-5.313,-5.2931,-5.227,-5.1463,-5.0655,-4.9848,-4.9077,-4.8453,-4.8306,-4.8306,-4.8306,-4.8306,-4.7792,-4.6177,-4.5883,-4.5333,-4.3735,-4.3515,-4.3515,-4.3515,-4.3515,-4.3426,-4.3286,-4.2541,-4.1916,-4.1595,-4.0814,-4.0254,-4.0113,-4.0456,-4.0696,-4.0696,-4.181,-4.2442,-4.2442,-4.2616,-4.2693,-4.2693,-4.2693,-4.2693,-4.2693,-4.325,-4.3515,-6.4897,-6.5859,-6.7513,-6.9206,-7.086,-7.236,-7.3206,-7.3399,-7.3399,-7.3437,-7.2783,-7.2206,-7.2192,-7.1114,-7.0243,-7.0486,-7.0727,-7.0993,-7.1222,-7.0587,-6.9779,-6.9009,-6.7504,-6.6549,-6.6549,-6.7247,-6.7357,-6.6549,-6.5742,-6.4971,-6.4127,-6.3282,-6.2438,-6.1667,-6.0823,-6.0052,-5.9221,-5.84,-5.7997,-5.7997,-5.7997,-5.7997,-5.7997,-5.7997,-5.7997,-5.7997,-5.7997,-5.7997,-5.7997,-5.7997,-5.7997,-5.7997,-5.7997,-5.7519,-5.6859,-5.6859,-5.6859,-5.6822,-5.6822,-5.5794,-5.4473,-5.4436,-5.3885,-5.3203,-5.3203,-5.3203,-5.3203,-5.3203,-5.3203,-5.3041,-5.2234,-5.1426,-5.0618,-4.9831,-4.8967,-4.8343,-4.8306,-4.8306,-4.8306,-4.8306,-4.8306,-4.7792,-4.6177,-4.5883,-4.5333,-4.3735,-4.3515,-4.3515,-4.3515,-4.3515,-4.3303,-4.277,-4.2693,-4.2221,-4.1036,-4.092,-4.0638,-4.0104,-4.0138,-4.0138,-4.0138,-4.1218,-4.1832,-4.1832,-4.2382,-4.2693,-4.2693,-4.2693,-4.2693,-4.2693,-4.325,-4.3515,-6.7194,-6.8408,-7.0052,-7.1783,-7.3053,-7.4091,-7.4976,-7.5168,-7.4976,-7.4437,-7.4053,-7.3707,-7.3168,-7.2683,-7.2454,-7.2717,-7.2507,-7.2398,-7.2652,-7.1664,-7.0403,-6.9082,-6.7944,-6.688,-6.5815,-6.5962,-6.5999,-6.5742,-6.4971,-6.4127,-6.3282,-6.2989,-6.2438,-6.163,-6.0823,-6.0015,-5.9184,-5.84,-5.7997,-5.7997,-5.7997,-5.7997,-5.7997,-5.7997,-5.7997,-5.7997,-5.7997,-5.7997,-5.796,-5.7409,-5.7189,-5.7152,-5.6602,-5.6235,-5.5978,-5.5978,-5.5684,-5.5207,-5.5207,-5.484,-5.4326,-5.3775,-5.3445,-5.3203,-5.3203,-5.3203,-5.3203,-5.3203,-5.2821,-5.2344,-5.205,-5.0986,-4.9941,-4.9647,-4.893,-4.8306,-4.8306,-4.8306,-4.8306,-4.8306,-4.8306,-4.7976,-4.6856,-4.625,-4.5333,-4.3735,-4.3515,-4.3515,-4.3515,-4.3515,-4.3445,-4.325,-4.256,-4.1937,-4.1516,-4.078,-4.0269,-4.0138,-4.0113,-4.0279,-4.0625,-4.1397,-4.1979,-4.2382,-4.2221,-4.2083,-4.2083,-4.2083,-4.2083,-4.2124,-4.3069,-4.3515,-6.8873,-7.0511,-7.2366,-7.4064,-7.5306,-7.613,-7.6399,-7.6207,-7.5745,-7.4899,-7.3976,-7.3168,-7.2668,-7.2091,-7.1948,-7.2817,-7.2662,-7.2633,-7.3293,-7.2114,-7.0632,-6.9073,-6.7944,-6.6733,-6.5448,-6.5044,-6.4861,-6.4861,-6.4383,-6.3723,-6.2879,-6.2548,-6.1998,-6.119,-6.0382,-5.9575,-5.8804,-5.8253,-5.7997,-5.7997,-5.7997,-5.7997,-5.7997,-5.7997,-5.7997,-5.7997,-5.7997,-5.785,-5.7519,-5.7005,-5.6638,-5.6308,-5.5794,-5.5427,-5.517,-5.517,-5.4656,-5.3995,-5.4289,-5.4216,-5.3885,-5.335,-5.3203,-5.3203,-5.3203,-5.3203,-5.313,-5.2858,-5.2417,-5.1867,-5.13,-5.0381,-4.9537,-4.9206,-4.871,-4.8306,-4.8306,-4.8306,-4.8306,-4.8306,-4.8306,-4.8049,-4.7223,-4.6214,-4.5002,-4.3681,-4.3515,-4.3515,-4.3515,-4.3515,-4.3515,-4.3515,-4.2676,-4.2021,-4.1832,-4.092,-4.0294,-4.0138,-4.0303,-4.0528,-4.0897,-4.1703,-4.2302,-4.2674,-4.2322,-4.2103,-4.2103,-4.2103,-4.2103,-4.2124,-4.3069,-4.3515,-6.9889,-7.2111,-7.4312,-7.5918,-7.7344,-7.816,-7.7337,-7.6515,-7.563,-7.4707,-7.2514,-7.0744,-7.0706,-6.9436,-6.903,-7.0964,-7.1336,-7.1845,-7.3241,-7.2062,-7.0524,-6.9054,-6.7504,-6.6219,-6.5338,-6.453,-6.4053,-6.4016,-6.4016,-6.3649,-6.278,-6.1998,-6.119,-6.0382,-5.9588,-5.8804,-5.7997,-5.7997,-5.7997,-5.7997,-5.7997,-5.7997,-5.7997,-5.7997,-5.796,-5.7923,-5.7923,-5.7483,-5.6748,-5.6712,-5.6235,-5.5537,-5.5486,-5.4987,-5.4326,-5.4326,-5.3849,-5.3314,-5.4069,-5.3849,-5.3203,-5.3203,-5.3203,-5.3203,-5.3203,-5.3203,-5.3041,-5.2234,-5.1977,-5.1593,-5.0014,-4.9574,-4.9317,-4.8489,-4.8306,-4.8306,-4.8306,-4.8306,-4.8306,-4.8306,-4.8306,-4.8049,-4.7223,-4.5828,-4.4562,-4.3681,-4.3534,-4.3551,-4.3515,-4.3515,-4.3515,-4.3515,-4.3032,-4.2462,-4.1895,-4.1251,-4.0685,-4.0204,-4.0648,-4.0909,-4.0978,-4.2083,-4.2693,-4.2732,-4.2693,-4.2693,-4.2693,-4.2693,-4.2693,-4.2693,-4.325,-4.3515,-7.1998,-7.4041,-7.5966,-7.6232,-7.6587,-7.6584,-7.5572,-7.4745,-7.3707,-7.2168,-7.036,-6.8859,-6.8205,-6.8244,-6.8973,-7.0719,-7.1707,-7.268,-7.3898,-7.2814,-7.1155,-6.9127,-6.8017,-6.6586,-6.4604,-6.42,-6.3833,-6.3172,-6.3135,-6.2768,-6.1961,-6.1704,-6.097,-5.9551,-5.9294,-5.8804,-5.7997,-5.7997,-5.7997,-5.7997,-5.7997,-5.7997,-5.7997,-5.7997,-5.7666,-5.7116,-5.7116,-5.6638,-5.5868,-5.5244,-5.4876,-5.4656,-5.4069,-5.3702,-5.3518,-5.3518,-5.3408,-5.3203,-5.3424,-5.335,-5.3203,-5.3203,-5.3203,-5.3203,-5.3203,-5.3203,-5.3041,-5.2234,-5.1573,-5.0875,-4.9867,-4.9114,-4.8563,-4.8343,-4.8306,-4.8306,-4.8306,-4.8306,-4.8306,-4.8306,-4.8306,-4.8049,-4.7223,-4.6746,-4.6012,-4.4599,-4.4378,-4.4195,-4.3588,-4.3515,-4.3515,-4.3515,-4.3032,-4.2635,-4.2462,-4.153,-4.1036,-4.1353,-4.1082,-4.1296,-4.2221,-4.2537,-4.2865,-4.3286,-4.2884,-4.2693,-4.2693,-4.2693,-4.2693,-4.2693,-4.325,-4.3515,-7.4037,-7.5737,-7.7215,-7.7112,-7.7244,-7.6947,-7.5221,-7.4125,-7.2822,-7.0321,-6.8475,-6.7051,-6.6167,-6.6705,-6.7859,-6.9552,-7.1289,-7.274,-7.3607,-7.3064,-7.1776,-6.9696,-6.8715,-6.7283,-6.4861,-6.464,-6.4127,-6.289,-6.278,-6.2438,-6.163,-6.1263,-6.0493,-5.9221,-5.8854,-5.8474,-5.7997,-5.7997,-5.7997,-5.7997,-5.7997,-5.7997,-5.7997,-5.7629,-5.7226,-5.6785,-5.6418,-5.5831,-5.5023,-5.4583,-5.4179,-5.3849,-5.3408,-5.3203,-5.3203,-5.3203,-5.3203,-5.3203,-5.3203,-5.3203,-5.3203,-5.3203,-5.3203,-5.3203,-5.3203,-5.2968,-5.2527,-5.1683,-5.0875,-5.0068,-4.9224,-4.8673,-4.8306,-4.8306,-4.8306,-4.8306,-4.8306,-4.8306,-4.8306,-4.8306,-4.8306,-4.8049,-4.7223,-4.7113,-4.6672,-4.5443,-4.5223,-4.5076,-4.4599,-4.3955,-4.3515,-4.3515,-4.3232,-4.2976,-4.2713,-4.2062,-4.1725,-4.181,-4.1746,-4.1979,-4.2655,-4.2939,-4.3196,-4.3497,-4.3214,-4.3069,-4.3069,-4.3069,-4.3069,-4.3069,-4.3356,-4.3515,-7.5859,-7.7016,-7.798,-7.7969,-7.8161,-7.7736,-7.5232,-7.3727,-7.1953,-6.8744,-6.6628,-6.5166,-6.4397,-6.5051,-6.6282,-6.7975,-7.036,-7.2287,-7.3013,-7.2864,-7.2049,-7.0438,-6.932,-6.7834,-6.5521,-6.5301,-6.4604,-6.2927,-6.267,-6.2291,-6.1484,-6.0676,-5.9869,-5.9074,-5.8364,-5.7997,-5.7997,-5.7997,-5.7997,-5.7997,-5.7997,-5.7923,-5.7813,-5.7116,-5.6675,-5.6455,-5.5721,-5.4987,-5.4252,-5.4252,-5.3849,-5.3203,-5.3203,-5.3203,-5.3203,-5.3203,-5.3203,-5.3203,-5.3203,-5.3203,-5.3203,-5.3203,-5.3203,-5.3203,-5.3203,-5.2637,-5.183,-5.1022,-5.0215,-4.939,-4.8526,-4.8306,-4.8306,-4.8306,-4.8306,-4.8306,-4.8306,-4.8306,-4.8306,-4.8306,-4.8306,-4.8067,-4.7369,-4.7259,-4.6966,-4.6177,-4.6067,-4.603,-4.592,-4.4599,-4.3644,-4.3644,-4.3534,-4.3303,-4.2827,-4.2732,-4.2501,-4.2062,-4.2442,-4.2785,-4.297,-4.3323,-4.3551,-4.3644,-4.3551,-4.3515,-4.3515,-4.3625,-4.3644,-4.3644,-4.3772,-4.3845,-7.6758,-7.7148,-7.7336,-7.7134,-7.6618,-7.5585,-7.3433,-7.1162,-6.8928,-6.6768,-6.4436,-6.2716,-6.2563,-6.3782,-6.5359,-6.7051,-6.9475,-7.1741,-7.3511,-7.2184,-7.0965,-7.0884,-6.9089,-6.721,-6.5485,-6.5301,-6.4604,-6.2927,-6.2181,-6.1447,-6.0639,-5.9869,-5.9061,-5.8217,-5.807,-5.7997,-5.7997,-5.7997,-5.7997,-5.7997,-5.7997,-5.7666,-5.7005,-5.6859,-5.6088,-5.4803,-5.4656,-5.4142,-5.3408,-5.3408,-5.3335,-5.3203,-5.3203,-5.3203,-5.3203,-5.3203,-5.3203,-5.3203,-5.3203,-5.3203,-5.3203,-5.3203,-5.3203,-5.3203,-5.3203,-5.2637,-5.183,-5.1022,-5.0215,-4.939,-4.8526,-4.8306,-4.8306,-4.8306,-4.8306,-4.8306,-4.8306,-4.8306,-4.8306,-4.8306,-4.8306,-4.8269,-4.8122,-4.8086,-4.781,-4.7003,-4.6892,-4.6636,-4.5993,-4.5076,-4.4488,-4.4488,-4.3901,-4.348,-4.3356,-4.294,-4.2827,-4.316,-4.2884,-4.321,-4.4309,-4.3793,-4.3791,-4.4488,-4.3828,-4.3515,-4.3515,-4.4158,-4.4488,-4.4525,-4.5186,-4.548,-7.8281,-7.8203,-7.7851,-7.7761,-7.6641,-7.4866,-7.2088,-7.0027,-6.7793,-6.4662,-6.3014,-6.1947,-6.1524,-6.2781,-6.4359,-6.559,-6.7552,-6.9606,-7.1655,-7.1026,-7.0357,-7.0307,-6.9397,-6.7848,-6.5511,-6.5301,-6.4457,-6.2328,-6.1447,-6.0823,-6.0419,-5.9245,-5.84,-5.7997,-5.7997,-5.7997,-5.7997,-5.7997,-5.7997,-5.7997,-5.7997,-5.7593,-5.6785,-5.6381,-5.5537,-5.4363,-5.3959,-5.3555,-5.3203,-5.3203,-5.3203,-5.3203,-5.3203,-5.3203,-5.3203,-5.3203,-5.3203,-5.3203,-5.3203,-5.3203,-5.3203,-5.3203,-5.3203,-5.3203,-5.3203,-5.2344,-5.1316,-5.0912,-4.9884,-4.882,-4.8416,-4.8306,-4.8306,-4.8306,-4.8306,-4.8306,-4.8306,-4.8306,-4.8306,-4.8306,-4.8306,-4.8306,-4.8306,-4.8306,-4.8196,-4.7773,-4.77,-4.7609,-4.7205,-4.6471,-4.5792,-4.5369,-4.4966,-4.4745,-4.4745,-4.451,-4.4473,-4.4728,-4.4492,-4.4656,-4.5278,-4.4929,-4.4929,-4.5333,-4.4929,-4.4745,-4.4745,-4.5149,-4.5333,-4.5333,-4.5736,-4.5883,-7.9258,-7.8984,-7.8476,-7.8281,-7.6785,-7.4522,-7.1231,-6.9305,-6.7083,-6.3127,-6.2022,-6.1601,-6.0935,-6.2012,-6.332,-6.4166,-6.5743,-6.7599,-6.9709,-6.9883,-6.989,-7.006,-6.9533,-6.8208,-6.5729,-6.5195,-6.409,-6.1777,-6.0676,-6.0089,-5.9905,-5.8694,-5.7997,-5.7997,-5.7997,-5.7997,-5.7997,-5.7997,-5.7997,-5.7997,-5.7813,-5.7336,-5.6528,-5.5721,-5.4913,-5.4106,-5.3482,-5.3203,-5.3203,-5.3203,-5.3203,-5.3203,-5.3203,-5.3203,-5.3203,-5.3203,-5.3203,-5.3203,-5.3203,-5.3203,-5.3203,-5.3203,-5.3203,-5.3203,-5.3203,-5.2087,-5.0802,-5.0802,-4.9738,-4.8526,-4.8343,-4.8453,-4.8526,-4.8343,-4.8306,-4.8306,-4.8306,-4.8306,-4.8306,-4.8306,-4.8306,-4.8306,-4.8306,-4.8306,-4.8306,-4.8306,-4.8306,-4.8306,-4.8306,-4.7736,-4.7113,-4.6471,-4.6104,-4.5883,-4.5883,-4.5883,-4.5883,-4.5883,-4.5883,-4.5993,-4.614,-4.5993,-4.5993,-4.614,-4.5993,-4.5883,-4.5883,-4.6067,-4.6177,-4.6177,-4.6324,-4.6397,-7.8594,-7.8555,-7.832,-7.7539,-7.6015,-7.3942,-7.1128,0.0,-6.5803,-6.29,-6.1559,-6.0896,-6.0819,-6.1562,0.0,0.0,0.0,-6.6885,-6.9382,-6.9268,-6.9489,-7.104,-6.9031,-6.7133,-6.6118,-6.4943,-6.3466,-6.1741,-6.0199,-5.8988,-5.8253,-5.807,-5.7997,-5.7997,-5.7997,-5.7997,-5.7997,-5.7997,-5.7997,-5.7997,-5.7262,-5.6492,-5.5684,-5.4876,-5.4069,-5.3314,-5.3203,-5.3203,-5.3203,-5.3203,-5.3203,-5.3203,-5.3203,-5.3203,-5.3203,-5.3203,-5.3203,-5.3203,-5.3203,-5.3203,-5.3203,-5.3203,-5.3203,-5.3203,-5.3203,-5.2087,-5.0802,-5.0802,-5.0141,-4.9317,-4.8526,-4.8893,-4.928,-4.8489,-4.8306,-4.8306,-4.8306,-4.8306,-4.8306,-4.8306,-4.8306,-4.8306,-4.8306,-4.8306,-4.8306,-4.8306,-4.8306,-4.8306,-4.8306,-4.8233,-4.8159,-4.8086,-4.6764,-4.5883,-4.5883,-4.5883,-4.5883,-4.5883,-4.5883,-4.625,-4.6966,-4.6287,-4.625,-4.6966,-4.6287,-4.5883,-4.5883,-4.6636,-4.7003,-4.7003,-4.7755,-4.8086,-7.9101,-7.9219,-7.9023,-7.8203,-7.6289,-7.3788,-7.0618,-6.8156,-6.5601,-6.2354,-6.1286,-6.0913,-6.0816,-6.1089,-6.1589,0.0,0.0,0.0,-6.6282,-6.5959,-6.6183,-6.8074,-6.7369,-6.6327,-6.5411,-6.441,-6.2775,-6.0333,-5.9098,-5.8327,-5.8033,-5.7997,-5.7997,-5.7997,-5.7997,-5.7997,-5.7997,-5.7997,-5.7776,-5.7262,-5.6969,-5.6124,-5.4876,-5.4546,-5.3959,-5.3203,-5.3203,-5.3203,-5.3203,-5.3203,-5.3203,-5.3203,-5.3203,-5.3203,-5.3203,-5.3203,-5.3203,-5.3203,-5.3203,-5.3203,-5.3203,-5.3203,-5.3203,-5.3203,-5.3203,-5.2417,-5.1499,-5.1499,-5.0949,-5.0251,-4.9884,-4.9701,-4.939,-4.8526,-4.8306,-4.8306,-4.8306,-4.8306,-4.8306,-4.8306,-4.8306,-4.8306,-4.8306,-4.8306,-4.8306,-4.8306,-4.8306,-4.8306,-4.8306,-4.8306,-4.8306,-4.8306,-4.7719,-4.7352,-4.7352,-4.7352,-4.7352,-4.7352,-4.7352,-4.7498,-4.781,-4.7498,-4.7498,-4.781,-4.7498,-4.7352,-4.7352,-4.7663,-4.781,-4.781,-4.8159,-4.8306,-7.8437,-7.8945,-7.914,-7.832,-7.6328,-7.3789,-7.0586,-6.8188,-6.567,-6.2426,-6.1349,-6.0991,-6.0882,-6.085,-6.1012,0.0,0.0,-6.1897,-6.3935,-6.3897,-6.4296,-6.5971,-6.5795,-6.539,-6.4925,-6.3675,-6.193,-5.9559,-5.8529,-5.7997,-5.7997,-5.7997,-5.7997,-5.7997,-5.7997,-5.7997,-5.7997,-5.7776,-5.7373,-5.6785,-5.6345,-5.55,-5.4399,-5.4142,-5.3739,-5.3203,-5.3203,-5.3203,-5.3203,-5.3203,-5.3203,-5.3203,-5.3203,-5.3203,-5.3203,-5.3203,-5.3203,-5.3203,-5.3203,-5.3203,-5.3203,-5.3203,-5.3203,-5.3203,-5.3203,-5.2637,-5.1977,-5.1977,-5.1242,-5.0508,-5.0729,-4.9994,-4.904,-4.8453,-4.8306,-4.8306,-4.8306,-4.8306,-4.8306,-4.8306,-4.8306,-4.8306,-4.8306,-4.8306,-4.8306,-4.8306,-4.8306,-4.8306,-4.8306,-4.8306,-4.8306,-4.8306,-4.8306,-4.8306,-4.8306,-4.8306,-4.8306,-4.8306,-4.8306,-4.8306,-4.8306,-4.8306,-4.8306,-4.8306,-4.8306,-4.8306,-4.8306,-4.8306,-4.8306,-4.8306,-4.8306,-4.8306,-7.5937,-7.7187,-7.8281,-7.7422,-7.5898,-7.3906,-7.1289,-6.8579,-6.5881,-6.3302,-6.1822,-6.0997,-6.0997,-6.0902,-6.0781,-6.0819,0.0,0.0,-6.3205,-6.4051,-6.4897,-6.582,-6.4652,-6.4168,-6.5007,-6.2768,-6.0837,-5.9976,-5.874,-5.7997,-5.7997,-5.7997,-5.7997,-5.7997,-5.7997,-5.7997,-5.7997,-5.7226,-5.6822,-5.6785,-5.5207,-5.4436,-5.4363,-5.3592,-5.3203,-5.3203,-5.3203,-5.3203,-5.3203,-5.3203,-5.3203,-5.3203,-5.3203,-5.3203,-5.3203,-5.3203,-5.3203,-5.3203,-5.3203,-5.3203,-5.3203,-5.3203,-5.3203,-5.3203,-5.3203,-5.2637,-5.1977,-5.1977,-5.0859,-4.9794,-5.0582,-4.9554,-4.8306,-4.8306,-4.8306,-4.8306,-4.8306,-4.8306,-4.8306,-4.8306,-4.8306,-4.8306,-4.8306,-4.8306,-4.8306,-4.8306,-4.8306,-4.8306,-4.8306,-4.8306,-4.8306,-4.8306,-4.8306,-4.8306,-4.8306,-4.8306,-4.8306,-4.8306,-4.8306,-4.8306,-4.8306,-4.8306,-4.8306,-4.8306,-4.8306,-4.8306,-4.8306,-4.8306,-4.8306,-4.8306,-4.8306,-4.8306,-7.4101,-7.4961,-7.5469,-7.4023,-7.2773,-7.1406,-6.9453,-6.7381,-6.5301,-6.3235,-6.1938,-6.1172,-6.1031,-6.0902,-6.0781,-6.0781,-6.1012,0.0,-6.155,-6.232,-6.3205,-6.4012,-6.3925,-6.3688,-6.3436,-6.1507,-5.9959,-5.916,-5.8408,-5.7997,-5.7997,-5.7997,-5.7997,-5.7997,-5.7997,-5.7997,-5.7997,-5.7189,-5.6528,-5.5978,-5.4913,-5.4106,-5.3592,-5.3314,-5.3203,-5.3203,-5.3203,-5.3203,-5.3203,-5.3203,-5.3203,-5.3203,-5.3203,-5.3203,-5.3203,-5.3203,-5.3203,-5.3203,-5.3203,-5.3203,-5.3203,-5.3203,-5.3203,-5.3203,-5.3203,-5.2637,-5.1867,-5.1316,-5.0802,-5.0362,-5.0068,-4.9591,-4.904,-4.8453,-4.8306,-4.8306,-4.8306,-4.8306,-4.8306,-4.8306,-4.8306,-4.8306,-4.8306,-4.8306,-4.8306,-4.8306,-4.8306,-4.8306,-4.8306,-4.8306,-4.8306,-4.8306,-4.8306,-4.8306,-4.8306,-4.8306,-4.8306,-4.8306,-4.8306,-4.8306,-4.8306,-4.8306,-4.8306,-4.8306,-4.8306,-4.8306,-4.8306,-4.8306,-4.8306,-4.8306,-4.8306,-4.8306,-7.2539,-7.3203,-7.3437,-7.2695,-7.1601,-7.0273,-6.8594,-6.6836,-6.5077,-6.3264,-6.207,-6.1328,-6.1158,-6.0973,-6.0877,-6.0804,-6.0781,-6.0781,-6.0781,-6.155,-6.2397,-6.3192,-6.3461,-6.3298,-6.2508,-6.1212,-6.0041,-5.9027,-5.8508,-5.8209,-5.802,-5.7997,-5.7997,-5.7997,-5.7997,-5.785,-5.7556,-5.6748,-5.5941,-5.5133,-5.4326,-5.3702,-5.3203,-5.3203,-5.3203,-5.3203,-5.3203,-5.3203,0.0,-5.3203,-5.3203,-5.3203,-5.3203,-5.3203,-5.3203,-5.3203,-5.3203,-5.3203,-5.3203,-5.3203,-5.3203,-5.3203,-5.3203,-5.313,-5.2858,-5.2601,-5.2344,-5.1867,-5.1499,-5.1132,-5.0639,-5.0051,-4.9463,-4.893,-4.8526,-4.8306,-4.8306,-4.8306,-4.8306,-4.8306,-4.8306,-4.8306,-4.8306,-4.8306,-4.8306,-4.8306,-4.8306,-4.8306,-4.8306,-4.8306,-4.8306,-4.8306,-4.8306,-4.8306,-4.8306,-4.8306,-4.8306,-4.8306,-4.8306,-4.8306,-4.8306,-4.8306,-4.8306,-4.8306,-4.8306,-4.8306,-4.8306,-4.8306,-4.8306,-4.8306,-4.8306,-4.8306,0.0,-7.168,-7.1836,-7.2656,-7.1523,-6.9844,-6.8359,-6.668,0.0,-6.332,-6.221,-6.1478,-6.1312,-6.1143,-6.0963,-6.0839,-6.0781,-6.0781,-6.0781,-6.1589,-6.2474,-6.3205,-6.3308,-6.2974,-6.2178,-6.1603,-6.0807,-5.9551,-5.899,-5.8524,-5.8051,-5.802,-5.7997,-5.7997,-5.7923,-5.7556,-5.6822,-5.5978,-5.5207,-5.4399,-5.3592,-5.3203,-5.3203,-5.3203,-5.3203,-5.3203,-5.3203,-5.3203,-5.3203,-5.3203,-5.3203,-5.3203,-5.3203,-5.3203,-5.3203,-5.3203,-5.3203,-5.3203,-5.3203,-5.3203,-5.3203,-5.3203,-5.3203,-5.3078,-5.2307,-5.2564,-5.3093,-5.3078,-5.2491,-5.1903,-5.1903,-5.0822,-4.9684,-4.961,-4.8967,-4.8379,-4.8306,-4.8306,-4.8306,-4.8306,-4.8306,-4.8306,-4.8306,-4.8306,-4.8306,-4.8306,-4.8306,-4.8306,-4.8306,-4.8306,-4.8306,-4.8306,-4.8306,-4.8306,-4.8306,-4.8306,-4.8306,-4.8306,-4.8306,-4.8306,-4.8306,-4.8306,-4.8306,-4.8306,-4.8306,-4.8306,-4.8306,-4.8379,-4.8379,-4.8379,-4.8453,-4.8489,-6.875,0.0,-6.8164,-6.8359,-6.7109,-6.5898,0.0,-6.4844,-6.3476,-6.3086,-6.221,-6.1478,-6.1312,-6.1143,-6.0963,-6.0839,-6.0781,-6.0781,-6.0781,-6.2089,-6.3089,-6.3281,-6.3308,-6.2974,-6.2178,-6.1067,-6.0264,-5.9969,-5.9158,-5.8652,-5.8528,-5.8209,-5.7997,-5.7997,-5.7409,-5.7005,-5.6822,-5.5978,-5.5207,-5.4399,-5.3592,-5.3203,-5.3203,-5.3203,-5.3203,-5.3203,-5.3203,-5.3203,-5.3203,-5.3203,-5.3203,-5.3203,-5.3203,-5.3203,-5.3203,-5.3203,-5.3203,-5.3203,-5.3203,-5.3203,-5.3203,-5.3203,-5.3203,-5.3167,-5.3004,-5.2637,-5.216,-5.1536,-5.1242,-5.1096,-5.1096,-5.0802,-5.0362,-4.9757,-4.9463,-4.9114,-4.8453,-4.8306,-4.8306,-4.8306,-4.8306,-4.8306,-4.8306,-4.8306,-4.8306,-4.8306,-4.8306,-4.8306,-4.8306,-4.8306,-4.8306,-4.8306,-4.8306,-4.8306,-4.8306,-4.8306,-4.8306,-4.8306,-4.8306,-4.8306,-4.8306,-4.8306,-4.8306,-4.8306,-4.8306,-4.8306,-4.8306,-4.8967,-4.9297,-4.9317,-4.9921,-5.0215,-6.6992,-6.7265,-6.7578,-6.8008,-6.6797,-6.5508,-6.5586,0.0,0.0,0.0,0.0,-6.1568,-6.1404,-6.1265,-6.1081,-6.0915,-6.0834,-6.0935,-6.1331,-6.2512,-6.3308,-6.3308,-6.3308,-6.2974,-6.2178,-6.1096,-6.0338,-6.0118,-5.9424,-5.8932,-5.8733,-5.826,-5.7997,-5.7997,-5.7226,-5.6638,-5.6235,-5.5464,-5.4656,-5.3849,-5.3408,-5.3203,-5.3203,-5.3203,-5.3203,-5.3203,-5.3203,-5.3203,-5.3203,-5.3203,-5.3203,-5.3203,-5.3203,-5.3203,-5.3203,-5.3203,-5.3203,-5.3203,-5.3203,-5.3203,-5.3203,-5.3203,-5.3203,-5.3203,-5.3203,-5.2894,-5.2454,-5.2013,-5.1903,-5.1903,-5.1903,-5.1646,-5.1242,-5.0802,-5.0418,-5.0031,-4.9554,-4.9444,-4.9444,-4.9444,-4.915,-4.9003,-4.937,-4.9114,-4.9003,-4.9407,-4.9444,-4.9444,-4.9444,-4.9444,-4.9444,-4.9444,-4.9444,-4.9444,-4.9444,-4.9444,-4.9297,-4.893,-4.926,-4.9444,-4.9444,-4.9444,-4.9444,-4.9444,-4.9444,-4.9444,-4.9444,-4.9921,-5.0141,-5.0141,-5.0618,-5.0802,-6.5937,-6.6953,-6.832,-6.8789,-6.7695,-6.6328,-6.5586,0.0,0.0,0.0,0.0,0.0,-6.1517,-6.1383,-6.1272,-6.1225,-6.1095,-6.1243,-6.1985,-6.2704,-6.3128,-6.3128,-6.3128,-6.282,-6.1985,-6.1243,-6.0634,-6.0255,-5.9792,-5.9302,-5.8835,-5.8354,-5.8051,-5.7997,-5.7116,-5.6308,-5.5633,-5.4803,-5.3995,-5.3203,-5.3203,-5.3203,-5.3203,-5.3203,-5.3203,-5.3203,-5.3203,-5.3203,-5.3203,-5.3203,-5.3203,-5.3203,-5.3203,-5.3203,-5.3203,-5.3203,-5.3203,-5.3203,-5.3203,-5.3203,-5.3203,-5.3203,-5.3203,-5.3203,-5.3203,-5.3203,-5.3203,-5.3203,-5.3203,-5.3203,-5.3203,-5.2711,-5.216,-5.2013,-5.1463,-5.0949,-5.0839,-5.0802,-5.0802,-5.0802,-5.0251,-4.9994,-5.0692,-5.0178,-4.9958,-5.0692,-5.0802,-5.0802,-5.0802,-5.0802,-5.0802,-5.0802,-5.0802,-5.0802,-5.0802,-5.0912,-5.0692,-5.0014,-5.0472,-5.0802,-5.0802,-5.0802,-5.0802,-5.0802,-5.0802,-5.0802,-5.0802,-5.0912,-5.0986,-5.0986,-5.1096,-5.1169,-6.6328,-6.7422,-6.789,-6.6523,-6.543,-6.4648,-6.4531,0.0,0.0,0.0,0.0,0.0,0.0,-6.1383,-6.146,-6.1992,-6.1973,-6.1947,-6.2101,-6.2216,-6.2281,-6.2281,-6.2281,-6.1935,-6.1089,-6.0858,-6.0769,-6.071,-6.0269,-5.9792,-5.9302,-5.8855,-5.8397,-5.802,-5.6565,-5.5721,-5.5596,-5.4803,-5.3995,-5.3203,-5.3203,-5.3203,-5.3203,-5.3203,-5.3203,-5.3203,-5.3203,-5.3203,-5.3203,-5.3203,-5.3203,-5.3203,-5.3203,-5.3203,-5.3203,-5.3203,-5.3203,-5.3203,-5.3203,-5.3203,-5.3203,-5.3203,-5.3203,-5.3203,-5.3203,-5.3203,-5.3203,-5.3203,-5.3203,-5.3203,-5.3203,-5.3115,-5.2858,-5.216,-5.1903,-5.161,-5.0949,-5.0802,-5.0802,-5.0802,-5.0692,-5.0655,-5.0765,-5.0692,-5.0655,-5.0765,-5.0802,-5.0802,-5.0802,-5.0802,-5.0802,-5.0802,-5.0802,-5.0802,-5.0802,-5.1426,-5.1756,-5.1646,-5.1096,-5.0802,-5.0802,-5.0802,-5.0802,-5.0802,-5.0802,-5.0802,-5.0802,-5.1463,-5.183,-5.183,-5.2527,-5.2858,-6.4687,-6.5781,-6.6484,-6.5234,-6.5664,-6.6289,-6.582,-6.3984,0.0,0.0,0.0,0.0,0.0,-6.1771,-6.2126,-6.2741,-6.2799,-6.2743,-6.2743,-6.2743,-6.2589,-6.2139,-6.2101,-6.1755,-6.0858,-6.0781,-6.0781,-6.0781,-6.0365,-5.9901,-5.9424,-5.8971,-5.8503,-5.802,-5.6418,-5.5596,-5.5596,-5.4363,-5.3592,-5.3203,-5.3203,-5.3203,-5.3203,-5.3203,-5.3203,-5.3203,-5.3203,-5.3203,-5.3203,-5.3203,-5.3203,-5.3203,-5.3203,-5.3203,-5.3203,-5.3203,-5.3203,-5.3203,-5.3203,-5.3203,-5.3203,-5.3203,-5.3203,-5.3203,-5.3203,-5.3203,-5.3203,-5.3203,-5.3203,-5.3203,-5.3203,-5.3203,-5.3115,-5.2747,-5.2637,-5.2564,-5.2197,-5.2123,-5.2123,-5.2123,-5.1756,-5.1573,-5.2013,-5.1756,-5.161,-5.205,-5.2123,-5.2123,-5.2123,-5.2123,-5.2123,-5.2123,-5.2123,-5.2123,-5.2123,-5.2454,-5.2637,-5.2637,-5.2307,-5.2123,-5.2123,-5.2123,-5.2123,-5.2123,-5.2123,-5.2123,-5.2123,-5.2491,-5.2637,-5.2674,-5.3041,-5.3203,-6.3672,-6.4414,-6.5156,-6.4453,0.0,-6.7226,-6.6953,-6.4883,-6.3125,0.0,0.0,-6.1992,-6.1992,-6.2425,-6.2842,-6.3042,-6.3356,-6.3538,-6.332,-6.3128,-6.2781,-6.2178,-6.1908,-6.1524,-6.0858,-6.0781,-6.0781,-6.0781,-6.0469,-6.0074,-5.9576,-5.9102,-5.8541,-5.7892,-5.6397,-5.55,-5.5317,-5.3922,-5.3203,-5.3203,-5.3203,-5.3203,-5.3203,-5.3203,-5.3203,-5.3203,-5.3203,-5.3203,-5.3203,-5.3203,-5.3203,-5.3203,-5.3203,-5.3203,-5.3203,-5.3203,-5.3203,-5.3203,-5.3203,-5.3203,-5.3203,-5.3203,-5.3203,-5.3203,-5.3203,-5.3203,-5.3203,-5.3203,-5.3203,-5.3203,-5.3203,-5.3203,-5.3203,-5.3203,-5.3203,-5.3203,-5.3203,-5.3203,-5.3203,-5.3203,-5.2711,-5.2491,-5.3093,-5.2711,-5.2491,-5.3115,-5.3203,-5.3203,-5.3203,-5.3203,-5.3203,-5.3203,-5.3203,-5.3203,-5.3203,-5.3203,-5.3203,-5.3203,-5.3203,-5.3203,-5.3203,-5.3203,-5.3203,-5.3203,-5.3203,-5.3203,-5.3203,-5.3203,-5.3203,-5.3203,-5.3203,-5.3203,-6.5,-6.4922,-6.4375,-6.4336,-6.4453,-6.5,-6.6562,-6.4883,-6.3476,-6.5078,-6.4062,-6.289,-6.289,-6.3358,-6.339,-6.2507,-6.3571,-6.4205,-6.3423,-6.2666,-6.2178,-6.2101,-6.1408,-6.0858,-6.0819,-6.0781,-6.0781,-6.0781,-6.0757,-6.0533,-6.0089,-5.9592,-5.8783,-5.7556,-5.6282,-5.5244,-5.4473,-5.3628,-5.3203,-5.3203,-5.3203,-5.3203,-5.3203,-5.3203,-5.3203,-5.3203,-5.3203,-5.3203,-5.3203,-5.3203,-5.3203,-5.3203,-5.3203,-5.3203,-5.3203,-5.3203,-5.3203,-5.3203,-5.3203,-5.3203,-5.3203,-5.3203,-5.3203,-5.3203,-5.3203,-5.3203,-5.3203,-5.3203,-5.3203,-5.3203,-5.3203,-5.3203,-5.3203,-5.3203,-5.3203,-5.3203,-5.3203,-5.3203,-5.3203,-5.3203,-5.313,-5.3151,-5.3167,-5.313,-5.3151,-5.3167,-5.3203,-5.3203,-5.3203,-5.3203,-5.3203,-5.3203,-5.3203,-5.3203,-5.3203,-5.3203,-5.3203,-5.3203,-5.3203,-5.3203,-5.3203,-5.3203,-5.3203,-5.3203,-5.3203,-5.3203,-5.3203,-5.3203,-5.3203,-5.3203,-5.3203,-5.3203,-6.3125,-6.293,-6.2812,-6.3359,-6.3086,0.0,0.0,-6.5703,-6.4961,-6.6172,-6.5469,-6.4413,-6.3808,-6.3315,-6.3008,-6.3115,-6.3505,-6.3666,-6.3346,-6.2589,-6.2101,-6.2101,-6.132,-6.0781,-6.0781,-6.0781,-6.0781,-6.0781,-6.0781,-6.061,-6.0132,-5.9931,-5.9114,-5.756,-5.6523,-5.5517,-5.4399,-5.3592,-5.3203,-5.3203,-5.3203,-5.3203,-5.3203,-5.3203,-5.3203,-5.3203,-5.3203,-5.3203,-5.3203,-5.3203,-5.3203,-5.3203,-5.3203,-5.3203,-5.3203,-5.3203,-5.3203,-5.3203,-5.3203,-5.3203,-5.3203,-5.3203,-5.3203,-5.3203,-5.3203,-5.3203,-5.3203,-5.3203,-5.3203,-5.3203,-5.3203,-5.3203,-5.3203,-5.3203,-5.3203,-5.3203,-5.3203,-5.3203,-5.3203,-5.3203,-5.3203,-5.3203,-5.3203,-5.3203,-5.3203,-5.3203,-5.3203,-5.3203,-5.3203,-5.3203,-5.3203,-5.3203,-5.3203,-5.3203,-5.3203,-5.3203,-5.3203,-5.3203,-5.3203,-5.3203,-5.3203,-5.3203,-5.3203,-5.3203,-5.3203,-5.3203,-5.3203,-5.3203,-5.3203,-5.3203,-5.3203,-5.3203,-6.2265,-6.1914,-6.1836,-6.2422,0.0,0.0,-6.5742,-6.6015,-6.5937,-6.707,-6.6172,-6.4881,-6.3921,-6.3077,-6.2679,-6.3169,-6.3299,-6.3205,-6.2974,-6.2435,-6.1985,-6.1716,-6.1166,-6.0781,-6.0781,-6.0781,-6.0781,-6.0781,-6.0781,-6.0647,-6.0338,-6.0175,-5.9229,-5.7398,-5.6668,-5.5592,-5.4032,-5.3482,-5.3203,-5.3203,-5.3203,-5.3203,-5.3203,-5.3203,-5.3203,-5.3203,-5.3203,-5.3203,-5.3203,-5.3203,-5.3203,-5.3203,-5.3203,-5.3203,-5.3203,-5.3203,-5.3203,-5.3203,-5.3203,-5.3203,-5.3203,-5.3203,-5.3203,-5.3203,-5.3203,-5.3203,-5.3203,-5.3203,-5.3203,-5.3203,-5.3203,-5.3203,-5.3203,-5.3203,-5.3203,-5.3203,-5.3203,-5.3203,-5.3203,-5.3203,-5.3203,-5.3203,-5.3203,-5.3203,-5.3203,-5.3203,-5.3203,-5.3203,-5.3203,-5.3203,-5.3203,-5.3203,-5.3203,-5.3203,-5.3203,-5.3203,-5.3203,-5.3203,-5.3203,-5.3203,-5.3203,-5.3203,-5.3203,-5.3203,-5.3203,-5.3203,-5.3203,-5.3203,-5.3203,-5.3203,-5.3203,-5.3203,-6.3008,-6.2344,-6.1719,-6.1719,0.0,0.0,-6.5,-6.5586,-6.6094,-6.7851,-6.6133,-6.4062,-6.3164,-6.2737,-6.2483,-6.2483,-6.2916,-6.3012,-6.2216,-6.2101,-6.1793,-6.0896,-6.0781,-6.0781,-6.0781,-6.0781,-6.0781,-6.0781,-6.0781,-6.0781,-6.0781,-6.0351,-5.9155,-5.7057,-5.6536,-5.5295,-5.3225,-5.3203,-5.3203,-5.3203,-5.3203,-5.3203,-5.3203,-5.3203,-5.3203,-5.3203,-5.3203,-5.3203,-5.3203,-5.3203,-5.3203,-5.3203,-5.3203,-5.3203,-5.3203,-5.3203,-5.3203,-5.3203,-5.3188,-5.3225,-5.3225,-5.3225,-5.3225,-5.3225,-5.3225,-5.3225,-5.3188,-5.3203,-5.3203,-5.3203,-5.3203,-5.3203,-5.3203,-5.3203,-5.3203,-5.3203,-5.3203,-5.3203,-5.3203,-5.3203,-5.3203,-5.3203,-5.3203,-5.3203,-5.3203,-5.3203,-5.3203,-5.3203,-5.3203,-5.3203,-5.3203,-5.3203,-5.3203,-5.3203,-5.3203,-5.3203,-5.3203,-5.3203,-5.3203,-5.3203,-5.3203,-5.3203,-5.3203,-5.3203,-5.3203,-5.3203,-5.3203,-5.3203,-5.3203,-5.3203,-5.3203,-5.3203,-6.2265,-6.1914,-6.1836,-6.2461,-6.2617,-6.3125,0.0,-6.5586,0.0,-6.7851,-6.6601,-6.4961,-6.4062,-6.3252,-6.2492,-6.1768,-6.1663,-6.1561,-6.1239,-6.1166,-6.1089,-6.0819,-6.0781,-6.0781,-6.0781,-6.0781,-6.0781,-6.0781,-6.0781,-6.0781,-6.0781,-6.0083,-5.8855,-5.7073,-5.6287,-5.5025,-5.3225,-5.3203,-5.3203,-5.3203,-5.3203,-5.3203,-5.3203,-5.3203,-5.3203,-5.3203,-5.3203,-5.3203,-5.3203,-5.3203,-5.3203,-5.3203,-5.3203,-5.3203,-5.3203,-5.3203,-5.3203,-5.323,-5.3506,-5.3424,-5.3314,-5.3906,-5.3888,-5.3643,-5.3643,-5.3643,-5.3565,-5.3293,-5.3203,-5.3203,-5.3203,-5.3203,-5.3203,-5.3203,-5.3203,-5.3203,-5.3203,-5.3203,-5.3203,-5.3203,-5.3203,-5.3203,-5.3203,-5.3203,-5.3203,-5.3203,-5.3203,-5.3203,-5.3203,-5.3203,-5.3203,-5.3203,-5.3203,-5.3203,-5.3203,-5.3203,-5.3203,-5.3203,-5.3203,-5.3203,-5.3203,-5.3203,-5.3203,-5.3203,-5.3203,-5.3203,-5.3203,-5.3203,-5.3203,-5.3203,-5.3203,-5.3203,-6.1836,-6.1719,-6.1914,-6.2773,-6.3008,-6.3476,-6.5195,-6.5859,-6.6523,-6.789,-6.6797,-6.5312,-6.4453,-6.3499,-6.2453,-6.1468,-6.1143,-6.0954,-6.0827,-6.0781,-6.0781,-6.0781,-6.0781,-6.0781,-6.0781,-6.0781,-6.0781,-6.0781,-6.0781,-6.0781,-6.0781,-5.9973,-5.8821,-5.7294,-5.6429,-5.5265,-5.372,-5.3543,-5.3543,-5.3701,-5.3359,-5.3293,-5.3424,-5.3272,-5.3203,-5.3203,-5.3203,-5.3203,-5.3203,-5.3203,-5.3203,-5.3203,-5.3203,-5.3203,-5.3209,-5.338,-5.3424,-5.3504,-5.3943,-5.3924,-5.3814,-5.4305,-5.4305,-5.4083,-5.4083,-5.4083,-5.3977,-5.3546,-5.3424,-5.342,-5.323,-5.3203,-5.3203,-5.3203,-5.3203,-5.3203,-5.3203,-5.3203,-5.3203,-5.3203,-5.3203,-5.3203,-5.3203,-5.3203,-5.3203,-5.3203,-5.3203,-5.3203,-5.3203,-5.3203,-5.3203,-5.3203,-5.3203,-5.3203,-5.3203,-5.3203,-5.3203,-5.3203,-5.3203,-5.3203,-5.3203,-5.3203,-5.3203,-5.3203,-5.3203,-5.3203,-5.3203,-5.3203,-5.3203,-5.3203,-5.3203,-5.3203,-6.1719,-6.1758,-6.2031,-6.289,-6.3242,-6.3789,-6.5351,-6.6328,-6.7109,-6.793,-6.6758,-6.5312,-6.4453,-6.3502,-6.2503,-6.1489,-6.1165,-6.0991,-6.0834,-6.0804,-6.0781,-6.0781,-6.0781,-6.0781,-6.0781,-6.0781,-6.0781,-6.0781,-6.0781,-6.0781,-6.0704,-5.9858,-5.8793,-5.7537,-5.6684,-5.5703,-5.4522,-5.4083,-5.4083,-5.4468,-5.3682,-5.3504,-5.3832,-5.342,-5.3203,-5.3203,-5.3203,-5.3203,-5.3203,-5.3203,-5.3203,-5.3225,-5.323,-5.3251,-5.3277,-5.3702,-5.3851,-5.3923,-5.4387,-5.4516,-5.45,-5.4579,-5.4579,-5.4547,-5.4547,-5.4547,-5.4452,-5.3995,-5.3851,-5.3777,-5.3359,-5.3251,-5.323,-5.3225,-5.3203,-5.3203,-5.3203,-5.3203,-5.3203,-5.3203,-5.3203,-5.3203,-5.3203,-5.3203,-5.3203,-5.3203,-5.3203,-5.3203,-5.3203,-5.3203,-5.3203,-5.3203,-5.3203,-5.3203,-5.3203,-5.3203,-5.3203,-5.3203,-5.3203,-5.3203,-5.3203,-5.3203,-5.3203,-5.3203,-5.3203,-5.3203,-5.3203,-5.3203,-5.3203,-5.3203,-5.3203,-5.3203,-6.1719,-6.2187,-6.293,-6.3789,-6.5039,-6.6172,-6.6523,-6.6758,-6.6953,-6.7148,-6.6328,-6.5312,-6.4453,-6.3554,-6.2645,-6.1609,-6.1339,-6.1172,-6.0991,-6.086,-6.0781,-6.0781,-6.0781,-6.0781,-6.0781,-6.0781,-6.0781,-6.0781,-6.0781,-6.0512,-5.9819,-5.9011,-5.7949,-5.6698,-5.5845,-5.5095,-5.4522,-5.4387,-5.4387,-5.4484,-5.4288,-5.4292,-5.4322,-5.3543,-5.3203,-5.3203,-5.3203,-5.3203,-5.3203,-5.3203,-5.3203,-5.323,-5.3546,-5.3663,-5.372,-5.417,-5.4338,-5.4404,-5.4819,-5.476,-5.4594,-5.5224,-5.5224,-5.496,-5.496,-5.496,-5.4876,-5.4468,-5.4338,-5.4238,-5.3796,-5.3663,-5.3604,-5.3272,-5.3203,-5.3203,-5.3203,-5.3203,-5.3203,-5.3203,-5.3203,-5.3203,-5.3203,-5.3203,-5.3203,-5.3203,-5.3203,-5.3203,-5.3203,-5.3203,-5.3203,-5.3203,-5.3203,-5.3203,-5.3203,-5.3203,-5.3203,-5.3203,-5.3203,-5.3203,-5.3203,-5.3203,-5.3203,-5.3203,-5.3203,-5.3203,-5.3203,-5.3203,-5.3203,-5.3203,-5.3203,-5.3203,-6.1172,-6.2031,0.0,-6.4609,-6.5937,-6.6914,-6.6914,-6.6562,-6.6289,-6.6289,-6.5937,-6.5195,-6.3906,-6.332,-6.2653,-6.1671,-6.1424,-6.1318,-6.1048,-6.0925,-6.0871,-6.0804,-6.0781,-6.0781,-6.0781,-6.0781,-6.0781,-6.0781,-6.0396,-5.9973,-5.9511,-5.8357,-5.7367,-5.6714,-5.5859,-5.5275,-5.5094,-5.4876,-5.4876,-5.508,-5.4671,-5.4484,-5.4468,-5.3777,-5.34,-5.3203,-5.3203,-5.3203,-5.3203,-5.3203,-5.3297,-5.3524,-5.372,-5.3923,-5.4187,-5.4625,-5.4775,-5.4833,-5.5237,-5.5237,-5.5147,-5.5566,-5.5566,-5.5387,-5.5387,-5.5387,-5.5287,-5.489,-5.4775,-5.4686,-5.4255,-5.4135,-5.4013,-5.3585,-5.3339,-5.3203,-5.3203,-5.3203,-5.3203,-5.3203,-5.3203,-5.3203,-5.3203,-5.3203,-5.3203,-5.3203,-5.3203,-5.3203,-5.3203,-5.3203,-5.3203,-5.3203,-5.3203,-5.3203,-5.3203,-5.3203,-5.3203,-5.3203,-5.3203,-5.3203,-5.3203,-5.3203,-5.3203,-5.3203,-5.3203,-5.3203,-5.3203,-5.3203,-5.3203,-5.3203,-5.3203,-5.3203,-6.039,0.0,-6.3242,-6.5117,-6.6015,-6.6484,-6.664,-6.6015,-6.5312,-6.5195,-6.5156,-6.4726,-6.3281,-6.289,-6.2498,-6.1686,-6.1512,-6.1409,-6.1119,-6.1048,-6.0963,-6.0856,-6.0816,-6.0781,-6.0781,-6.0781,-6.0742,-6.0589,-5.9896,-5.9358,-5.9088,-5.7753,-5.6945,-5.6791,-5.6088,-5.5703,-5.5703,-5.5375,-5.5375,-5.5703,-5.504,-5.4655,-5.4579,-5.4135,-5.372,-5.3277,-5.3277,-5.3277,-5.3297,-5.338,-5.3604,-5.3923,-5.4013,-5.4272,-5.464,-5.5067,-5.5199,-5.5237,-5.5588,-5.5703,-5.5703,-5.5703,-5.5703,-5.5703,-5.5703,-5.5703,-5.5621,-5.5313,-5.5199,-5.5121,-5.4701,-5.4594,-5.4484,-5.4031,-5.3604,-5.3293,-5.3188,-5.3203,-5.3203,-5.3203,-5.3203,-5.3203,-5.3203,-5.3203,-5.3203,-5.3203,-5.3203,-5.3203,-5.3203,-5.3203,-5.3203,-5.3203,-5.3203,-5.3203,-5.3203,-5.3203,-5.3203,-5.3203,-5.3203,-5.3203,-5.3203,-5.3203,-5.3203,-5.3203,-5.3203,-5.3203,-5.3203,-5.3203,-5.3203,-5.3203,-5.3203,-5.3203,-5.9375,0.0,-6.2461,0.0,-6.5117,-6.4844,-6.5586,-6.5117,-6.4258,-6.3515,-6.3359,-6.3281,-6.3047,-6.2383,-6.1836,-6.1718,-6.1579,-6.1495,-6.1432,-6.1188,-6.0988,-6.1,-6.086,-6.0781,-6.0781,-6.0781,-6.0473,-5.9742,-5.9588,-5.8858,-5.7407,-5.7137,-5.6637,-5.5895,-5.5742,-5.5703,-5.5703,-5.5671,-5.5671,-5.5703,-5.5588,-5.5363,-5.5026,-5.4594,-5.4153,-5.372,-5.372,-5.372,-5.3758,-5.4135,-5.4338,-5.4436,-5.479,-5.496,-5.508,-5.5458,-5.561,-5.5621,-5.5692,-5.5703,-5.5703,-5.5703,-5.5703,-5.5703,-5.5703,-5.5703,-5.5703,-5.5621,-5.561,-5.5543,-5.5134,-5.504,-5.4905,-5.45,-5.4048,-5.3643,-5.3272,-5.3203,-5.3203,-5.3203,-5.3203,-5.3203,-5.3203,-5.3203,-5.3203,-5.3203,-5.3203,-5.3203,-5.3203,-5.3203,-5.3203,-5.3203,-5.3203,-5.3203,-5.3203,-5.3203,-5.3203,-5.3203,-5.3203,-5.3203,-5.3203,-5.3203,-5.3203,-5.3203,-5.3203,-5.3203,-5.3203,-5.3203,-5.3203,-5.3203,-5.3203,-5.3203,-6.0351,-6.1133,-6.2226,0.0,-6.457,-6.4414,-6.4765,-6.4219,-6.3476,-6.3086,-6.2617,-6.2265,-6.2265,-6.1953,-6.1719,-6.1719,-6.1637,-6.1582,-6.1509,-6.1353,-6.1214,-6.1031,-6.0944,-6.0699,-6.015,-6.0089,-5.9742,-5.8896,-5.8396,-5.778,-5.706,-5.656,-5.6088,-5.5703,-5.5703,-5.5703,-5.5703,-5.5703,-5.5703,-5.5703,-5.5703,-5.5599,-5.5423,-5.504,-5.4609,-5.417,-5.3905,-5.3941,-5.4204,-5.4404,-5.4625,-5.4848,-5.5053,-5.5224,-5.5446,-5.5621,-5.5703,-5.5703,-5.5703,-5.5703,-5.5703,-5.5703,-5.5703,-5.5703,-5.5703,-5.5703,-5.5703,-5.5703,-5.5703,-5.5682,-5.547,-5.5435,-5.5312,-5.4919,-5.4516,-5.4066,-5.3643,-5.3359,-5.3203,-5.3203,-5.3203,-5.3203,-5.3203,-5.3203,-5.3203,-5.3203,-5.3203,-5.3203,-5.3203,-5.3203,-5.3203,-5.3203,-5.3592,-5.3885,-5.3885,-5.4289,-5.4546,-5.4546,-5.4546,-5.4546,-5.4546,-5.4546,-5.4546,-5.4546,-5.3665,-5.3203,-5.3203,-5.3203,-5.3203,-5.3203,-5.3203,-5.3203,0.0,0.0,-6.1211,-6.3164,-6.3633,-6.3711,-6.3906,-6.3281,-6.2656,-6.2656,-6.2148,-6.1719,-6.1719,-6.1719,-6.1719,-6.1719,-6.1719,-6.1678,-6.1575,-6.1515,-6.1413,-6.1154,-6.1034,-6.0624,-5.9682,-5.9518,-5.9088,-5.805,-5.7368,-5.6907,-5.6676,-5.6049,-5.5703,-5.5703,-5.5703,-5.5703,-5.5703,-5.5703,-5.5703,-5.5703,-5.5703,-5.5703,-5.5692,-5.5262,-5.4974,-5.4775,-5.4317,-5.4338,-5.4655,-5.476,-5.496,-5.5237,-5.5237,-5.5435,-5.5703,-5.5703,-5.5703,-5.5703,-5.5703,-5.5703,-5.5703,-5.5703,-5.5703,-5.5703,-5.5703,-5.5703,-5.5703,-5.5703,-5.5703,-5.5703,-5.5703,-5.5703,-5.561,-5.53,-5.4862,-5.4338,-5.3777,-5.3404,-5.3203,-5.3203,-5.3203,-5.3203,-5.3203,-5.3203,-5.3203,-5.3203,-5.3203,-5.3203,-5.3203,-5.3408,-5.3518,-5.3518,-5.4216,-5.4693,-5.4693,-5.5244,-5.5596,-5.5596,-5.5596,-5.5596,-5.5596,-5.5596,-5.5596,-5.5596,-5.4216,-5.3518,-5.3518,-5.3298,-5.3203,-5.3203,-5.3203,-5.3203,0.0,-5.7461,0.0,-6.1211,-6.1836,-6.2031,-6.289,-6.2383,-6.1758,-6.1758,-6.1719,-6.1719,-6.1719,-6.1719,-6.1719,-6.1719,-6.1719,-6.1719,-6.1679,-6.158,-6.1501,-6.1491,-6.1195,-6.0687,-5.9865,-5.9598,-5.8819,-5.7176,-5.7022,-5.6637,-5.5818,-5.5703,-5.5703,-5.5703,-5.5703,-5.5703,-5.5703,-5.5703,-5.5703,-5.5703,-5.5703,-5.5703,-5.5692,-5.5262,-5.5313,-5.561,-5.5212,-5.5067,-5.5107,-5.547,-5.5632,-5.5682,-5.5682,-5.5692,-5.5703,-5.5703,-5.5703,-5.5703,-5.5703,-5.5703,-5.5703,-5.5703,-5.5703,-5.5703,-5.5703,-5.5703,-5.5703,-5.5703,-5.5703,-5.5703,-5.5703,-5.5703,-5.5703,-5.5692,-5.508,-5.4292,-5.342,-5.3188,-5.3203,-5.3203,-5.3203,-5.3203,-5.3203,-5.3203,-5.3203,-5.3203,-5.3203,-5.3203,-5.3203,-5.3885,-5.4326,-5.4326,-5.506,-5.5559,-5.5559,-5.5596,-5.5596,-5.5596,-5.5596,-5.5596,-5.5596,-5.5596,-5.5596,-5.5596,-5.4766,-5.4326,-5.4326,-5.3592,-5.3203,-5.3203,-5.3203,-5.3203,-5.5586,0.0,0.0,-5.8906,-5.9687,-6.0312,-6.1133,-6.1523,-6.1719,-6.1719,-6.1719,-6.1719,-6.1719,-6.1719,-6.1719,-6.1719,-6.1719,-6.1719,-6.1719,-6.1677,-6.1585,-6.1509,-6.0833,-5.9993,-5.9047,-5.8307,-5.7407,-5.6242,-5.6175,-5.6011,-5.5703,-5.5703,-5.5703,-5.5703,-5.5703,-5.5703,-5.5703,-5.5703,-5.5703,-5.5703,-5.5703,-5.5703,-5.5703,-5.5554,-5.5566,-5.5703,-5.5554,-5.5508,-5.552,-5.5621,-5.5703,-5.5703,-5.5703,-5.5703,-5.5703,-5.5703,-5.5703,-5.5703,-5.5703,-5.5703,-5.5703,-5.5703,-5.5703,-5.5703,-5.5703,-5.5703,-5.5703,-5.5703,-5.5703,-5.5703,-5.5703,-5.5703,-5.5577,-5.5067,-5.489,-5.4655,-5.3777,-5.34,-5.3203,-5.3203,-5.3203,-5.3203,-5.3203,-5.3203,-5.3203,-5.3203,-5.3203,-5.3203,-5.3203,-5.3922,-5.4399,-5.4399,-5.5574,-5.6381,-5.6381,-5.6822,-5.7152,-5.7152,-5.7152,-5.7152,-5.7152,-5.7152,-5.7152,-5.7152,-5.6345,-5.5427,-5.4399,-5.3592,-5.3203,-5.3203,-5.3739,-5.3702,-5.4336,-5.5078,0.0,-5.7539,-5.8125,-5.8789,-6.0469,-6.0859,-6.1015,-6.1562,-6.1719,-6.1719,-6.1719,-6.1719,-6.1719,-6.1719,-6.1719,-6.1719,-6.1719,-6.1719,-6.1678,-6.1579,-6.0928,-5.9994,-5.8697,-5.7937,-5.7012,-5.5791,-5.5703,-5.5703,-5.5703,-5.5703,-5.5703,-5.5703,-5.5703,-5.5703,-5.5703,-5.5703,-5.5703,-5.5703,-5.5703,-5.5703,-5.5703,-5.5703,-5.5703,-5.5703,-5.5703,-5.5703,-5.5703,-5.5703,-5.5703,-5.5703,-5.5703,-5.5703,-5.5703,-5.5703,-5.5703,-5.5703,-5.5703,-5.5703,-5.5703,-5.5703,-5.5703,-5.5703,-5.5703,-5.5703,-5.5703,-5.5703,-5.5703,-5.5703,-5.5703,-5.5703,-5.5543,-5.4848,-5.489,-5.4981,-5.4504,-5.4,-5.3602,-5.3424,-5.342,-5.3359,-5.3209,-5.3203,-5.3277,-5.3555,-5.3592,-5.3702,-5.3959,-5.473,-5.5207,-5.5207,-5.6418,-5.7189,-5.7189,-5.7703,-5.7997,-5.7997,-5.7997,-5.7997,-5.7997,-5.7997,-5.7997,-5.7997,-5.7226,-5.6271,-5.5207,-5.4399,-5.3995,-5.4032,-5.4546,-5.4509,0.0,0.0,0.0,-5.707,-5.7109,-5.7383,-6.0703,-6.0234,-5.9609,-6.1289,-6.164,-6.164,-6.168,-6.1719,-6.1719,-6.1719,-6.1719,-6.1719,-6.1719,-6.1719,-6.1719,-6.1719,-6.1541,-6.0733,-5.887,-5.8542,-5.7696,-5.585,-5.5703,-5.5703,-5.5703,-5.5703,-5.5703,-5.5703,-5.5665,-5.5665,-5.5703,-5.5665,-5.5665,-5.5703,-5.5703,-5.5703,-5.5703,-5.5703,-5.5703,-5.5665,-5.5665,-5.5665,-5.5626,-5.5665,-5.5703,-5.5703,-5.5703,-5.5703,-5.5703,-5.5703,-5.5703,-5.5703,-5.5703,-5.5703,-5.5703,-5.5703,-5.5703,-5.5703,-5.5703,-5.5703,-5.5703,-5.5703,-5.5703,-5.5703,-5.5703,-5.5703,-5.5599,-5.5199,-5.5121,-5.5216,-5.5646,-5.5136,-5.4425,-5.3962,-5.387,-5.3738,-5.3345,-5.3298,-5.3555,-5.4326,-5.4436,-5.473,-5.55,-5.6308,-5.6822,-5.6822,-5.7519,-5.7997,-5.7997,-5.7997,-5.7997,-5.7997,-5.7997,-5.7997,-5.7997,-5.7997,-5.7997,-5.7997,-5.7226,-5.6859,-5.6822,-5.5978,-5.5596,-5.5596,-5.5596,-5.5611,-5.1875,0.0,0.0,0.0,0.0,0.0,-5.5898,-5.6758,-5.7812,-5.9531,-5.9883,-6.0273,-6.1484,-6.1719,-6.1719,-6.1719,-6.1719,-6.1719,-6.1719,-6.1719,-6.1719,-6.1719,-6.1035,-6.0074,-5.8831,-5.7998,-5.7048,-5.5801,-5.5703,-5.5703,-5.5703,-5.5703,-5.5703,-5.5703,-5.5126,-5.5126,-5.5703,-5.5126,-5.5126,-5.5703,-5.5703,-5.5703,-5.5703,-5.5703,-5.5395,-5.4818,-5.4818,-5.4472,-5.3972,-5.5203,-5.5703,-5.5703,-5.5703,-5.5703,-5.5703,-5.5703,-5.5703,-5.5703,-5.5703,-5.5703,-5.5703,-5.5703,-5.5703,-5.5703,-5.5703,-5.5703,-5.5703,-5.5703,-5.5703,-5.5703,-5.5703,-5.5703,-5.5599,-5.5199,-5.53,-5.5653,-5.612,-5.6242,-5.6161,-5.5695,-5.5099,-5.474,-5.4911,-5.495,-5.4987,-5.5207,-5.5244,-5.5354,-5.5596,-5.6308,-5.6822,-5.6822,-5.7519,-5.7997,-5.7997,-5.7997,-5.7997,-5.7997,-5.7997,-5.7997,-5.7997,-5.7997,-5.7997,-5.7997,-5.7776,-5.7666,-5.7666,-5.6271,-5.5596,-5.5596,-5.5596,-5.5904,-5.1523,-5.1758,-5.2109,-5.1992,0.0,0.0,-5.4687,-5.5312,-5.6211,-5.8672,-5.9219,-5.9609,-6.0937,-6.1172,-6.1289,-6.164,-6.1719,-6.1719,-6.1719,-6.1719,-6.1719,-6.1719,-6.1166,-6.0432,-5.9412,-5.8426,-5.742,-5.6406,-5.5931,-5.5703,-5.5703,-5.5703,-5.5703,-5.5703,-5.4934,-5.4741,-5.5203,-5.4357,-5.4395,-5.5203,-5.5203,-5.5395,-5.5703,-5.5357,-5.4934,-5.4472,-5.4126,-5.3664,-5.328,-5.4241,-5.4857,-5.5203,-5.5203,-5.5395,-5.5703,-5.5703,-5.5703,-5.5703,-5.5703,-5.5703,-5.5703,-5.5703,-5.5703,-5.5703,-5.5703,-5.5703,-5.5703,-5.5703,-5.5703,-5.5703,-5.5703,-5.5703,-5.5621,-5.5411,-5.5543,-5.5967,-5.6982,-5.709,-5.6893,-5.6596,-5.6161,-5.5734,-5.5616,-5.5596,-5.5684,-5.6051,-5.6088,-5.6198,-5.6565,-5.7005,-5.7299,-5.7299,-5.7703,-5.7997,-5.7997,-5.7997,-5.7997,-5.7997,-5.7997,-5.7997,-5.7997,-5.7997,-5.7997,-5.7997,-5.7997,-5.7997,-5.7997,-5.7042,-5.6418,-5.6088,-5.6088,-5.6345,-5.1406,-5.1406,-5.1523,-5.2148,-5.1289,0.0,-5.4805,-5.4609,-5.4609,-5.7812,-5.8555,-5.8906,-5.9805,-6.0078,-6.0351,-6.1015,-6.1367,-6.1601,-6.168,-6.1719,-6.1719,-6.1719,-6.1719,-6.1285,-6.0305,-5.9282,-5.8285,-5.7273,-5.6252,-5.5703,-5.5703,-5.5703,-5.5703,-5.5703,-5.4818,-5.4395,-5.4511,-5.3549,-5.351,-5.4357,-5.4357,-5.4741,-5.5395,-5.4664,-5.4318,-5.4164,-5.3395,-5.301,-5.2933,-5.2933,-5.3472,-5.4357,-5.4472,-5.4934,-5.5588,-5.5665,-5.5703,-5.5703,-5.5703,-5.5703,-5.5703,-5.5703,-5.5703,-5.5703,-5.5703,-5.5703,-5.5703,-5.5703,-5.5703,-5.5703,-5.5703,-5.5703,-5.5703,-5.5703,-5.5703,-5.6165,-5.7819,-5.755,-5.7019,-5.7008,-5.7033,-5.6776,-5.5991,-5.589,-5.6088,-5.6822,-5.6932,-5.7189,-5.7923,-5.7997,-5.7997,-5.7997,-5.7997,-5.7997,-5.7997,-5.7997,-5.7997,-5.7997,-5.7997,-5.7997,-5.7997,-5.7997,-5.7997,-5.7997,-5.7997,-5.7997,-5.7997,-5.7923,-5.7483,-5.6822,-5.6822,-5.6822,-5.1406,-5.1406,-5.1133,-4.9922,-5.0391,0.0,-4.9648,-5.0664,-5.2305,-5.3672,-5.4531,-5.5508,-5.7031,-5.789,-5.8203,-5.7695,-5.9336,-6.0898,-6.1601,-6.1719,-6.1719,-6.1719,-6.1719,-6.1285,-6.0305,-5.9282,-5.8285,-5.7273,-5.6252,-5.5703,-5.5703,-5.5703,-5.5703,-5.5703,-5.4241,-5.378,-5.4472,-5.2933,-5.2577,-5.3433,-5.3433,-5.3549,-5.3664,-5.3549,-5.3087,-5.2385,-5.2231,-5.1779,-5.1202,-5.1202,-5.2087,-5.351,-5.4241,-5.4587,-5.4818,-5.5472,-5.5703,-5.5703,-5.5703,-5.5703,-5.5703,-5.5703,-5.5703,-5.5703,-5.5703,-5.5703,-5.5703,-5.5703,-5.5703,-5.5703,-5.5703,-5.5703,-5.5703,-5.5703,-5.5703,-5.5972,-5.7022,-5.7137,-5.7172,-5.7765,-5.7846,-5.7771,-5.7575,-5.7519,-5.7593,-5.774,-5.7776,-5.7813,-5.796,-5.7997,-5.7997,-5.7997,-5.7997,-5.7997,-5.7997,-5.7997,-5.7997,-5.7997,-5.7997,-5.7997,-5.7997,-5.7997,-5.7997,-5.7997,-5.7997,-5.7997,-5.7997,-5.7336,-5.6969,-5.6822,-5.6822,-5.6822,-5.1523,-5.1406,-5.1094,-4.9844,-4.9844,0.0,0.0,-4.9531,-5.0625,-5.2344,-5.2695,-5.3242,-5.4961,-5.5664,-5.6094,-5.6523,-5.8398,-5.9805,-5.9805,-6.0898,-6.1719,-6.1719,-6.1719,-6.1483,-6.1004,-6.0054,-5.8831,-5.7319,-5.6252,-5.5703,-5.5703,-5.5703,-5.5703,-5.5703,-5.4087,-5.3395,-5.3857,-5.2164,-5.1741,-5.2538,-5.2538,-5.2779,-5.3203,-5.2731,-5.2308,-5.1885,-5.1471,-5.1087,-5.0712,-5.0712,-5.1212,-5.2049,-5.2895,-5.3741,-5.4549,-5.4934,-5.5357,-5.5703,-5.5703,-5.5703,-5.5703,-5.5703,-5.5703,-5.5703,-5.5703,-5.5703,-5.5703,-5.5703,-5.5703,-5.5703,-5.5703,-5.5703,-5.5703,-5.5703,-5.5703,-5.5934,-5.683,-5.6983,-5.7182,-5.7726,-5.7997,-5.8071,-5.8017,-5.7997,-5.7997,-5.7997,-5.7997,-5.7997,-5.7997,-5.7997,-5.7997,-5.7997,-5.7997,-5.7997,-5.7997,-5.7997,-5.7997,-5.7997,-5.7997,-5.7997,-5.7997,-5.7997,-5.7997,-5.7997,-5.7997,-5.7997,-5.7997,-5.7189,-5.6822,-5.6822,-5.7226,-5.7189,-5.2109,-5.1914,-5.1641,-5.0469,-4.9805,-4.9375,0.0,0.0,0.0,-5.1328,-5.1289,-5.1367,-5.2773,-5.3164,-5.3711,-5.5156,-5.6953,-5.7969,-5.7265,-5.9219,-6.0781,-6.0937,-6.125,-6.1445,-6.1445,-6.0411,-5.9014,-5.7327,-5.6145,-5.5563,-5.5675,-5.5703,-5.5703,-5.5703,-5.4241,-5.3356,-5.3203,-5.1702,-5.1164,-5.1654,-5.1654,-5.2049,-5.2702,-5.201,-5.1654,-5.1615,-5.0971,-5.0712,-5.0712,-5.0712,-5.0712,-5.0789,-5.1779,-5.301,-5.428,-5.4626,-5.5126,-5.5703,-5.5703,-5.5703,-5.5703,-5.5703,-5.5703,-5.5703,-5.5703,-5.5703,-5.5703,-5.5703,-5.5703,-5.5703,-5.5703,-5.5703,-5.5703,-5.5703,-5.5703,-5.5895,-5.6599,-5.6753,-5.6871,-5.7163,-5.745,-5.7695,-5.7854,-5.7955,-5.7997,-5.7997,-5.7997,-5.7997,-5.7997,-5.7997,-5.7997,-5.7997,-5.7997,-5.7997,-5.7997,-5.7997,-5.7997,-5.7997,-5.7997,-5.7997,-5.7997,-5.7997,-5.7997,-5.7997,-5.7997,-5.7997,-5.7997,-5.7336,-5.7042,-5.7042,-5.7556,-5.7483,-5.3711,-5.3711,-5.3125,-5.0781,-5.0664,-5.0351,-4.7422,0.0,-4.875,-4.8281,0.0,-4.9258,-4.9453,0.0,0.0,-5.0898,-5.3008,-5.457,-5.4453,-5.6015,-5.7461,-5.8242,-5.9648,-6.0547,-6.0547,-5.9003,-5.7762,-5.725,-5.5736,-5.5082,-5.5675,-5.5703,-5.5703,-5.5703,-5.4818,-5.3972,-5.3203,-5.2231,-5.1471,-5.0827,-5.0827,-5.0904,-5.0981,-5.0866,-5.0827,-5.0827,-5.075,-5.0712,-5.0712,-5.0712,-5.0712,-5.0866,-5.2433,-5.3164,-5.3549,-5.5011,-5.5626,-5.5703,-5.5703,-5.5703,-5.5703,-5.5703,-5.5703,-5.5703,-5.5703,-5.5703,-5.5703,-5.5703,-5.5703,-5.5703,-5.5703,-5.5703,-5.5703,-5.5703,-5.5703,-5.5742,-5.5818,-5.5857,-5.5842,-5.5898,-5.5934,-5.6298,-5.7295,-5.7759,-5.7997,-5.7997,-5.7997,-5.7997,-5.7997,-5.7997,-5.7997,-5.7997,-5.7997,-5.7997,-5.7997,-5.7997,-5.7997,-5.7997,-5.7997,-5.7997,-5.7997,-5.7997,-5.7997,-5.7997,-5.7997,-5.7997,-5.7997,-5.7923,-5.785,-5.785,-5.7226,-5.7262,-5.2617,-5.2851,-5.2773,-5.0703,-5.0469,-5.0078,-4.7617,-4.7226,-4.7422,-4.7578,0.0,0.0,0.0,0.0,0.0,0.0,-5.2344,-5.3633,-5.2617,-5.4414,-5.6172,-5.7031,-5.7773,-5.8398,-5.8906,-5.8183,-5.7591,-5.7327,-5.5676,-5.4993,-5.5647,-5.5703,-5.5703,-5.5703,-5.4934,-5.4318,-5.3972,-5.3087,-5.2241,-5.1395,-5.1395,-5.1164,-5.0712,-5.0712,-5.0712,-5.0712,-5.0712,-5.0712,-5.0712,-5.0712,-5.0712,-5.0866,-5.2549,-5.3203,-5.3356,-5.4549,-5.528,-5.5703,-5.5703,-5.5703,-5.5703,-5.5703,-5.5703,-5.5703,-5.5703,-5.5703,-5.5703,-5.5703,-5.5703,-5.5703,-5.5703,-5.5703,-5.5703,-5.5703,-5.5703,-5.5703,-5.5703,-5.5703,-5.562,-5.5389,-5.5548,-5.5902,-5.6591,-5.7026,-5.7446,-5.7923,-5.7997,-5.7997,-5.7997,-5.7997,-5.7997,-5.7997,-5.7997,-5.7997,-5.7997,-5.7997,-5.7997,-5.7997,-5.7997,-5.7997,-5.7997,-5.7997,-5.7997,-5.7997,-5.7997,-5.7997,-5.7997,-5.7997,-5.7997,-5.7997,-5.7666,-5.7666,-5.2266,-5.2578,-5.2617,-5.0664,-5.0195,-4.9687,-4.7695,-4.7109,-4.7109,-4.7539,-4.7461,0.0,0.0,0.0,-4.9101,-4.9726,0.0,-5.2226,-5.1211,-5.25,-5.3945,-5.5039,-5.6015,-5.6953,-5.7812,-5.7372,-5.7124,-5.738,-5.5534,-5.4782,-5.5647,-5.5703,-5.5703,-5.5703,-5.5126,-5.4703,-5.4511,-5.3857,-5.301,-5.1885,-5.1885,-5.1471,-5.0712,-5.0712,-5.0712,-5.0712,-5.0712,-5.0712,-5.0712,-5.0712,-5.0712,-5.0866,-5.2549,-5.3203,-5.3318,-5.4434,-5.5203,-5.5703,-5.5703,-5.5703,-5.5703,-5.5703,-5.5703,-5.5703,-5.5703,-5.5703,-5.5703,-5.5703,-5.5703,-5.5703,-5.5703,-5.5703,-5.5703,-5.5703,-5.5703,-5.5703,-5.5703,-5.5703,-5.5593,-5.5306,-5.5503,-5.583,-5.6303,-5.6608,-5.7079,-5.7886,-5.7997,-5.7997,-5.7997,-5.7997,-5.7997,-5.7997,-5.7997,-5.7997,-5.7997,-5.7997,-5.7997,-5.7997,-5.7997,-5.7997,-5.7997,-5.7997,-5.7997,-5.7997,-5.7997,-5.7997,-5.7997,-5.7997,-5.7997,-5.7997,-5.7997,-5.7997,-5.3906,-5.3945,-5.3359,-5.082,-5.0195,-4.9531,-4.6914,-4.7617,-4.8594,-4.7773,-4.8906,-4.9844,-4.9023,-4.8867,-4.8906,0.0,0.0,0.0,0.0,-4.957,-4.9726,-5.1367,-5.4531,-5.6953,-5.7812,-5.6367,-5.5959,-5.7313,-5.5052,-5.4231,-5.5619,-5.5703,-5.5703,-5.5703,-5.5665,-5.528,-5.4511,-5.4472,-5.3587,-5.1885,-5.1885,-5.1471,-5.0712,-5.0712,-5.0712,-5.0712,-5.0712,-5.0712,-5.0712,-5.0712,-5.0712,-5.0866,-5.2549,-5.3203,-5.3395,-5.5049,-5.5665,-5.5703,-5.5703,-5.5703,-5.5703,-5.5703,-5.5703,-5.5703,-5.5703,-5.5703,-5.5703,-5.5703,-5.5703,-5.5703,-5.5703,-5.5703,-5.5703,-5.5703,-5.5703,-5.5703,-5.5703,-5.5703,-5.5715,-5.5662,-5.5675,-5.5951,-5.6676,-5.6785,-5.7079,-5.7886,-5.7997,-5.7997,-5.7997,-5.7997,-5.7997,-5.7997,-5.7997,-5.7997,-5.7997,-5.7997,-5.7997,-5.7997,-5.7997,-5.7997,-5.7997,-5.7997,-5.7997,-5.7997,-5.7997,-5.7997,-5.7997,-5.7997,-5.7997,-5.7997,-5.7997,-5.7997,-5.3125,-5.3984,-5.4258,-5.1641,-5.0976,-5.0312,-4.7734,-4.8047,-4.8633,-4.7773,-4.8984,-4.9922,-4.9062,-4.9375,0.0,0.0,0.0,0.0,0.0,-4.8594,-4.8672,-5.0391,-5.3125,-5.4765,-5.4492,-5.4875,-5.5338,-5.5735,-5.4336,-5.411,-5.5609,-5.5703,-5.5703,-5.5703,-5.5703,-5.5549,-5.528,-5.528,-5.4434,-5.2779,-5.2779,-5.2049,-5.0712,-5.0712,-5.0712,-5.0712,-5.0712,-5.0712,-5.0712,-5.0712,-5.0712,-5.0866,-5.2549,-5.3203,-5.3395,-5.5088,-5.5703,-5.5703,-5.5703,-5.5703,-5.5703,-5.5703,-5.5703,-5.5703,-5.5703,-5.5703,-5.5703,-5.5703,-5.5703,-5.5703,-5.5703,-5.5703,-5.5703,-5.5703,-5.5703,-5.5703,-5.5703,-5.6126,-5.6405,-5.5798,-5.6128,-5.6551,-5.6764,-5.6822,-5.7079,-5.7886,-5.7997,-5.7997,-5.7997,-5.7997,-5.7997,-5.7997,-5.7997,-5.7997,-5.7997,-5.7997,-5.7997,-5.7997,-5.7997,-5.7997,-5.7997,-5.7997,-5.7997,-5.7997,-5.7997,-5.7997,-5.7997,-5.7997,-5.7997,-5.7997,-5.7997,-5.7997,-5.3086,-5.3984,-5.4375,-5.2344,-5.1875,-5.1289,-4.9023,-4.9414,-5.0,-4.9141,-5.0078,-5.1016,-5.0742,-5.0664,-5.0625,0.0,0.0,0.0,0.0,-4.8203,-4.8476,-4.9609,-5.1719,-5.3203,-5.3594,-5.3704,-5.4089,-5.484,-5.3715,-5.3685,-5.5186,-5.5549,-5.5703,-5.5703,-5.5703,-5.5703,-5.5703,-5.5703,-5.5011,-5.3664,-5.3356,-5.2472,-5.1125,-5.0827,-5.0712,-5.0712,-5.0712,-5.0712,-5.0712,-5.0712,-5.0856,-5.1241,-5.2664,-5.3395,-5.3818,-5.5203,-5.5703,-5.5703,-5.5703,-5.5703,-5.5703,-5.5703,-5.5703,-5.5703,-5.5703,-5.5703,-5.5703,-5.5703,-5.5703,-5.5703,-5.5703,-5.5703,-5.5703,-5.5703,-5.5703,-5.5703,-5.5703,-5.6126,-5.6443,-5.6176,-5.6564,-5.6983,-5.7206,-5.7226,-5.7409,-5.7923,-5.7997,-5.7997,-5.7997,-5.7997,-5.7997,-5.7997,-5.7997,-5.7997,-5.7997,-5.7997,-5.7997,-5.7997,-5.7997,-5.7997,-5.7997,-5.7997,-5.7997,-5.7997,-5.7997,-5.7997,-5.7997,-5.7997,-5.7997,-5.7997,-5.7997,-5.7997]},{"header":{"parameterUnit":"m.s-1","parameterCategory":1,"la1":30.6,"la2":29.2853,"lo1":-89.7004,"lo2":-87.6739,"dy":0.0162,"dx":0.0183,"nx":112,"ny":82,"refTime":"2026-03-10T00:00:00:Z","depth":0,"parameterNumber":3,"parameterNumberName":"V-component_of_WINDS"},"data":[0.0,0.0,0.0,0.0,0.0,0.0,0.0,0.0,0.0,0.0,0.0,0.0,0.0,0.0,0.0,0.0,0.0,0.0,0.0,0.0,0.0,0.0,0.0,0.0,0.0,0.0,0.0,0.0,0.0,0.0,0.0,0.0,0.0,0.0,0.0,0.0,0.0,0.0,0.0,0.0,0.0,0.0,0.0,0.0,0.0,0.0,0.0,0.0,0.0,0.0,0.0,0.0,0.0,0.0,0.0,0.0,0.0,0.0,0.0,0.0,0.0,0.0,0.0,0.0,0.0,0.0,0.0,0.0,0.0,0.0,0.0,0.0,0.0,0.0,0.0,0.0,0.0,0.0,0.0,0.0,0.0,0.0,0.0,0.0,0.0,0.0,0.0,0.0,0.0,0.0,0.5381,0.545,0.4165,0.321,0.2944,0.1372,0.0349,0.0,0.0,0.0,0.0,0.0,0.0,0.0,0.0,0.0,0.0,0.0,0.0,0.0,0.0,0.0,0.0,0.0,0.0,0.0,0.0,0.0,0.0,0.0,0.0,0.0,0.0,0.0,0.0,0.0,0.0,0.0,0.0,0.0,0.0,0.0,0.0,0.0,0.0,0.0,0.0,0.0,0.0,0.0,0.0,0.0,0.0,0.0,0.0,0.0,0.0,0.0,0.0,0.0,0.0,0.0,0.0,0.0,0.0,0.0,0.0,0.0,0.0,0.0,0.0,0.0,0.0,0.0,0.0,0.0,0.0,0.0,0.0,0.0,0.0,0.0,0.0,0.0,0.0,0.0,0.0,0.0,0.0,0.0,0.0,0.0,0.0,0.0,0.0,0.0,0.0,0.0,0.0,0.0,0.0,0.0,0.0,0.0,0.0,0.0,0.0,0.0,0.0,0.0,0.0,0.0,0.5117,0.5505,0.5421,0.4705,0.3014,0.262,0.1785,0.013,0.0,0.0,0.0,0.0,0.0,0.0,0.0,0.0,0.0,0.0,0.0,0.0,0.0,0.0,0.0,0.0,0.0,0.0,0.0,0.0,0.0,0.0,0.0,0.0,0.0,0.0,0.0,0.0,0.0,0.0,0.0,0.0,0.0,0.0,0.0,0.0,0.0,0.0,0.0,0.0,0.0,0.0,0.0,0.0,0.0,0.0,0.0,0.0,0.0,0.0,0.0,0.0,0.0,0.0,0.0,0.0,0.0,0.0,0.0,0.0,0.0,0.0,0.0,0.0,0.0,0.0,0.0,0.0,0.0,0.0,0.0,0.0,0.0,0.0,0.0,0.0,0.0,0.0,0.0,0.0,0.0,0.0,0.0,0.0,0.0,0.0,0.0,0.0,0.0,0.0,0.0,0.0,0.0,0.0,0.0,0.0,0.0,0.0,0.0,0.0,0.0,0.0,0.0,0.7807,0.7996,0.8434,0.7655,0.6807,0.5919,0.3971,0.2434,0.1533,0.0569,0.0,0.0,0.0,0.0,0.0,0.0,0.0,0.0,0.0,0.0,0.0,0.0,0.0,0.0,0.0,0.0,0.0,0.0,0.0,0.0,0.0,0.0,0.0,0.0,0.0,0.0,0.0,0.0,0.0,0.0,0.0,0.0,0.0,0.0,0.0,0.0,0.0,0.0,0.0,0.0,0.0,0.0,0.0,0.0,0.0,0.0,0.0,0.0,0.0,0.0,0.0,0.0,0.0,0.0,0.0,0.0,0.0,0.0,0.0,0.0,0.0,0.0,0.0,0.0,0.0,0.0,0.0,0.0,0.0,0.0,0.0,0.0,0.0,0.0,0.0,0.0,0.0,0.0,0.0,0.0,0.0,0.0,0.0,0.0,0.0,0.0,0.0,0.0,0.0,0.0,0.0,0.0,0.0,0.0,0.0,0.0,0.0,0.0,0.0,0.0,0.0,0.0,1.0304,1.0568,1.0847,0.9761,0.8777,0.8336,0.527,0.3185,0.27,0.0986,0.0,0.0,0.0,0.0,0.0,0.0,0.0,0.0,0.0,0.0,0.0,0.0,0.0,0.0,0.0,0.0,0.0,0.0,0.0,0.0,0.0,0.0,0.0,0.0,0.0,0.0,0.0,0.0,0.0,0.0,0.0,0.0,0.0,0.0,0.0,0.0,0.0,0.0,0.0,0.0,0.0,0.0,0.0,0.0,0.0,0.0,0.0,0.0,0.0,0.0,0.0,0.0,0.0,0.0,0.0,0.0,0.0,0.0,0.0,0.0,0.0,0.0,0.0,0.0,0.0,0.0,0.0,0.0,0.0,0.0,0.0,0.0,0.0,0.0,0.0,0.0,0.0,0.0,0.0,0.0,0.0,0.0,0.0,0.0,0.0,0.0,0.0,0.0,0.0,0.0,0.0,0.0,0.0,0.0,0.0,0.0,0.0,0.0,0.0,0.0,0.0,0.0,1.0385,1.0847,1.088,1.094,1.0272,0.8429,0.6485,0.4652,0.2845,0.1021,0.0,0.0,0.0,0.0,0.0,0.0,0.0,0.0,0.0,0.0,0.0,0.0,0.0,0.0,0.0,0.0,0.0,0.0,0.0,0.0,0.0,0.0,0.0,0.0,0.0,0.0,0.0,0.0,0.0,0.0,0.0,0.0,0.0,0.0,0.0,0.0,0.0,0.0,0.0,0.0,0.0,0.0,0.0,0.0,0.0,0.0,0.0,0.0,0.0,0.0,0.0,0.0,0.0,0.0,0.0,0.0,0.0,0.0,0.0,0.0,0.0,0.0,0.0,0.0,0.0,0.0,0.0,0.0,0.0,0.0,0.0,0.0,0.0,0.0,0.0,0.0,0.0,0.0,0.0,0.0,0.0,0.0,0.0,0.0,0.0,0.0,0.0,0.0,0.0,0.0,0.0,0.0,0.0,0.0,0.0,0.0,0.0,0.0,0.0,0.0,0.0,0.0,1.0148,1.0602,1.0785,1.0853,1.0591,0.9862,0.8153,0.667,0.5718,0.0,0.0,0.0,0.0,0.0,0.0,0.0,0.0,0.0,0.0,0.0,0.0,0.0,0.0,0.0,0.0,0.0,0.0,0.0,0.0,0.0,0.0,0.0,0.0,0.0,0.0,0.0,0.0,0.0,0.0,0.0,0.0,0.0,0.0,0.0,0.0,0.0,0.0,0.0,0.0,0.0,0.0,0.0,0.0,0.0,0.0,0.0,0.0,0.0,0.0,0.0,0.0,0.0,0.0,0.0,0.0,0.0,0.0,0.0,0.0,0.0,0.0,0.0,0.0,0.0,0.0,0.0,0.0,0.0,0.0,0.0,0.0,0.0,0.0,0.0,0.0,0.0,0.0,0.0,0.0,0.0,0.0,0.0,0.0,0.0,0.0,0.0,0.0,0.0,0.0,0.0,0.0,0.0,0.0,0.0,0.0,0.0,0.0,0.0,0.0,0.0,0.0,0.951,1.0012,1.0446,1.0697,1.0717,1.0717,1.0717,0.8996,0.7811,0.7415,0.0,0.0,0.0,0.0,0.0,0.0,0.0,0.0,0.0,0.0,0.0,0.0,0.0,0.0,0.0,0.0,0.0,0.0,0.0,0.0,0.0,0.0,0.0,0.0,0.0,0.0,0.0,0.0,0.0,0.0,0.0,0.0,0.0,0.0,0.0,0.0,0.0,0.0,0.0,0.0,0.0,0.0,0.0,0.0,0.0,0.0,0.0,0.0,0.0,0.0,0.0,0.0,0.0,0.0,0.0,0.0,0.0,0.0,0.0,0.0,0.0,0.0,0.0,0.0,0.0,0.0,0.0,0.0,0.0,0.0,0.0,0.0,0.0,0.0,0.0,0.0,0.0,0.0,0.0,0.0,0.0,0.0,0.0,0.0,0.0,0.0,0.0,0.0,0.0,0.0,0.0,0.0,0.0,0.0,0.0,0.0,0.0,0.0,0.0,0.0,0.0,0.0,0.9381,1.0032,1.0548,1.0704,1.0717,1.0717,1.0717,0.8956,0.7691,0.0,0.0,0.0,0.0,0.0,0.0,0.0,0.0,0.0,0.0,0.0,0.0,0.0,0.0,0.0,0.0,0.0,0.0,0.0,0.0,0.0,0.0,0.0,0.0,0.0,0.0,0.0,0.0,0.0,0.0,0.0,0.0,0.0,0.0,0.0,0.0,0.0,0.0,0.0,0.0,0.0,0.0,0.0,0.0,0.0,0.0,0.0,0.0,0.0,0.0,0.0,0.0,0.0,0.0,0.0,0.0,0.0,0.0,0.0,0.0,0.0,0.0,0.0,0.0,0.0,0.0,0.0,0.0,0.0,0.0,0.0,0.0,0.0,0.0,0.0,0.0,0.0,0.0,0.0,0.0,0.0,0.0,0.0,0.0,0.0,0.0,0.0,0.0,0.0,0.0,0.0,0.0,0.0,0.0,0.0,0.0,0.0,0.0,0.0,0.0,0.0,0.0,0.0,0.9367,1.0032,1.0548,1.0704,1.0717,1.0717,1.0717,1.0104,0.9468,0.883,0.0,0.0,0.0,0.0,0.0,0.0,0.0,0.0,0.0,0.0,0.0,0.0,0.0,0.0,0.0,0.0,0.0,0.0,0.0,0.0,0.0,0.0,0.0,0.0,0.0,0.0,0.0,0.0,0.0,0.0,0.0,0.0,0.0,0.0,0.0,0.0,0.0,0.0,0.0,0.0,0.0,0.0,0.0,0.0,0.0,0.0,0.0,0.0,0.0,0.0,0.0,0.0,0.0,0.0,0.0,0.0,0.0,0.0,0.0,0.0,0.0,0.0,0.0,0.0,0.0,0.0,0.0,0.0,0.0,0.0,0.0,0.0,0.0,0.0,0.0,0.0,0.0,0.0,0.0,0.0,0.0,0.0,0.0,0.0,0.0,0.0,0.0,0.0,0.0,0.0,0.0,0.0,0.0,0.0,0.0,0.0,0.0,0.0,0.0,0.0,0.0,0.0,0.9354,0.9985,1.0466,1.0616,1.0629,1.0609,1.0548,1.0405,1.0025,0.9334,0.0,0.0,0.0,0.0,0.0,0.0,0.0,0.0,0.0,0.0,0.0,0.0,0.0,0.0,0.0,0.0,0.0,0.0,0.0,0.0,0.0,0.0,0.0,0.0,0.0,0.0,0.0,0.0,0.0,0.0,0.0,0.0,0.0,0.0,0.0,0.0,0.0,0.0,0.0,0.0,0.0,0.0,0.0,0.0,0.0,0.0,0.0,0.0,0.0,0.0,0.0,0.0,0.0,0.0,0.0,0.0,0.0,0.0,0.0,0.0,0.0,0.0,0.0,0.0,0.0,0.0,0.0,0.0,0.0,0.0,0.0,0.0,0.0,0.0,0.0,0.0,0.0,0.0,0.0,0.0,0.0,0.0,0.0,0.0,0.0,0.0,0.0,0.0,0.0,0.0,0.0,0.0,0.0,0.0,0.0,0.0,0.0,0.0,0.0,0.0,0.0,0.0,0.932,0.9876,1.0297,1.0453,1.0473,1.0419,1.029,1.0141,0.9802,0.9268,0.0,0.0,0.0,0.0,0.0,0.0,0.0,0.0,0.0,0.0,0.0,0.0,0.0,0.0,0.0,0.0,0.0,0.0,0.0,0.0,0.0,0.0,0.0,0.0,0.0,0.0,0.0,0.0,0.0,0.0,0.0,0.0,0.0,0.0,0.0,0.0,0.0,0.0,0.0,0.0,0.0,0.0,0.0,0.0,0.0,0.0,0.0,0.0,0.0,0.0,0.0,0.0,0.0,0.0,0.0,0.0,0.0,0.0,0.0,0.0,1.0202,1.027,0.0,0.0,0.0,0.0,0.0,0.0,0.0,0.0,0.0,0.0,0.0,0.0,0.0,0.0,0.0,0.0,0.0,0.0,0.0,0.0,0.0,0.0,0.0,0.0,0.0,0.0,0.0,0.0,0.0,0.0,0.0,0.0,0.0,0.0,0.0,0.0,0.0,0.0,0.0,0.0,0.9221,0.9618,1.0025,1.0297,1.0324,1.0317,1.0283,1.0141,0.9842,0.9361,0.8769,0.0,0.0,0.0,0.0,0.0,0.0,0.0,0.0,0.0,0.0,0.0,0.0,0.0,0.0,0.0,0.0,0.0,0.0,0.0,0.0,0.0,0.0,0.0,0.0,0.0,0.0,0.0,0.0,0.0,0.0,0.0,0.0,0.0,0.0,0.0,0.0,0.0,0.0,0.0,0.0,0.0,0.0,0.0,0.0,0.0,0.0,0.0,0.0,0.0,0.0,0.0,0.0,0.0,0.0,0.0,0.0,0.0,0.0,0.0,1.1235,1.046,0.0,0.0,0.0,0.0,0.0,0.0,0.0,0.0,0.0,0.0,0.0,0.0,0.0,0.0,0.0,0.0,0.0,0.0,0.0,0.0,0.0,0.0,0.0,0.0,0.0,0.0,0.0,0.0,0.0,0.0,0.0,0.0,0.0,0.0,0.0,0.0,0.0,0.0,0.0,0.0,1.0283,1.1286,1.2137,1.242,1.2453,1.242,1.2398,1.1571,1.0876,1.0433,0.9377,0.0,0.0,0.0,0.0,0.0,0.0,0.0,0.0,0.0,0.0,0.0,0.0,0.0,0.0,0.0,0.0,0.0,0.0,0.0,0.0,0.0,0.0,0.0,0.0,0.0,0.0,0.0,0.0,0.0,0.0,0.0,0.0,0.0,0.0,0.0,0.0,0.0,0.0,0.0,0.0,0.0,0.0,0.0,0.0,0.0,0.0,0.0,0.0,0.0,0.0,0.0,0.0,0.0,1.4045,1.4922,1.6501,1.6557,1.665,1.644,1.3194,1.1725,1.1681,1.1792,0.0,0.0,0.0,0.0,0.0,0.0,0.0,0.0,0.0,0.0,0.0,0.0,0.0,0.0,0.0,0.0,0.0,0.0,0.0,0.0,0.0,0.0,1.2538,1.2316,1.3451,1.37,1.0224,0.0,0.0,0.0,0.0,0.0,0.0,0.0,0.0,0.0,0.0,0.0,1.1678,1.3174,1.4341,1.4651,1.4681,1.4691,1.4609,1.3407,1.241,1.2016,1.0476,0.9391,0.0,0.0,0.0,0.0,0.0,0.0,0.0,0.0,0.0,0.0,0.0,0.0,0.0,0.0,0.0,0.0,0.0,0.0,0.0,0.0,0.0,0.0,0.0,0.0,0.0,0.0,0.0,0.0,0.0,0.0,0.0,0.0,1.0968,1.109,0.0,0.0,0.0,0.0,0.0,0.0,0.0,0.0,0.0,0.0,0.0,0.0,0.0,1.5351,1.5574,1.5728,1.5913,1.6176,1.6322,1.649,1.6758,1.6789,1.6799,1.6742,1.6372,0.0,1.5668,1.5502,0.0,0.0,0.0,0.0,0.0,0.0,0.0,0.0,0.0,0.0,0.0,0.0,0.0,0.0,0.0,0.0,0.0,0.0,0.0,0.0,0.0,0.0,1.474,1.4199,1.4425,1.4514,1.3579,1.2999,1.2608,1.2257,1.203,1.1444,0.0,0.0,0.0,0.0,0.0,0.0,1.2621,1.3217,1.3778,1.4169,1.4219,1.4348,1.4589,1.4421,1.4183,1.4021,1.3423,1.294,1.2772,1.0905,0.0,0.0,0.0,0.0,0.0,0.0,0.0,0.0,0.0,0.0,0.0,0.0,0.0,0.0,0.0,0.0,0.0,0.0,0.0,0.0,0.0,0.0,0.0,0.0,0.0,0.0,0.0,0.0,0.0,1.0975,1.1398,1.2391,1.2535,1.3141,0.0,0.0,0.0,0.0,0.0,0.0,0.0,0.0,0.0,1.6367,1.634,1.6402,1.6619,1.6655,1.7304,1.8385,1.8485,1.9083,2.0255,2.0255,2.0255,2.0199,2.0319,2.0083,1.9578,1.731,1.6216,1.5805,0.0,0.0,0.0,0.0,1.4328,1.4332,1.5184,1.5412,1.5268,1.5009,0.0,0.0,0.0,0.0,0.0,0.0,0.0,1.4151,1.4341,1.5408,1.6298,1.6109,1.6866,1.754,1.737,1.6871,1.5806,1.3593,1.316,1.2725,1.1535,1.1786,0.0,0.0,0.0,1.3912,1.4115,1.5225,1.6184,1.6553,1.6601,1.6648,1.6767,1.5966,1.5396,1.5255,1.414,1.3413,1.3232,1.2218,1.1546,0.0,0.0,0.0,0.0,0.0,0.0,0.0,0.0,0.0,0.0,0.0,0.0,0.0,0.0,0.0,0.0,0.0,0.0,0.0,0.0,0.0,0.0,0.0,0.0,0.0,0.0,0.0,0.0,1.1913,1.2933,1.3494,1.4283,1.5267,0.0,0.0,0.0,0.0,0.0,0.0,1.774,1.7862,1.8061,1.8184,1.8128,1.8139,1.8383,1.8383,1.9083,2.0588,2.0588,2.1394,2.2928,2.2928,2.2928,2.2928,2.2779,2.2619,2.219,1.918,1.7818,1.74,1.6711,1.6349,1.622,1.6222,1.6273,1.6314,1.6855,1.7025,1.6893,1.6542,1.622,1.5887,1.5322,0.0,0.0,0.0,0.0,1.5375,1.563,1.6763,1.7882,1.7886,1.889,1.9773,1.9706,1.9345,1.8138,1.5235,1.469,1.4341,1.3207,1.3214,0.0,1.2724,1.4152,1.5415,1.5698,1.7014,1.8036,1.8343,1.837,1.841,1.8477,1.7396,1.6685,1.6588,1.529,1.446,1.4283,1.3726,1.3217,1.285,0.0,0.0,0.0,0.0,0.0,0.0,0.0,0.0,0.0,0.0,0.0,0.0,0.0,0.0,0.0,0.0,0.0,0.0,0.0,0.0,0.0,0.0,0.0,0.0,0.0,0.0,0.0,0.0,0.0,1.4019,1.5838,0.0,0.0,0.0,0.0,2.1213,2.1529,2.1806,2.207,2.1833,2.2018,2.2574,2.2242,2.2242,2.2601,2.2601,2.2614,2.2764,2.2764,2.2777,2.2928,2.2928,2.2928,2.2846,2.2565,2.2432,2.2392,2.1899,2.1608,2.1096,1.9108,1.8261,1.8187,1.8308,1.8249,1.8387,2.0206,2.0645,2.0522,2.0684,2.0024,1.9171,1.9118,1.8467,0.0,0.0,1.8665,1.8731,1.9092,1.9442,1.9588,1.9394,1.9541,1.972,1.9511,1.943,1.9078,1.7965,1.7582,1.682,1.4972,0.0,1.575,1.4779,1.5758,1.6706,1.7063,1.7408,1.7729,1.7982,1.8009,1.8129,1.8464,1.8435,1.8366,1.8353,1.7965,1.7739,1.7726,1.6057,1.4946,1.4663,1.304,0.0,0.0,0.0,0.0,0.0,0.0,0.0,0.0,0.0,0.0,0.0,0.0,0.0,0.0,0.0,0.0,0.0,0.0,0.0,0.0,0.0,0.0,0.0,0.0,0.0,0.0,0.0,0.0,1.7907,1.8981,0.0,2.1551,2.1629,2.1878,2.2405,2.2672,2.2899,2.2993,2.3086,2.314,2.3153,2.306,2.2953,2.2928,2.2928,2.2928,2.2928,2.2928,2.2928,2.2928,2.2928,2.2752,2.2565,2.2458,2.2311,2.2124,2.183,2.1708,2.1523,2.0566,2.0131,2.0118,2.0157,2.0131,2.0194,2.0879,2.1042,2.0935,2.0855,2.0414,1.9893,1.9706,1.9426,1.9185,1.9199,1.9212,1.9239,1.9345,1.9439,1.9492,1.9399,1.9452,1.9492,1.9444,1.9212,1.8931,1.8424,1.8237,1.7809,1.6549,1.6647,1.6706,1.6098,1.6608,1.7085,1.7192,1.7447,1.7622,1.7729,1.7742,1.7796,1.7903,1.7903,1.7903,1.7903,1.7809,1.7742,1.7742,1.7108,1.651,1.6035,1.5257,1.4469,0.0,0.0,0.0,0.0,0.0,0.0,0.0,0.0,0.0,0.0,0.0,0.0,0.0,0.0,0.0,0.0,0.0,0.0,0.0,0.0,0.0,0.0,0.0,0.0,0.0,1.647,1.8259,2.0344,2.1414,2.2316,2.3227,2.3313,2.3233,2.3033,2.33,2.3514,2.3621,2.3714,2.3688,2.3487,2.338,2.318,2.2928,2.2928,2.2806,2.2712,2.2712,2.2659,2.2565,2.2565,2.2458,2.2271,2.2164,2.2017,2.1817,2.1523,2.1403,2.139,2.1189,2.1109,2.1109,2.1109,2.1109,2.1109,2.1109,2.1109,2.1082,2.0882,2.0628,2.0321,2.004,1.988,1.9733,1.9511,1.943,1.943,1.943,1.943,1.943,1.943,1.943,1.9345,1.9239,1.9065,1.8811,1.841,1.8343,1.8116,1.7474,1.7259,1.7166,1.7021,1.7139,1.7233,1.734,1.7514,1.7582,1.7582,1.7582,1.7582,1.7582,1.7541,1.7487,1.7487,1.7341,1.7288,1.7288,1.7288,1.7061,1.6567,1.6179,1.5692,1.5008,0.0,0.0,0.0,0.0,0.0,0.0,0.0,0.0,0.0,0.0,0.0,0.0,0.0,0.0,0.0,0.0,0.0,0.0,0.0,0.0,0.0,0.0,0.0,1.6928,2.0533,2.2626,2.0993,2.3075,2.4302,2.346,2.3888,2.3981,2.3407,2.3634,2.3928,2.4209,2.3941,2.3781,2.3768,2.3487,2.318,2.2928,2.2928,2.2699,2.2418,2.2405,2.2258,2.1991,2.1991,2.1977,2.1951,2.1735,2.1614,2.1574,2.1229,2.1109,2.1109,2.1109,2.1109,2.1109,2.1109,2.1109,2.1109,2.1109,2.1109,2.1109,2.1109,2.0922,2.0628,2.0321,2.004,1.9746,1.9511,1.943,1.943,1.943,1.943,1.943,1.943,1.9417,1.9279,1.8985,1.8905,1.8731,1.8102,1.7982,1.7876,1.7635,1.7393,1.7313,1.7542,1.7393,0.0,1.7528,1.7555,1.7555,1.7569,1.7569,1.7569,1.7569,1.7367,1.7192,1.7192,1.686,1.67,1.67,1.67,1.6567,1.6335,1.5698,1.5257,1.5008,0.0,0.0,0.0,0.0,0.0,0.0,0.0,0.0,0.0,0.0,0.0,0.0,0.0,0.0,0.0,0.0,0.0,0.0,0.0,0.0,0.0,1.7895,1.9347,1.9347,2.0778,2.2194,2.3409,2.4182,2.4623,2.4596,2.4543,2.4449,2.4289,2.4356,2.4436,2.4516,2.4249,2.3981,2.3781,2.3487,2.318,2.2928,2.2645,2.2498,2.2418,2.2205,2.2058,2.1991,2.1991,2.1871,2.1735,2.1655,2.143,2.1229,2.1149,2.1109,2.1109,2.1109,2.1109,2.1109,2.1109,2.1109,2.1109,2.1109,2.1109,2.1109,2.1109,2.1056,2.0895,2.0388,2.0174,2.0013,1.9506,1.943,1.943,1.943,1.943,1.943,1.943,1.9199,1.9025,1.8945,1.8528,1.8182,1.8022,1.7862,1.7689,1.7595,1.7515,1.7541,1.7569,1.7393,1.7233,1.7313,1.7074,1.7034,1.73,1.7326,1.7326,1.7326,1.7246,1.7112,1.6847,1.6754,1.67,1.67,1.67,1.6567,1.6335,1.5698,1.5257,0.0,0.0,0.0,0.0,0.0,0.0,0.0,0.0,0.0,0.0,0.0,0.0,0.0,0.0,0.0,0.0,0.0,0.0,0.0,0.0,0.0,0.0,2.0152,2.164,2.1878,2.2262,2.3053,2.4595,2.4823,2.489,2.5064,2.493,2.477,2.4649,2.4636,2.4636,2.4636,2.4369,2.4075,2.3781,2.3487,2.3113,2.2686,2.2498,2.2298,2.2058,2.1884,2.1737,2.1617,2.1617,2.1523,2.1363,2.1363,2.1269,2.1109,2.1109,2.1109,2.1109,0.0,0.0,0.0,0.0,2.1109,2.1109,2.1109,2.1109,2.1109,2.1109,2.1029,2.0842,2.0374,2.0147,1.996,1.9492,1.943,1.943,1.943,1.943,1.9332,1.9212,1.9052,1.8851,1.8555,1.8235,1.7955,1.7822,1.7702,0.0,1.7582,1.7582,1.7542,1.7474,1.7313,1.7152,1.7032,1.6807,1.6767,1.6941,1.7018,1.7018,1.7018,1.6898,0.0,0.0,0.0,1.6339,1.6339,1.6339,0.0,0.0,0.0,0.0,0.0,0.0,0.0,0.0,1.495,1.5003,0.0,0.0,0.0,0.0,0.0,0.0,0.0,0.0,0.0,0.0,0.0,0.0,0.0,0.0,0.0,0.0,2.2052,2.3621,2.4168,2.4249,2.4449,2.497,2.5024,2.5024,2.5024,2.5024,2.4917,2.4649,2.4636,2.4623,2.4596,2.4315,0.0,0.0,0.0,2.3006,2.2432,2.2392,2.2098,2.1614,2.1588,2.1363,2.1109,2.1109,2.1109,2.1109,2.1109,2.1109,2.1109,2.1109,2.1109,2.1109,2.1109,2.1109,2.1109,2.1109,2.1109,2.1109,2.1109,0.0,0.0,2.1069,2.0882,2.0615,2.0281,2.0,1.9733,1.9511,1.943,1.943,1.943,1.943,1.9292,1.8998,1.8905,1.8718,1.8115,1.7969,1.7862,1.7635,1.7582,1.7569,1.7542,1.7528,1.7448,1.7246,1.7152,1.7005,1.6687,1.6633,1.662,1.6647,1.666,0.0,1.666,1.642,1.6259,1.6268,1.5979,1.5784,1.5784,1.5784,1.5784,1.5784,1.5784,1.5784,1.5784,1.5784,1.5784,1.5758,1.503,1.495,0.0,0.0,0.0,0.0,0.0,0.0,0.0,0.0,0.0,0.0,0.0,0.0,0.0,0.0,0.0,2.0298,2.251,2.4155,2.4502,2.4556,2.4596,2.4716,2.4716,2.4716,2.4716,2.4716,2.4703,2.4562,2.4636,2.4529,2.4302,2.4008,2.3714,2.342,2.3113,2.2779,2.2418,2.2191,2.1897,2.1614,2.1309,0.0,2.1109,2.1109,2.1109,2.1109,2.1109,2.1109,2.1109,2.1109,2.1109,2.1109,2.1109,2.1109,2.1109,2.1109,2.1109,2.1109,2.1109,2.1109,2.1069,2.0842,2.0722,2.0575,2.004,1.984,0.0,1.9511,1.943,1.943,1.943,1.943,1.9292,1.8998,1.8744,1.8477,1.8075,1.7849,1.7649,1.7595,1.7582,1.7502,1.7326,1.7286,1.7259,1.7206,1.6804,1.6469,1.6415,1.6152,1.6086,1.6326,1.6353,1.6353,1.6353,1.6348,1.6166,1.5925,1.5858,1.5784,1.5784,1.5784,1.5784,1.5784,1.5784,1.5784,1.5784,1.5784,1.5784,1.5784,1.5611,1.5584,0.0,0.0,0.0,0.0,0.0,0.0,0.0,0.0,0.0,0.0,0.0,1.2194,1.5178,0.0,1.8659,2.1926,2.3419,2.4302,2.4596,2.4636,2.4636,2.4636,2.4636,2.4636,2.4636,2.4636,2.4636,2.4636,2.4502,2.4356,2.4209,2.3794,2.3487,2.3327,2.2873,2.2498,2.2205,2.1911,2.1617,2.1323,2.1176,2.1109,2.1109,2.1109,2.1109,2.1109,2.1109,2.1109,2.1109,2.1109,2.1109,2.1109,2.1109,2.1109,2.1109,2.1109,2.1109,2.1109,2.1109,2.1109,2.1069,2.0775,2.0575,2.0374,1.9933,1.9693,1.9559,1.947,1.943,1.943,1.943,1.943,1.9252,1.8811,1.8597,1.837,1.7916,1.7689,1.7582,1.7582,1.7582,1.7488,1.7246,1.7072,1.6874,1.6777,1.6509,1.6219,1.6072,1.5925,1.5838,1.6032,1.6046,1.6286,1.6942,1.7545,1.7849,1.7669,1.7077,1.6763,1.6763,1.615,1.5784,1.5784,1.5784,1.5784,1.5784,1.5784,1.5784,1.5784,1.5784,1.5784,0.0,0.0,0.0,0.0,0.0,0.0,0.0,1.1096,1.1116,1.143,1.1497,1.2716,1.6458,1.7508,1.9065,2.3002,2.407,2.4449,2.469,2.4716,2.4716,2.4716,2.4676,2.4636,2.4636,2.4636,2.4636,2.4636,2.4369,2.4182,2.4128,2.3621,2.33,2.3233,2.2712,2.2271,2.1991,2.1762,2.1403,2.1109,2.1109,2.1109,2.1109,2.1109,2.1109,2.1109,2.1109,2.1109,2.1109,2.1109,2.1109,2.1109,2.1109,2.1109,2.1109,2.1109,2.1109,2.1109,2.1109,2.1069,2.0975,2.0681,2.0388,2.0094,1.98,1.9546,1.943,1.943,1.943,1.943,1.943,1.9319,1.9145,1.8624,1.845,1.825,1.7702,1.7582,1.7582,1.7582,1.7582,1.7475,1.7179,1.686,1.6607,1.6313,1.6219,1.6099,1.5811,1.5784,1.5784,1.5784,1.6021,1.6669,1.7963,1.8734,1.9268,1.9497,1.8596,1.8056,1.8056,1.6842,1.615,1.615,1.5927,1.5784,1.5784,1.5784,1.5784,1.5784,1.5784,1.5784,1.0889,1.1267,1.1246,1.1484,1.1457,1.1504,0.0,1.1925,1.1742,1.1775,1.1891,1.261,1.4672,1.68,1.8991,2.1202,2.35,2.4997,2.5024,2.5037,2.5037,2.5037,2.4796,2.4636,2.4636,2.4636,2.4636,2.4636,2.4369,2.4088,2.3834,2.3514,2.3207,2.2926,2.2592,2.2271,2.1991,2.1762,2.1403,2.1109,2.1109,2.1109,2.1109,2.1109,2.1109,2.1109,2.1109,2.1109,2.1109,2.1109,2.1109,2.1109,2.1109,2.1109,2.1109,2.1109,2.1109,2.1109,2.1109,2.0935,2.0681,2.0374,2.008,1.9786,1.9506,1.9399,1.943,1.943,1.943,1.943,1.943,1.9172,1.8891,1.8571,1.829,1.7942,1.7662,1.7582,1.7582,1.7582,1.7582,1.7408,1.6847,1.6727,1.6607,1.6313,1.6046,1.5824,1.5784,1.5784,1.5784,1.5784,1.681,1.801,1.9177,1.8457,1.8365,1.9451,1.936,1.9314,1.9314,1.8133,1.7498,1.7498,1.6386,1.5784,1.5784,1.5784,1.5784,1.5784,1.5784,1.5784,1.1155,1.1599,1.1586,1.1708,1.183,1.1979,1.223,1.2189,1.2149,1.2318,1.2406,1.3063,1.5056,1.6247,1.8048,2.1277,2.277,2.3934,2.5179,2.5184,2.5077,2.5077,2.4823,2.4636,2.4636,2.4636,2.4569,2.4396,2.4115,2.3821,2.3527,2.322,2.2993,2.2928,2.2405,2.2111,2.1991,2.1523,2.1229,2.1109,2.1109,2.1109,2.1109,2.1109,2.1109,2.1109,2.1109,2.1109,2.1109,2.1109,2.1109,2.1109,2.1109,2.1109,2.1109,2.1109,2.1109,2.1082,2.0909,2.0775,2.0601,2.0134,1.9893,1.9746,1.9452,1.943,1.943,1.943,1.943,1.943,1.943,1.9145,1.8851,1.8557,1.8263,1.7902,1.7649,1.7582,1.7582,1.7582,1.7582,1.7395,1.6807,1.67,1.6553,1.6086,1.5912,1.5784,1.5784,1.5784,1.5784,1.5784,1.7576,1.8948,1.9451,2.0314,2.1051,2.1543,2.0944,2.0522,2.0522,1.8734,1.7684,1.7684,1.7185,1.6904,1.6904,1.6904,1.6904,1.6904,1.615,1.5784,1.1358,1.1769,1.185,1.1938,1.2182,1.242,1.2467,1.2474,1.2535,1.2752,1.2759,1.3225,1.4821,1.5507,1.7042,2.0769,2.1932,2.3109,2.5304,2.5384,2.517,2.509,2.4743,2.4516,2.4516,2.4596,2.4516,2.4222,2.3928,2.3647,2.334,2.3033,2.2887,2.2739,2.2245,2.1951,2.1871,2.1363,2.1109,2.1109,2.1109,2.1109,2.1109,2.1109,2.1109,2.1109,2.1109,2.1109,2.1109,2.1109,2.1109,2.1109,2.1109,2.1056,2.0989,2.0989,2.0989,2.0962,2.0748,2.0575,2.0361,1.9933,1.9746,1.9639,1.9439,1.943,1.943,1.943,1.943,1.9403,1.9265,1.9025,1.8731,1.8437,1.8143,1.7862,1.7635,1.7582,1.7582,1.7582,1.7582,1.7395,1.6807,1.67,1.65,1.5864,1.5784,1.5784,1.5784,1.5784,1.5913,1.6292,1.7948,1.9268,1.9951,2.1587,2.2775,2.3101,2.2252,2.181,2.181,1.9497,1.818,1.818,1.787,1.7684,1.7684,1.7684,1.7684,1.7684,1.6386,1.5784,1.1443,1.1613,1.1904,1.2203,1.2494,1.2759,1.2908,1.2942,1.2942,1.2949,1.2834,1.2732,1.2811,1.4307,1.6298,1.8722,2.1034,2.3324,2.5659,2.5692,2.5398,2.5117,2.4569,2.4222,2.4222,2.4476,2.4516,2.4222,2.3928,2.3647,2.334,2.3033,2.2726,2.2445,2.2138,2.1857,2.1628,2.1256,2.1109,2.1109,2.1109,2.1109,2.1109,2.1109,2.1109,2.1109,2.1109,2.1109,2.1109,2.1109,2.1109,2.1109,2.1109,2.0935,2.0695,2.0695,2.0695,2.0681,2.0681,2.0307,1.9826,1.9813,1.9613,1.943,1.943,1.943,1.943,1.943,1.943,1.9305,1.9011,1.8718,1.8424,1.8075,1.7822,1.7595,1.7582,1.7582,1.7582,1.7582,1.7582,1.7395,1.6807,1.67,1.65,1.5864,1.5784,1.5784,1.5784,1.5784,1.6244,1.7498,1.7684,1.8688,2.1078,2.1302,2.1836,2.3038,2.3057,2.3057,2.3057,2.0719,1.9451,1.9451,1.8319,1.7684,1.7684,1.7684,1.7684,1.7684,1.6386,1.5784,0.9967,1.1064,1.2352,1.2657,1.2881,1.3064,1.322,1.3254,1.322,1.3125,1.3057,1.2996,1.2901,1.3389,1.4576,1.6872,1.9174,2.1445,2.3781,2.5114,2.5625,2.5144,2.473,2.4342,2.3955,2.4008,2.4022,2.3928,2.3647,2.334,2.3033,2.2926,2.2726,2.2432,2.2138,2.1844,2.1614,2.1256,2.1109,2.1109,2.1109,2.1109,2.1109,2.1109,2.1109,2.1109,2.1109,2.1109,2.1096,2.0895,2.0815,2.0802,2.0601,2.0468,2.0374,2.0374,2.0267,2.0094,2.0094,1.996,1.9773,1.9573,1.9452,1.943,1.943,1.943,1.943,1.943,1.9225,1.9052,1.8945,1.8557,1.8115,1.8009,1.7809,1.7582,1.7582,1.7582,1.7582,1.7582,1.7582,1.7462,1.7112,1.6834,1.65,1.5864,1.5784,1.5784,1.5784,1.5784,1.5974,1.6386,1.7902,1.9222,2.0025,2.1569,2.2668,2.3057,2.3101,2.2731,2.1943,2.0359,1.9131,1.8319,1.8688,1.8902,1.8902,1.8902,1.8902,1.881,1.6749,1.5784,0.7999,0.9674,1.1543,1.1813,1.2686,1.3424,1.3471,1.3437,1.3356,1.3207,1.3044,1.2901,1.2813,1.2712,1.3497,1.5893,1.7445,1.9462,2.267,2.4041,2.4752,2.5055,2.473,2.4289,2.3821,2.3674,2.3607,2.3607,2.3434,2.3193,2.2886,2.2766,2.2565,2.2271,2.1977,2.1683,2.1403,2.1203,2.1109,2.1109,2.1109,2.1109,2.1109,2.1109,2.1109,2.1109,2.1109,2.1056,2.0935,2.0748,2.0615,2.0494,2.0307,2.0174,2.008,2.008,1.9893,1.9653,1.976,1.9733,1.9613,1.9484,1.943,1.943,1.943,1.943,1.9403,1.9239,1.9078,1.8878,1.8608,1.8275,1.7969,1.7849,1.7729,1.7582,1.7582,1.7582,1.7582,1.7582,1.7582,1.7488,1.7246,1.682,1.638,1.5899,1.5784,1.5784,1.5784,1.5784,1.5784,1.5784,1.7623,1.9039,1.9451,2.1302,2.2624,2.3057,2.2687,2.212,2.1346,1.9724,1.8503,1.7731,1.8457,1.8856,1.8856,1.8856,1.8856,1.881,1.6749,1.5784,0.5654,0.75,0.9536,0.9911,1.1818,1.3606,1.355,1.3492,1.3336,1.3173,1.2786,1.2474,1.2467,1.2244,1.295,1.5408,1.5896,1.7663,2.2305,2.2548,2.3,2.4878,2.4569,2.4102,2.3781,2.3487,2.3313,2.33,2.33,2.3166,2.2928,2.2565,2.2271,2.1977,2.1762,2.1403,2.1109,2.1109,2.1109,2.1109,2.1109,2.1109,2.1109,2.1109,2.1096,2.1082,2.1082,2.0922,2.0655,2.0641,2.0468,2.0214,2.0127,2.0013,1.9773,1.9773,1.9599,1.947,1.9679,1.9599,1.943,1.943,1.943,1.943,1.943,1.943,1.9305,1.9011,1.8918,1.8715,1.8142,1.7982,1.7889,1.7649,1.7582,1.7582,1.7582,1.7582,1.7582,1.7582,1.7582,1.7488,1.7246,1.6737,1.6219,1.5899,1.5845,1.5798,1.5784,1.5784,1.5784,1.5784,1.6951,1.8133,1.9314,2.0567,2.1747,2.2862,2.1898,2.1239,2.1105,1.8902,1.7684,1.7591,1.7684,1.7684,1.7684,1.7684,1.7684,1.7684,1.6386,1.5784,0.401,0.5665,0.7817,0.9613,1.0508,1.136,1.2986,1.318,1.2996,1.2725,1.2406,1.2142,1.2026,1.2033,1.2395,1.3267,1.4915,1.7198,2.032,2.1828,2.3206,2.4904,2.4756,2.4235,2.3514,2.3367,2.3233,2.2993,2.2979,2.2846,2.2552,2.2458,2.2191,2.1748,2.1655,2.1403,2.1109,2.1109,2.1109,2.1109,2.1109,2.1109,2.1109,2.1109,2.0989,2.0788,2.0788,2.0615,2.0334,2.0107,1.9973,1.9893,1.9679,1.9546,1.9479,1.9479,1.9439,1.943,1.9511,1.9484,1.943,1.943,1.943,1.943,1.943,1.943,1.9305,1.9011,1.8771,1.8517,1.8089,1.7876,1.7675,1.7595,1.7582,1.7582,1.7582,1.7582,1.7582,1.7582,1.7582,1.7488,1.7246,1.7072,1.6804,1.6233,1.6152,1.6086,1.5811,1.5784,1.5784,1.5784,1.6951,1.7824,1.8133,2.0087,2.1078,2.0449,2.0989,2.0477,1.8688,1.8056,1.7264,1.6292,1.7217,1.7684,1.7684,1.7684,1.7684,1.7684,1.6386,1.5784,0.1939,0.3555,0.5653,0.6916,0.8716,1.0472,1.1494,1.2404,1.284,1.24,1.2074,1.1823,1.1667,1.1762,1.1965,1.2264,1.3615,1.5877,1.9293,2.0692,2.2287,2.4938,2.501,2.4489,2.3607,2.3527,2.334,2.2968,2.2928,2.2726,2.2432,2.2298,2.2017,2.1628,2.1494,2.1283,2.1109,2.1109,2.1109,2.1109,2.1109,2.1109,2.1109,2.0975,2.0828,2.0668,2.0535,2.0321,2.0027,1.9867,1.972,1.9599,1.9439,1.943,1.943,1.943,1.943,1.943,1.943,1.943,1.943,1.943,1.943,1.943,1.943,1.9279,1.9118,1.8811,1.8517,1.8223,1.7916,1.7716,1.7582,1.7582,1.7582,1.7582,1.7582,1.7582,1.7582,1.7582,1.7582,1.7488,1.7246,1.7206,1.7045,1.654,1.646,1.6406,1.6233,1.5944,1.5784,1.5784,1.6433,1.7091,1.7638,1.8948,1.9679,1.9497,1.9633,1.9131,1.7777,1.7185,1.6527,1.5832,1.648,1.6857,1.6857,1.6857,1.6857,1.6857,1.6103,1.5784,0.0,0.1512,0.3234,0.3489,0.6581,0.9545,0.9738,1.1183,1.2364,1.2121,1.1748,1.1491,1.1355,1.147,1.1687,1.1986,1.2406,1.4215,1.8628,1.9354,2.083,2.4598,2.5059,2.469,2.3848,2.3768,2.3514,2.2981,2.2887,2.2672,2.2378,2.2084,2.179,2.1574,2.1243,2.1109,2.1109,2.1109,2.1109,2.1109,2.1109,2.1082,2.1042,2.0788,2.0628,2.0548,2.0281,2.0013,1.9746,1.9746,1.9599,1.943,1.943,1.943,1.943,1.943,1.943,1.943,1.943,1.943,1.943,1.943,1.943,1.943,1.943,1.9158,1.8865,1.8571,1.8277,1.7916,1.7662,1.7582,1.7582,1.7582,1.7582,1.7582,1.7582,1.7582,1.7582,1.7582,1.7582,1.7554,1.73,1.7259,1.7152,1.6807,1.6767,1.6754,1.6714,1.6233,1.5885,1.5885,1.5845,1.6244,1.7358,1.7591,1.8041,1.8948,1.818,1.7667,1.7525,1.6414,1.5798,1.5885,1.5798,1.5784,1.5784,1.5824,1.5885,1.5885,1.5878,1.5904,0.0,0.0337,0.1097,0.2862,0.3932,0.5451,0.8691,0.9527,0.9994,1.1398,1.1362,1.0988,1.0961,1.1246,1.1525,1.1823,1.225,1.3539,1.655,1.8081,1.9931,2.252,2.3958,2.4462,2.3834,2.3768,2.3514,2.2981,2.2632,2.2365,2.2071,2.179,2.1496,2.1189,2.1136,2.1109,2.1109,2.1109,2.1109,2.1109,2.1109,2.0989,2.0748,2.0695,2.0414,1.9947,1.9893,1.9706,1.9439,1.9439,1.9412,1.943,1.943,1.943,1.943,1.943,1.943,1.943,1.943,1.943,1.943,1.943,1.943,1.943,1.943,1.9158,1.8865,1.8571,1.8277,1.7916,1.7662,1.7582,1.7582,1.7582,1.7582,1.7582,1.7582,1.7582,1.7582,1.7582,1.7582,1.7569,1.7515,1.7502,1.746,1.7166,1.7125,1.7032,1.674,1.6406,1.6192,1.6192,1.5979,1.5879,1.6103,1.7077,1.7358,1.6513,1.7217,1.7348,1.6566,1.6048,1.5939,1.6192,1.5952,1.5784,1.5784,1.6072,1.6192,1.6206,1.6446,1.6553,0.0,0.0,0.0255,0.1357,0.2425,0.376,0.5594,0.7515,0.9076,0.9736,1.0404,1.0853,1.0779,1.107,1.1348,1.1565,1.1911,1.3058,1.5722,1.6724,1.8442,2.1747,2.28,2.3362,2.3763,2.3768,2.346,2.2686,2.2365,2.2138,2.1991,2.1563,2.1256,2.1109,2.1109,2.1109,2.1109,2.1109,2.1109,2.1109,2.1109,2.0962,2.0668,2.0521,2.0214,1.9786,1.9639,1.9492,1.943,1.943,1.943,1.943,1.943,1.943,1.943,1.943,1.943,1.943,1.943,1.943,1.943,1.943,1.943,1.943,1.943,1.9052,1.8677,1.8531,1.8156,1.7769,1.7622,1.7582,1.7582,1.7582,1.7582,1.7582,1.7582,1.7582,1.7582,1.7582,1.7582,1.7582,1.7582,1.7582,1.7542,1.7447,1.742,1.7328,1.7181,1.6914,1.6723,1.6513,1.6366,1.6286,1.6286,1.6808,1.6905,1.6335,1.6856,1.6974,1.6536,1.6353,1.6353,1.65,1.6353,1.6286,1.6286,1.6433,1.65,1.65,1.6647,1.67,0.0,0.0,0.0,0.0,0.134,0.2684,0.2876,0.5607,0.8163,0.8311,0.9685,1.0793,1.0744,1.0934,1.1165,1.1314,1.1592,1.2529,1.4738,1.5413,1.694,2.0255,2.1341,2.2162,2.3034,2.3488,2.3327,2.2485,2.2084,2.1871,2.1804,2.1363,2.1109,2.1109,2.1109,2.1109,2.1109,2.1109,2.1109,2.1109,2.1042,2.0869,2.0575,2.0281,1.9987,1.9693,1.9466,1.943,1.943,1.943,1.943,1.943,1.943,1.943,1.943,1.943,1.943,1.943,1.943,1.943,1.943,1.943,1.943,1.943,1.943,1.8958,1.849,1.849,1.8103,1.7662,1.7595,1.7635,1.7662,1.7595,1.7582,1.7582,1.7582,1.7582,1.7582,1.7582,1.7582,1.7582,1.7582,1.7582,1.7582,1.7582,1.7582,1.7582,1.7582,1.7434,1.7206,1.6914,1.678,1.67,1.67,1.67,1.67,1.67,1.67,1.674,1.6794,1.674,1.674,1.6794,1.674,1.67,1.67,1.6767,1.6807,1.6807,1.686,1.6887,0.0,0.0,0.0,0.0,0.0166,0.0726,0.2484,0.0,0.6191,0.7932,0.9612,1.0738,1.0724,1.0786,0.0,0.0,0.0,1.1869,1.2546,1.4171,1.5564,1.6319,1.9306,2.1167,2.1006,2.2441,2.31,2.2472,2.1911,2.147,2.1203,2.1136,2.1109,2.1109,2.1109,2.1109,2.1109,2.1109,2.1109,2.1109,2.0842,2.0561,2.0267,1.9973,1.9679,1.947,1.943,1.943,1.943,1.943,1.943,1.943,1.943,1.943,1.943,1.943,1.943,1.943,1.943,1.943,1.943,1.943,1.943,1.943,1.943,1.8958,1.849,1.849,1.825,1.7889,1.7662,1.7796,1.7876,1.7649,1.7582,1.7582,1.7582,1.7582,1.7582,1.7582,1.7582,1.7582,1.7582,1.7582,1.7582,1.7582,1.7582,1.7582,1.7582,1.7555,1.7528,1.7502,1.7021,1.67,1.67,1.67,1.67,1.67,1.67,1.6834,1.7152,1.6847,1.6834,1.7152,1.6847,1.67,1.67,1.7032,1.7166,1.7166,1.7382,1.7502,0.0,0.0,0.0,0.0,0.0,0.0241,0.1001,0.2529,0.43,0.6141,0.7932,0.9443,1.0518,1.0772,1.086,0.0,0.0,0.0,1.1687,1.2374,1.3465,1.5092,1.6563,1.8238,2.0389,2.1084,2.1539,2.1885,2.151,2.1229,2.1122,2.1109,2.1109,2.1109,2.1109,2.1109,2.1109,2.1109,2.1029,2.0842,2.0735,2.0428,1.9973,1.9853,1.9639,1.943,1.943,1.943,1.943,1.943,1.943,1.943,1.943,1.943,1.943,1.943,1.943,1.943,1.943,1.943,1.943,1.943,1.943,1.943,1.943,1.9078,1.8744,1.8744,1.8544,1.829,1.8156,1.809,1.7916,1.7662,1.7582,1.7582,1.7582,1.7582,1.7582,1.7582,1.7582,1.7582,1.7582,1.7582,1.7582,1.7582,1.7582,1.7582,1.7582,1.7582,1.7582,1.7582,1.7368,1.7235,1.7235,1.7235,1.7235,1.7235,1.7235,1.7288,1.746,1.7288,1.7288,1.746,1.7288,1.7235,1.7235,1.7407,1.746,1.746,1.7528,1.7582,0.0,0.0,0.0,0.0,0.0,0.0,0.0,0.1413,0.3083,0.4365,0.638,0.8368,0.9643,1.0319,1.0758,0.0,0.0,1.0914,1.1274,1.1267,1.1916,1.3722,1.4361,1.5774,1.8464,1.9392,2.0122,2.0799,2.1014,2.1109,2.1109,2.1109,2.1109,2.1109,2.1109,2.1109,2.1109,2.1029,2.0882,2.0668,2.0508,2.0201,1.98,1.9706,1.9559,1.943,1.943,1.943,1.943,1.943,1.943,1.943,1.943,1.943,1.943,1.943,1.943,1.943,1.943,1.943,1.943,1.943,1.943,1.943,1.943,1.9158,1.8918,1.8918,1.8651,1.8384,1.8464,1.8196,1.7849,1.7635,1.7582,1.7582,1.7582,1.7582,1.7582,1.7582,1.7582,1.7582,1.7582,1.7582,1.7582,1.7582,1.7582,1.7582,1.7582,1.7582,1.7582,1.7582,1.7582,1.7582,1.7582,1.7582,1.7582,1.7582,1.7582,1.7582,1.7582,1.7582,1.7582,1.7582,1.7582,1.7582,1.7582,1.7582,1.7582,1.7582,1.7582,1.7582,0.0,0.0,0.0,0.0,0.0,0.0,0.0,0.1422,0.2732,0.2695,0.5545,0.803,0.803,0.951,1.0717,1.0724,0.0,0.0,1.1145,1.1294,1.1443,1.1606,1.3154,1.4299,1.4486,1.7333,1.9182,1.9054,2.0298,2.1109,2.1109,2.1109,2.1109,2.1109,2.1109,2.1109,2.1109,2.0828,2.0681,2.0668,2.0094,1.9813,1.9786,1.9506,1.943,1.943,1.943,1.943,1.943,1.943,1.943,1.943,1.943,1.943,1.943,1.943,1.943,1.943,1.943,1.943,1.943,1.943,1.943,1.943,1.943,1.9158,1.8918,1.8918,1.8448,1.8062,1.841,1.8036,1.7582,1.7582,1.7582,1.7582,1.7582,1.7582,1.7582,1.7582,1.7582,1.7582,1.7582,1.7582,1.7582,1.7582,1.7582,1.7582,1.7582,1.7582,1.7582,1.7582,1.7582,1.7582,1.7582,1.7582,1.7582,1.7582,1.7582,1.7582,1.7582,1.7582,1.7582,1.7582,1.7582,1.7582,1.7582,1.7582,1.7582,1.7582,1.7582,1.7582,0.0,0.0,0.0,0.0,0.0,0.0,0.0,0.0441,0.1211,0.2415,0.4603,0.6564,0.7764,0.951,1.0717,1.0717,1.0758,0.0,1.0853,1.0989,1.1145,1.1287,1.3006,1.4119,1.3991,1.7057,1.8977,1.8653,2.0183,2.1109,2.1109,2.1109,2.1109,2.1109,2.1109,2.1109,2.1109,2.0815,2.0575,2.0374,1.9987,1.9693,1.9506,1.947,1.943,1.943,1.943,1.943,1.943,1.943,1.943,1.943,1.943,1.943,1.943,1.943,1.943,1.943,1.943,1.943,1.943,1.943,1.943,1.943,1.943,1.9158,1.8878,1.8677,1.849,1.833,1.8223,1.805,1.7849,1.7635,1.7582,1.7582,1.7582,1.7582,1.7582,1.7582,1.7582,1.7582,1.7582,1.7582,1.7582,1.7582,1.7582,1.7582,1.7582,1.7582,1.7582,1.7582,1.7582,1.7582,1.7582,1.7582,1.7582,1.7582,1.7582,1.7582,1.7582,1.7582,1.7582,1.7582,1.7582,1.7582,1.7582,1.7582,1.7582,1.7582,1.7582,1.7582,0.0,0.0,0.0,0.0,0.0,0.0,0.0,0.0,0.0355,0.1449,0.3117,0.4894,0.6698,0.8501,0.9915,1.0585,1.0717,1.0717,1.0717,1.0853,1.1002,1.1214,1.2335,1.295,1.2717,1.5262,1.7075,1.7485,1.9152,2.0399,2.1046,2.1109,2.1109,2.1109,2.1109,2.1056,2.0949,2.0655,2.0361,2.0067,1.9773,1.9546,1.943,1.943,1.943,1.943,1.943,1.943,0.0,1.943,1.943,1.943,1.943,1.943,1.943,1.943,1.943,1.943,1.943,1.943,1.943,1.943,1.943,1.9403,1.9239,1.9145,1.9052,1.8878,1.8744,1.8611,1.8368,1.8155,1.7942,1.7809,1.7662,1.7582,1.7582,1.7582,1.7582,1.7582,1.7582,1.7582,1.7582,1.7582,1.7582,1.7582,1.7582,1.7582,1.7582,1.7582,1.7582,1.7582,1.7582,1.7582,1.7582,1.7582,1.7582,1.7582,1.7582,1.7582,1.7582,1.7582,1.7582,1.7582,1.7582,1.7582,1.7582,1.7582,1.7582,1.7582,1.7582,1.7582,0.0,0.0,0.0,0.0,0.0,0.0,0.0,0.0,0.0,0.0,0.1425,0.3222,0.5095,0.6831,0.8568,1.0386,1.0717,1.0717,1.0717,1.086,1.1016,1.1145,1.1234,1.1104,1.0894,1.2463,1.4108,1.5609,1.7474,1.9228,2.0843,2.1046,2.1109,2.1109,2.1082,2.0949,2.0681,2.0374,2.0094,1.98,1.9506,1.943,1.943,1.943,1.943,1.943,1.943,1.943,1.943,1.943,1.943,1.943,1.943,1.943,1.943,1.943,1.943,1.943,1.943,1.943,1.943,1.943,1.943,1.9319,1.9038,1.9132,1.939,1.9319,1.9105,1.8891,1.8891,1.8435,1.8022,1.7995,1.7822,1.7609,1.7582,1.7582,1.7582,1.7582,1.7582,1.7582,1.7582,1.7582,1.7582,1.7582,1.7582,1.7582,1.7582,1.7582,1.7582,1.7582,1.7582,1.7582,1.7582,1.7582,1.7582,1.7582,1.7582,1.7582,1.7582,1.7582,1.7582,1.7582,1.7582,1.7582,1.7582,1.7609,1.7609,1.7609,1.7635,1.7649,0.0,0.0,0.0,0.0,0.0,0.0,0.0,0.0,0.0,0.0,0.1425,0.3222,0.5095,0.6831,0.8568,1.0386,1.0717,1.0717,1.0717,1.0948,1.1124,1.1158,1.1234,1.1104,1.0894,1.2355,1.3498,1.3914,1.6754,1.8704,1.9088,2.0399,2.1109,2.1109,2.0895,2.0748,2.0681,2.0374,2.0094,1.98,1.9506,1.943,1.943,1.943,1.943,1.943,1.943,1.943,1.943,1.943,1.943,1.943,1.943,1.943,1.943,1.943,1.943,1.943,1.943,1.943,1.943,1.943,1.943,1.9417,1.9292,1.9158,1.8985,1.8758,1.8651,1.8597,1.8597,1.849,1.833,1.8049,1.7942,1.7876,1.7635,1.7582,1.7582,1.7582,1.7582,1.7582,1.7582,1.7582,1.7582,1.7582,1.7582,1.7582,1.7582,1.7582,1.7582,1.7582,1.7582,1.7582,1.7582,1.7582,1.7582,1.7582,1.7582,1.7582,1.7582,1.7582,1.7582,1.7582,1.7582,1.7582,1.7582,1.7822,1.7943,1.7889,1.817,1.8277,0.0,0.0,0.0,0.0,0.0,0.0,0.0,0.0,0.0,0.0,0.0,0.2016,0.3823,0.5629,0.7365,0.9172,1.018,1.0744,1.0745,1.1023,1.1234,1.1234,1.1234,1.1104,1.0894,1.1599,1.2413,1.3259,1.5784,1.7667,1.8448,2.0132,2.1109,2.1109,2.0828,2.0615,2.0468,2.0187,1.9893,1.9599,1.9439,1.943,1.943,1.943,1.943,1.943,1.943,1.943,1.943,1.943,1.943,1.943,1.943,1.943,1.943,1.943,1.943,1.943,1.943,1.943,1.943,1.943,1.943,1.943,1.943,1.9252,1.9092,1.8931,1.8891,1.8891,1.8891,1.8798,1.8651,1.849,1.8288,1.821,1.8036,1.7996,1.7996,1.7996,1.7889,1.7836,1.7969,1.7876,1.7836,1.7983,1.7996,1.7996,1.7996,1.7996,1.7996,1.7996,1.7996,1.7996,1.7996,1.7996,1.7943,1.7809,1.7929,1.7996,1.7996,1.7996,1.7996,1.7996,1.7996,1.7996,1.7996,1.817,1.825,1.825,1.8424,1.849,0.0,0.0,0.0,0.0,0.0,0.0,0.0,0.0,0.0,0.0,0.0,0.0,0.235,0.4158,0.5967,0.7789,0.954,1.0799,1.086,1.1056,1.1131,1.1131,1.1131,1.1077,1.086,1.0799,1.1306,1.2808,1.4493,1.6237,1.7988,1.9737,2.0843,2.1109,2.0788,2.0494,2.018,1.9947,1.9653,1.943,1.943,1.943,1.943,1.943,1.943,1.943,1.943,1.943,1.943,1.943,1.943,1.943,1.943,1.943,1.943,1.943,1.943,1.943,1.943,1.943,1.943,1.943,1.943,1.943,1.943,1.943,1.943,1.943,1.943,1.943,1.943,1.9185,1.8985,1.8931,1.8731,1.8544,1.8504,1.849,1.849,1.849,1.829,1.8196,1.845,1.8263,1.8183,1.845,1.849,1.849,1.849,1.849,1.849,1.849,1.849,1.849,1.849,1.8531,1.845,1.8142,1.837,1.849,1.849,1.849,1.849,1.849,1.849,1.849,1.849,1.8531,1.8557,1.8557,1.8597,1.8624,0.0,0.0,0.0,0.0,0.0,0.0,0.0,0.0,0.0,0.0,0.0,0.0,0.0,0.4158,0.6053,0.7955,0.9746,1.0853,1.088,1.09,1.0982,1.0982,1.0982,1.0921,1.0772,1.0731,1.0784,1.1115,1.2742,1.4493,1.6237,1.7923,1.961,2.1046,2.0588,2.0281,2.0167,1.9947,1.9653,1.943,1.943,1.943,1.943,1.943,1.943,1.943,1.943,1.943,1.943,1.943,1.943,1.943,1.943,1.943,1.943,1.943,1.943,1.943,1.943,1.943,1.943,1.943,1.943,1.943,1.943,1.943,1.943,1.943,1.943,1.943,1.943,1.9332,1.9239,1.8985,1.8891,1.8784,1.8544,1.849,1.849,1.849,1.845,1.8437,1.8477,1.845,1.8437,1.8477,1.849,1.849,1.849,1.849,1.849,1.849,1.849,1.849,1.849,1.8718,1.8838,1.8798,1.8597,1.849,1.849,1.849,1.849,1.849,1.849,1.849,1.849,1.8731,1.8865,1.8865,1.9118,1.9239,0.0,0.0,0.0,0.0,0.0,0.0,0.0,0.0,0.0,0.0,0.0,0.0,0.0,0.3575,0.6461,0.9377,1.0509,1.1063,1.1063,1.1063,1.1036,1.0887,1.088,1.082,1.0731,1.0717,1.0717,1.0717,1.2281,1.4036,1.5784,1.7538,1.9291,2.1046,2.0535,2.0167,2.0167,1.9786,1.9506,1.943,1.943,1.943,1.943,1.943,1.943,1.943,1.943,1.943,1.943,1.943,1.943,1.943,1.943,1.943,1.943,1.943,1.943,1.943,1.943,1.943,1.943,1.943,1.943,1.943,1.943,1.943,1.943,1.943,1.943,1.943,1.943,1.943,1.9332,1.9199,1.9158,1.9132,1.8998,1.8971,1.8971,1.8971,1.8838,1.8771,1.8931,1.8838,1.8784,1.8945,1.8971,1.8971,1.8971,1.8971,1.8971,1.8971,1.8971,1.8971,1.8971,1.9092,1.9158,1.9158,1.9038,1.8971,1.8971,1.8971,1.8971,1.8971,1.8971,1.8971,1.8971,1.9105,1.9158,1.9172,1.9305,1.943,0.0,0.0,0.0,0.0,0.0,0.0,0.0,0.0,0.0,0.0,0.0,0.0,0.0,0.3067,0.6744,0.9985,1.0958,1.1275,1.1165,1.1131,1.107,1.0894,1.0847,1.0779,1.0731,1.0717,1.0717,1.0717,1.196,1.3456,1.52,1.6947,1.8669,2.0358,2.0249,2.0201,2.0134,1.9626,1.943,1.943,1.943,1.943,1.943,1.943,1.943,1.943,1.943,1.943,1.943,1.943,1.943,1.943,1.943,1.943,1.943,1.943,1.943,1.943,1.943,1.943,1.943,1.943,1.943,1.943,1.943,1.943,1.943,1.943,1.943,1.943,1.943,1.943,1.943,1.943,1.943,1.943,1.943,1.943,1.943,1.943,1.9185,1.9105,1.939,1.9185,1.9105,1.9332,1.943,1.943,1.943,1.943,1.943,1.943,1.943,1.943,1.943,1.943,1.943,1.943,1.943,1.943,1.943,1.943,1.943,1.943,1.943,1.943,1.943,1.943,1.943,1.943,1.943,1.943,0.0,0.0,0.0,0.0,0.0,0.0,0.0,0.0,0.0,0.0,0.0,0.0,0.0,0.3182,0.6383,0.8229,1.014,1.1321,1.1255,1.105,1.0894,1.088,1.0759,1.0731,1.0724,1.0717,1.0717,1.0717,1.085,1.163,1.339,1.5135,1.6786,1.8285,1.9517,2.0107,1.9826,1.9519,1.943,1.943,1.943,1.943,1.943,1.943,1.943,1.943,1.943,1.943,1.943,1.943,1.943,1.943,1.943,1.943,1.943,1.943,1.943,1.943,1.943,1.943,1.943,1.943,1.943,1.943,1.943,1.943,1.943,1.943,1.943,1.943,1.943,1.943,1.943,1.943,1.943,1.943,1.943,1.943,1.943,1.943,1.9403,1.9345,1.9417,1.9403,1.9345,1.9417,1.943,1.943,1.943,1.943,1.943,1.943,1.943,1.943,1.943,1.943,1.943,1.943,1.943,1.943,1.943,1.943,1.943,1.943,1.943,1.943,1.943,1.943,1.943,1.943,1.943,1.943,0.0,0.0,0.0,0.0,0.0,0.0,0.0,0.0,0.0,0.0,0.0,0.0351,0.1601,0.3942,0.6275,0.8099,1.0058,1.1226,1.1241,1.1036,1.088,1.088,1.0812,1.0717,1.0717,1.0717,1.0717,1.0717,1.0717,1.1439,1.3193,1.3905,1.5426,1.8011,1.8434,1.8981,1.98,1.9506,1.943,1.943,1.943,1.943,1.943,1.943,1.943,1.943,1.943,1.943,1.943,1.943,1.943,1.943,1.943,1.943,1.943,1.943,1.943,1.943,1.943,1.943,1.943,1.943,1.943,1.943,1.943,1.943,1.943,1.943,1.943,1.943,1.943,1.943,1.943,1.943,1.943,1.943,1.943,1.943,1.943,1.943,1.943,1.943,1.943,1.943,1.943,1.943,1.943,1.943,1.943,1.943,1.943,1.943,1.943,1.943,1.943,1.943,1.943,1.943,1.943,1.943,1.943,1.943,1.943,1.943,1.943,1.943,1.943,1.943,1.943,1.943,1.943,1.943,0.0,0.0,0.0,0.0,0.0,0.0,0.0,0.0,0.0,0.0,0.0,0.0425,0.1744,0.3996,0.6035,0.7337,0.9601,1.1145,1.1104,1.1009,1.086,1.0813,1.0785,1.0717,1.0717,1.0717,1.0717,1.0717,1.0717,1.124,1.2413,1.2997,1.4493,1.707,1.746,1.8264,1.9666,1.9466,1.943,1.943,1.943,1.943,1.943,1.943,1.943,1.943,1.943,1.943,1.943,1.943,1.943,1.943,1.943,1.943,1.943,1.943,1.943,1.943,1.943,1.943,1.943,1.943,1.943,1.943,1.943,1.943,1.943,1.943,1.943,1.943,1.943,1.943,1.943,1.943,1.943,1.943,1.943,1.943,1.943,1.943,1.943,1.943,1.943,1.943,1.943,1.943,1.943,1.943,1.943,1.943,1.943,1.943,1.943,1.943,1.943,1.943,1.943,1.943,1.943,1.943,1.943,1.943,1.943,1.943,1.943,1.943,1.943,1.943,1.943,1.943,1.943,1.943,0.0,0.0,0.0,0.0,0.0,0.0,0.0,0.0,0.0,0.0,0.0,0.0,0.0,0.3082,0.5604,0.5604,0.8702,1.1111,1.09,1.088,1.0826,1.0738,1.0717,1.0717,1.0717,1.0717,1.0717,1.0717,1.0717,1.0717,1.0717,1.2347,1.3793,1.4955,1.668,1.8167,1.9372,1.943,1.943,1.943,1.943,1.943,1.943,1.943,1.943,1.943,1.943,1.943,1.943,1.943,1.943,1.943,1.943,1.943,1.943,1.943,1.943,1.943,1.9359,1.9372,1.9372,1.9372,1.9372,1.9372,1.9372,1.9372,1.9359,1.943,1.943,1.943,1.943,1.943,1.943,1.943,1.943,1.943,1.943,1.943,1.943,1.943,1.943,1.943,1.943,1.943,1.943,1.943,1.943,1.943,1.943,1.943,1.943,1.943,1.943,1.943,1.943,1.943,1.943,1.943,1.943,1.943,1.943,1.943,1.943,1.943,1.943,1.943,1.943,1.943,1.943,1.943,1.943,1.943,0.0,0.0,0.0,0.0,0.0,0.0,0.0,0.0,0.0,0.0,0.0,0.0,0.0,0.1933,0.3959,0.5268,0.7435,0.9338,1.0592,1.0785,1.0772,1.0724,1.0717,1.0717,1.0717,1.0717,1.0717,1.0717,1.0717,1.0717,1.0717,1.1068,1.2443,1.4893,1.5412,1.6823,1.9372,1.943,1.943,1.943,1.943,1.943,1.943,1.943,1.943,1.943,1.943,1.943,1.943,1.943,1.943,1.943,1.943,1.943,1.943,1.943,1.943,1.9243,1.8098,1.846,1.901,1.6738,1.6797,1.7689,1.7689,1.7689,1.7923,1.9068,1.943,1.943,1.943,1.943,1.943,1.943,1.943,1.943,1.943,1.943,1.943,1.943,1.943,1.943,1.943,1.943,1.943,1.943,1.943,1.943,1.943,1.943,1.943,1.943,1.943,1.943,1.943,1.943,1.943,1.943,1.943,1.943,1.943,1.943,1.943,1.943,1.943,1.943,1.943,1.943,1.943,1.943,1.943,1.943,0.0,0.0,0.0,0.0,0.0,0.0,0.0,0.0,0.0,0.0,0.0,0.0,0.0,0.1455,0.3273,0.5108,0.6831,0.8634,1.0452,1.0717,1.0717,1.0717,1.0717,1.0717,1.0717,1.0717,1.0717,1.0717,1.0717,1.0717,1.0717,1.0575,1.1634,1.402,1.3939,1.5002,1.7455,1.811,1.811,1.7513,1.8765,1.9068,1.846,1.9127,1.943,1.943,1.943,1.943,1.943,1.943,1.943,1.943,1.943,1.943,1.9301,1.8706,1.846,1.8227,1.6621,1.668,1.7161,1.5252,1.5252,1.602,1.602,1.602,1.6374,1.7981,1.846,1.859,1.9243,1.943,1.943,1.943,1.943,1.943,1.943,1.943,1.943,1.943,1.943,1.943,1.943,1.943,1.943,1.943,1.943,1.943,1.943,1.943,1.943,1.943,1.943,1.943,1.943,1.943,1.943,1.943,1.943,1.943,1.943,1.943,1.943,1.943,1.943,1.943,1.943,1.943,1.943,1.943,1.943,1.943,0.0,0.0,0.0,0.0,0.0,0.0,0.0,0.0,0.0,0.0,0.0,0.0,0.0,0.1316,0.3071,0.4839,0.6631,0.8368,1.018,1.0585,1.0717,1.0717,1.0717,1.0717,1.0717,1.0717,1.0717,1.0717,1.0717,1.0717,1.0704,1.0555,1.1162,1.2624,1.2502,1.3116,1.4609,1.602,1.602,1.4658,1.7572,1.8227,1.6844,1.859,1.943,1.943,1.943,1.943,1.943,1.943,1.943,1.9372,1.9243,1.9185,1.8997,1.7384,1.6786,1.655,1.4955,1.448,1.454,1.4242,1.4242,1.4361,1.4361,1.4361,1.4718,1.6315,1.6786,1.7149,1.8765,1.9185,1.9243,1.9372,1.943,1.943,1.943,1.943,1.943,1.943,1.943,1.943,1.943,1.943,1.943,1.943,1.943,1.943,1.943,1.943,1.943,1.943,1.943,1.943,1.943,1.943,1.943,1.943,1.943,1.943,1.943,1.943,1.943,1.943,1.943,1.943,1.943,1.943,1.943,1.943,1.943,1.943,0.0,0.0,0.0,0.0,0.0,0.0,0.0,0.0,0.0,0.0,0.0,0.0,0.0,0.0347,0.1162,0.2959,0.476,0.6564,0.8368,0.9775,1.0717,1.0717,1.0717,1.0717,1.0717,1.0717,1.0717,1.0717,1.0717,1.067,1.0548,1.0405,1.1002,1.244,1.2317,1.2973,1.4609,1.4955,1.4955,1.4599,1.5311,1.544,1.5192,1.811,1.943,1.943,1.943,1.943,1.943,1.943,1.943,1.9243,1.7981,1.7501,1.7325,1.5725,1.5133,1.4896,1.3287,1.3526,1.4183,1.1675,1.1675,1.2689,1.2689,1.2689,1.3048,1.4658,1.5133,1.5488,1.7091,1.7501,1.7806,1.9127,1.943,1.943,1.943,1.943,1.943,1.943,1.943,1.943,1.943,1.943,1.943,1.943,1.943,1.943,1.943,1.943,1.943,1.943,1.943,1.943,1.943,1.943,1.943,1.943,1.943,1.943,1.943,1.943,1.943,1.943,1.943,1.943,1.943,1.943,1.943,1.943,1.943,1.943,0.0,0.0,0.0,0.0,0.0,0.0,0.0,0.0,0.0,0.0,0.0,0.0,0.0,0.0,0.0615,0.2423,0.3488,0.5028,0.7631,0.8834,0.9709,1.0585,1.0717,1.0717,1.0717,1.0717,1.0717,1.0717,1.0649,1.0575,1.0493,1.029,1.0503,1.1217,1.1111,1.1434,1.2277,1.3048,1.3048,1.2337,1.3885,1.4599,1.4658,1.7149,1.8648,1.943,1.943,1.943,1.943,1.943,1.8939,1.8169,1.7325,1.655,1.5666,1.4063,1.3467,1.3228,1.1615,1.1615,1.2037,1.0361,1.0361,1.108,1.108,1.108,1.1374,1.2988,1.3467,1.3825,1.5429,1.5843,1.6256,1.7864,1.8823,1.943,1.943,1.943,1.943,1.943,1.943,1.943,1.943,1.943,1.943,1.943,1.943,1.943,1.943,1.943,1.943,1.943,1.943,1.943,1.943,1.943,1.943,1.943,1.943,1.943,1.943,1.943,1.943,1.943,1.943,1.943,1.943,1.943,1.943,1.943,1.943,1.943,0.0,0.0,0.0,0.0,0.0,0.0,0.0,0.0,0.0,0.0,0.0,0.0,0.0,0.0,0.0477,0.2019,0.2484,0.3756,0.6694,0.7631,0.8568,1.0047,1.0518,1.0717,1.0717,1.0717,1.0711,1.0683,1.0561,1.0466,1.0419,1.0118,0.9977,0.995,0.989,0.9822,0.9822,1.114,1.114,0.9822,1.2517,1.3944,1.4242,1.5843,1.7455,1.8997,1.8997,1.8997,1.8939,1.8706,1.7806,1.655,1.6256,1.537,1.4004,1.2397,1.1796,1.1615,1.024,0.9822,0.9822,0.9822,0.9822,0.9822,0.9822,0.9822,1.0058,1.1442,1.1796,1.2157,1.3765,1.4183,1.4599,1.6197,1.7806,1.9068,1.9359,1.943,1.943,1.943,1.943,1.943,1.943,1.943,1.943,1.943,1.943,1.943,1.943,1.943,1.943,1.943,1.943,1.943,1.943,1.943,1.943,1.943,1.943,1.943,1.943,1.943,1.943,1.943,1.943,1.943,1.943,1.943,1.943,1.943,1.943,1.943,0.0,0.0,0.0,0.0,0.0,0.0,0.0,0.0,0.0,0.0,0.0,0.0,0.0,0.0,0.0067,0.0337,0.168,0.2887,0.3354,0.6027,0.8097,0.8302,0.9775,1.0717,1.0717,1.0717,1.0663,1.0534,1.0507,1.0378,1.0058,1.0011,0.9923,0.9856,0.9829,0.9822,0.9822,1.0004,1.0004,0.9822,1.024,1.1201,1.2577,1.4183,1.5784,1.7325,1.7325,1.7325,1.7208,1.5843,1.5133,1.4777,1.3407,1.2689,1.2337,1.0717,1.0119,1.0058,0.9883,0.9822,0.9822,0.9822,0.9822,0.9822,0.9822,0.9822,0.9822,1.0058,1.0119,1.0482,1.2097,1.2517,1.2928,1.454,1.6138,1.7689,1.9127,1.943,1.943,1.943,1.943,1.943,1.943,1.943,1.943,1.943,1.943,1.943,1.943,1.943,1.943,1.943,1.943,1.943,1.943,1.943,1.943,1.943,1.943,1.943,1.943,1.943,1.943,1.943,1.943,1.943,1.943,1.943,1.943,1.943,1.943,1.943,0.0,0.0,0.0,0.0,0.0,0.0,0.0,0.0,0.0,0.0,0.0,0.0,0.0,0.0,0.0,0.0,0.0672,0.1545,0.2551,0.4021,0.5759,0.7764,0.8701,0.9546,1.0471,1.0595,1.0534,1.0385,1.0297,1.0188,0.9997,0.9909,0.989,0.9822,0.9822,0.9822,0.9822,0.9822,0.9822,0.9822,0.9822,1.0179,1.0899,1.2517,1.4123,1.5725,1.6609,1.6492,1.5607,1.4896,1.4063,1.3168,1.2457,1.1675,1.0778,1.0058,0.9822,0.9822,0.9822,0.9822,0.9822,0.9822,0.9822,0.9822,0.9822,0.9822,0.9822,0.9822,0.9822,0.9943,1.0657,1.0838,1.1253,1.2868,1.448,1.6079,1.7689,1.8765,1.943,1.943,1.943,1.943,1.943,1.943,1.943,1.943,1.943,1.943,1.943,1.943,1.943,1.943,1.9506,1.9613,1.9613,1.976,1.9853,1.9853,1.9853,1.9853,1.9853,1.9853,1.9853,1.9853,1.9533,1.943,1.943,1.943,1.943,1.943,1.943,1.943,0.0,0.0,0.0,0.0,0.0,0.0,0.0,0.0,0.0,0.0,0.0,0.0,0.0,0.0,0.0,0.0,0.0,0.0471,0.1814,0.2417,0.3689,0.636,0.7426,0.8453,0.972,1.0227,1.0419,1.0236,1.0051,0.997,0.993,0.9883,0.9822,0.9822,0.9822,0.9822,0.9822,0.9822,0.9822,0.9822,0.9822,0.9822,0.9883,1.1495,1.2629,1.3467,1.5063,1.5133,1.3944,1.3526,1.2689,1.1615,1.1615,1.0838,0.9822,0.9822,0.9822,0.9822,0.9822,0.9822,0.9822,0.9822,0.9822,0.9822,0.9822,0.9822,0.9822,0.9822,0.9822,0.9822,0.9822,0.9822,1.0119,1.1314,1.3108,1.5133,1.7149,1.8519,1.943,1.943,1.943,1.943,1.943,1.943,1.943,1.943,1.943,1.943,1.943,1.9439,1.9479,1.9479,1.9733,1.9907,1.9907,2.0107,2.0167,2.0167,2.0167,2.0167,2.0167,2.0167,2.0167,2.0167,1.9733,1.9479,1.9479,1.9399,1.943,1.943,1.943,1.943,0.0,0.0,0.0,0.0,0.0,0.0,0.0,0.0,0.0,0.0,0.0,0.0,0.0,0.0,0.0,0.0,0.0,0.0,0.0135,0.1613,0.2752,0.2954,0.596,0.799,0.7948,0.9506,1.0371,1.0017,0.999,0.9923,0.9842,0.9822,0.9822,0.9822,0.9822,0.9822,0.9822,0.9822,0.9822,0.9822,0.9822,0.9822,0.9883,1.1495,1.1442,1.0119,1.1736,1.2397,1.2217,1.0657,0.9997,0.9943,0.9943,0.9883,0.9822,0.9822,0.9822,0.9822,0.9822,0.9822,0.9822,0.9822,0.9822,0.9822,0.9822,0.9822,0.9822,0.9822,0.9822,0.9822,0.9822,0.9822,0.9822,0.9883,1.2337,1.544,1.859,1.9359,1.943,1.943,1.943,1.943,1.943,1.943,1.943,1.943,1.943,1.943,1.943,1.9613,1.9773,1.9773,2.004,2.0153,2.0153,2.0167,2.0167,2.0167,2.0167,2.0167,2.0167,2.0167,2.0167,2.0167,1.9933,1.9773,1.9773,1.9506,1.943,1.943,1.943,1.943,0.0,0.0,0.0,0.0,0.0,0.0,0.0,0.0,0.0,0.0,0.0,0.0,0.0,0.0,0.0,0.0,0.0,0.0,0.0,0.0538,0.1411,0.2551,0.4721,0.657,0.7577,0.917,1.0058,0.9917,0.9842,0.9876,0.9822,0.9822,0.9822,0.9822,0.9822,0.9822,0.9822,0.9822,0.9822,0.9822,0.9822,0.9822,0.9822,1.0422,1.0361,0.9822,1.0422,1.0664,1.0604,1.0058,0.9822,0.9822,0.9822,0.9822,0.9822,0.9822,0.9822,0.9822,0.9822,0.9822,0.9822,0.9822,0.9822,0.9822,0.9822,0.9822,0.9822,0.9822,0.9822,0.9822,0.9822,0.9822,1.0301,1.2397,1.2988,1.3944,1.7149,1.8648,1.943,1.943,1.943,1.943,1.943,1.943,1.943,1.943,1.943,1.943,1.943,1.9626,1.98,1.98,2.0227,2.0521,2.0521,2.0681,2.0802,2.0802,2.0802,2.0802,2.0802,2.0802,2.0802,2.0802,2.0508,2.0174,1.98,1.9506,1.943,1.943,1.9559,1.9546,0.0,0.0,0.0,0.0,0.0,0.0,0.0,0.0,0.0,0.0,0.0,0.0,0.0,0.0,0.0,0.0,0.0,0.0,0.0,0.0,0.0471,0.168,0.326,0.4919,0.6558,0.8207,0.9349,0.9775,0.9822,0.9822,0.9822,0.9822,0.9822,0.9822,0.9822,0.9822,0.9822,0.9822,0.9822,0.9822,0.9822,0.9822,0.9822,0.9822,0.9822,0.9822,0.9822,0.9822,0.9822,0.9822,0.9822,0.9822,0.9822,0.9822,0.9822,0.9822,0.9822,0.9822,0.9822,0.9822,0.9822,0.9822,0.9822,0.9822,0.9822,0.9822,0.9822,0.9822,0.9822,0.9822,0.9822,0.9822,1.0482,1.3168,1.2988,1.2946,1.5693,1.7091,1.7935,1.846,1.859,1.8765,1.9301,1.943,1.9457,1.9492,1.9506,1.9546,1.9639,1.992,2.0094,2.0094,2.0535,2.0815,2.0815,2.1002,2.1109,2.1109,2.1109,2.1109,2.1109,2.1109,2.1109,2.1109,2.0828,2.0481,2.0094,1.98,1.9653,1.9666,1.9853,1.984,0.0,0.0,0.0,0.0,0.0,0.0,0.0,0.0,0.0,0.0,0.0,0.0,0.0,0.0,0.0,0.0,0.0,0.0,0.0,0.0,0.0,0.0,0.1612,0.3249,0.4762,0.6541,0.8237,0.966,0.9822,0.9822,0.9822,0.9822,0.9822,0.9822,0.9815,0.9815,0.9822,0.9815,0.9815,0.9822,0.9822,0.9822,0.9822,0.9822,0.9822,0.9815,0.9815,0.9815,0.9808,0.9815,0.9822,0.9822,0.9822,0.9822,0.9822,0.9822,0.9822,0.9822,0.9822,0.9822,0.9822,0.9822,0.9822,0.9822,0.9822,0.9822,0.9822,0.9822,0.9822,0.9822,0.9822,0.9822,1.0179,1.1796,1.2157,1.2621,1.4326,1.458,1.4966,1.6691,1.6985,1.7525,1.9153,1.9399,1.9492,1.9773,1.9813,1.992,2.0201,2.0494,2.0681,2.0681,2.0935,2.1109,2.1109,2.1109,2.1109,2.1109,2.1109,2.1109,2.1109,2.1109,2.1109,2.1109,2.0828,2.0695,2.0681,2.0374,2.0167,2.0167,2.0167,2.0241,0.0,0.0,0.0,0.0,0.0,0.0,0.0,0.0,0.0,0.0,0.0,0.0,0.0,0.0,0.0,0.0,0.0,0.0,0.0,0.0,0.0,0.0,0.1532,0.3148,0.4759,0.648,0.8081,0.9714,0.9822,0.9822,0.9822,0.9822,0.9822,0.9822,0.972,0.972,0.9822,0.972,0.972,0.9822,0.9822,0.9822,0.9822,0.9822,0.9768,0.9666,0.9666,0.9605,0.9517,0.9734,0.9822,0.9822,0.9822,0.9822,0.9822,0.9822,0.9822,0.9822,0.9822,0.9822,0.9822,0.9822,0.9822,0.9822,0.9822,0.9822,0.9822,0.9822,0.9822,0.9822,0.9822,0.9822,1.0179,1.1796,1.1314,1.0944,1.2699,1.2147,1.2515,1.663,1.7373,1.7852,1.9647,2.0,2.0013,2.0094,2.0107,2.0147,2.0167,2.0494,2.0681,2.0681,2.0935,2.1109,2.1109,2.1109,2.1109,2.1109,2.1109,2.1109,2.1109,2.1109,2.1109,2.1109,2.1029,2.0989,2.0989,2.0481,2.0167,2.0167,2.0167,2.0347,0.0,0.0,0.0,0.0,0.0,0.0,0.0,0.0,0.0,0.0,0.0,0.0,0.0,0.0,0.0,0.0,0.0,0.0,0.0,0.0,0.0,0.0,0.0867,0.211,0.3764,0.5369,0.705,0.8682,0.9422,0.9822,0.9822,0.9822,0.9822,0.9822,0.9686,0.9652,0.9734,0.9585,0.9591,0.9734,0.9734,0.9768,0.9822,0.9761,0.9686,0.9605,0.9544,0.9462,0.9395,0.9564,0.9673,0.9734,0.9734,0.9768,0.9822,0.9822,0.9822,0.9822,0.9822,0.9822,0.9822,0.9822,0.9822,0.9822,0.9822,0.9822,0.9822,0.9822,0.9822,0.9822,0.9822,0.9822,1.0058,1.0959,1.0482,1.0121,1.127,1.071,1.1317,1.5762,1.6569,1.7306,1.9763,2.0167,2.0267,2.0401,2.0414,2.0454,2.0588,2.0748,2.0855,2.0855,2.1002,2.1109,2.1109,2.1109,2.1109,2.1109,2.1109,2.1109,2.1109,2.1109,2.1109,2.1109,2.1109,2.1109,2.1109,2.0762,2.0535,2.0414,2.0414,2.0508,0.0,0.0,0.0,0.0,0.0,0.0,0.0,0.0,0.0,0.0,0.0,0.0,0.0,0.0,0.0,0.0,0.0,0.0,0.0,0.0,0.0,0.0,0.0,0.0669,0.2369,0.3951,0.5612,0.7286,0.8909,0.9822,0.9822,0.9822,0.9822,0.9822,0.9666,0.9591,0.9612,0.9442,0.9435,0.9585,0.9585,0.9652,0.9768,0.9639,0.9578,0.9551,0.9415,0.9347,0.9334,0.9334,0.9429,0.9585,0.9605,0.9686,0.9802,0.9815,0.9822,0.9822,0.9822,0.9822,0.9822,0.9822,0.9822,0.9822,0.9822,0.9822,0.9822,0.9822,0.9822,0.9822,0.9822,0.9822,0.9822,0.9822,0.9822,0.9903,1.0195,1.0148,1.1083,1.4677,1.5349,1.6414,1.9759,2.0273,2.0414,2.0681,2.0722,2.0815,2.1082,2.1109,2.1109,2.1109,2.1109,2.1109,2.1109,2.1109,2.1109,2.1109,2.1109,2.1109,2.1109,2.1109,2.1109,2.1109,2.1109,2.1109,2.1109,2.1082,2.0922,2.0681,2.0681,2.0681,0.0,0.0,0.0,0.0,0.0,0.0,0.0,0.0,0.0,0.0,0.0,0.0,0.0,0.0,0.0,0.0,0.0,0.0,0.0,0.0,0.0,0.0,0.0,0.0669,0.2369,0.3951,0.5612,0.7286,0.8909,0.9822,0.9822,0.9822,0.9822,0.9822,0.9564,0.9483,0.9605,0.9334,0.933,0.9422,0.9422,0.9442,0.9462,0.9442,0.9361,0.9296,0.9268,0.913,0.9028,0.9028,0.9184,0.9435,0.9564,0.9625,0.9666,0.9781,0.9822,0.9822,0.9822,0.9822,0.9822,0.9822,0.9822,0.9822,0.9822,0.9822,0.9822,0.9822,0.9822,0.9822,0.9822,0.9822,0.9822,0.9822,0.9822,0.9869,0.999,1.0011,1.1113,1.4872,1.5635,1.677,2.0318,2.0935,2.0962,2.1015,2.1029,2.1042,2.1096,2.1109,2.1109,2.1109,2.1109,2.1109,2.1109,2.1109,2.1109,2.1109,2.1109,2.1109,2.1109,2.1109,2.1109,2.1109,2.1109,2.1109,2.1109,2.0869,2.0735,2.0681,2.0681,2.0681,0.0,0.0,0.0,0.0,0.0,0.0,0.0,0.0,0.0,0.0,0.0,0.0,0.0,0.0,0.0,0.0,0.0,0.0,0.0,0.0,0.0,0.0,0.0,0.0335,0.1198,0.2753,0.4759,0.7228,0.8909,0.9822,0.9822,0.9822,0.9822,0.9822,0.9537,0.9415,0.9496,0.9198,0.9123,0.9323,0.9323,0.9306,0.9381,0.9357,0.9282,0.9207,0.9076,0.9008,0.8885,0.8885,0.8972,0.9178,0.9327,0.9476,0.9618,0.9686,0.9761,0.9822,0.9822,0.9822,0.9822,0.9822,0.9822,0.9822,0.9822,0.9822,0.9822,0.9822,0.9822,0.9822,0.9822,0.9822,0.9822,0.9822,0.9822,0.9863,0.9957,0.9984,1.0856,1.3726,1.5066,1.6858,2.0474,2.1109,2.1109,2.1109,2.1109,2.1109,2.1109,2.1109,2.1109,2.1109,2.1109,2.1109,2.1109,2.1109,2.1109,2.1109,2.1109,2.1109,2.1109,2.1109,2.1109,2.1109,2.1109,2.1109,2.1109,2.0815,2.0681,2.0681,2.0828,2.0815,0.0,0.0,0.0,0.0,0.0,0.0,0.0,0.0,0.0,0.0,0.0,0.0,0.0,0.0,0.0,0.0,0.0,0.0,0.0,0.0,0.0,0.0,0.0,0.0,0.0,0.1516,0.3868,0.7166,0.8579,0.9485,0.9754,0.9822,0.9822,0.9822,0.9564,0.9408,0.9381,0.9117,0.9022,0.9166,0.9166,0.9178,0.9293,0.9171,0.9166,0.9159,0.8988,0.8885,0.8885,0.8885,0.8885,0.8898,0.913,0.9347,0.9571,0.9632,0.972,0.9822,0.9822,0.9822,0.9822,0.9822,0.9822,0.9822,0.9822,0.9822,0.9822,0.9822,0.9822,0.9822,0.9822,0.9822,0.9822,0.9822,0.9822,0.9856,0.9916,0.9943,1.0605,1.2869,1.4524,1.6612,1.9991,2.0879,2.1109,2.1109,2.1109,2.1109,2.1109,2.1109,2.1109,2.1109,2.1109,2.1109,2.1109,2.1109,2.1109,2.1109,2.1109,2.1109,2.1109,2.1109,2.1109,2.1109,2.1109,2.1109,2.1109,2.0869,2.0762,2.0762,2.0949,2.0922,0.0,0.0,0.0,0.0,0.0,0.0,0.0,0.0,0.0,0.0,0.0,0.0,0.0,0.0,0.0,0.0,0.0,0.0,0.0,0.0,0.0,0.0,0.0,0.0,0.0,0.1545,0.3849,0.7156,0.7585,0.8294,0.9754,0.9822,0.9822,0.9822,0.9666,0.9517,0.9381,0.9268,0.9076,0.8905,0.8905,0.8919,0.8932,0.8912,0.8905,0.8905,0.8892,0.8885,0.8885,0.8885,0.8885,0.8912,0.9245,0.9374,0.9442,0.97,0.9808,0.9822,0.9822,0.9822,0.9822,0.9822,0.9822,0.9822,0.9822,0.9822,0.9822,0.9822,0.9822,0.9822,0.9822,0.9822,0.9822,0.9822,0.9822,0.9829,0.9842,0.9849,1.0791,1.4131,1.4922,1.5811,1.8203,2.0029,2.1109,2.1109,2.1109,2.1109,2.1109,2.1109,2.1109,2.1109,2.1109,2.1109,2.1109,2.1109,2.1109,2.1109,2.1109,2.1109,2.1109,2.1109,2.1109,2.1109,2.1109,2.1109,2.1109,2.1082,2.1056,2.1056,2.0828,2.0842,0.0,0.0,0.0,0.0,0.0,0.0,0.0,0.0,0.0,0.0,0.0,0.0,0.0,0.0,0.0,0.0,0.0,0.0,0.0,0.0,0.0,0.0,0.0,0.0,0.0,0.1524,0.3459,0.5773,0.6836,0.8096,0.9687,0.9822,0.9822,0.9822,0.9686,0.9578,0.9517,0.9361,0.9211,0.9062,0.9062,0.9022,0.8885,0.8885,0.8885,0.8885,0.8885,0.8885,0.8885,0.8885,0.8885,0.8912,0.9266,0.9381,0.9408,0.9618,0.9747,0.9822,0.9822,0.9822,0.9822,0.9822,0.9822,0.9822,0.9822,0.9822,0.9822,0.9822,0.9822,0.9822,0.9822,0.9822,0.9822,0.9822,0.9822,0.9822,0.9822,0.9822,1.0497,1.2915,1.4237,1.5634,1.7707,1.9636,2.0909,2.1082,2.1109,2.1109,2.1109,2.1109,2.1109,2.1109,2.1109,2.1109,2.1109,2.1109,2.1109,2.1109,2.1109,2.1109,2.1109,2.1109,2.1109,2.1109,2.1109,2.1109,2.1109,2.1109,2.1109,2.1109,2.0989,2.0989,0.0,0.0,0.0,0.0,0.0,0.0,0.0,0.0,0.0,0.0,0.0,0.0,0.0,0.0,0.0,0.0,0.0,0.0,0.0,0.0,0.0,0.0,0.0,0.0,0.0,0.1127,0.2681,0.4768,0.6021,0.7638,0.9687,0.9822,0.9822,0.9822,0.972,0.9646,0.9612,0.9496,0.9347,0.9207,0.9207,0.9076,0.8885,0.8885,0.8885,0.8885,0.8885,0.8885,0.8885,0.8885,0.8885,0.8912,0.9266,0.9381,0.9401,0.9598,0.9734,0.9822,0.9822,0.9822,0.9822,0.9822,0.9822,0.9822,0.9822,0.9822,0.9822,0.9822,0.9822,0.9822,0.9822,0.9822,0.9822,0.9822,0.9822,0.9822,0.9822,0.9822,1.0429,1.2578,1.4096,1.5746,1.8226,1.9769,2.0775,2.1069,2.1109,2.1109,2.1109,2.1109,2.1109,2.1109,2.1109,2.1109,2.1109,2.1109,2.1109,2.1109,2.1109,2.1109,2.1109,2.1109,2.1109,2.1109,2.1109,2.1109,2.1109,2.1109,2.1109,2.1109,2.1109,2.1109,0.0,0.0,0.0,0.0,0.0,0.0,0.0,0.0,0.0,0.0,0.0,0.0,0.0,0.0,0.0,0.0,0.0,0.0,0.0,0.0,0.0,0.0,0.0,0.0,0.0,0.0061,0.1404,0.4636,0.4938,0.6419,0.962,0.9822,0.9822,0.9822,0.9815,0.9747,0.9612,0.9605,0.9449,0.9207,0.9207,0.9076,0.8885,0.8885,0.8885,0.8885,0.8885,0.8885,0.8885,0.8885,0.8885,0.8912,0.9266,0.9381,0.9415,0.9707,0.9815,0.9822,0.9822,0.9822,0.9822,0.9822,0.9822,0.9822,0.9822,0.9822,0.9822,0.9822,0.9822,0.9822,0.9822,0.9822,0.9822,0.9822,0.9822,0.9822,0.9822,0.9822,1.083,1.4266,1.4983,1.6176,1.9931,2.0668,2.0775,2.1069,2.1109,2.1109,2.1109,2.1109,2.1109,2.1109,2.1109,2.1109,2.1109,2.1109,2.1109,2.1109,2.1109,2.1109,2.1109,2.1109,2.1109,2.1109,2.1109,2.1109,2.1109,2.1109,2.1109,2.1109,2.1109,2.1109,0.0,0.0,0.0,0.0,0.0,0.0,0.0,0.0,0.0,0.0,0.0,0.0,0.0,0.0,0.0,0.0,0.0,0.0,0.0,0.0,0.0,0.0,0.0,0.0,0.0,0.0898,0.2416,0.4754,0.5831,0.7364,0.968,0.9822,0.9822,0.9822,0.9822,0.9795,0.9747,0.9747,0.9598,0.9306,0.9306,0.9178,0.8885,0.8885,0.8885,0.8885,0.8885,0.8885,0.8885,0.8885,0.8885,0.8912,0.9266,0.9381,0.9415,0.9713,0.9822,0.9822,0.9822,0.9822,0.9822,0.9822,0.9822,0.9822,0.9822,0.9822,0.9822,0.9822,0.9822,0.9822,0.9822,0.9822,0.9822,0.9822,0.9822,0.9822,0.9822,0.9897,1.0964,1.4365,1.5105,1.6349,2.0032,2.0681,2.0775,2.1069,2.1109,2.1109,2.1109,2.1109,2.1109,2.1109,2.1109,2.1109,2.1109,2.1109,2.1109,2.1109,2.1109,2.1109,2.1109,2.1109,2.1109,2.1109,2.1109,2.1109,2.1109,2.1109,2.1109,2.1109,2.1109,2.1109,0.0,0.0,0.0,0.0,0.0,0.0,0.0,0.0,0.0,0.0,0.0,0.0,0.0,0.0,0.0,0.0,0.0,0.0,0.0,0.0,0.0,0.0,0.0,0.0,0.0,0.0879,0.2362,0.4677,0.5764,0.7306,0.9607,0.9795,0.9822,0.9822,0.9822,0.9822,0.9822,0.9822,0.97,0.9462,0.9408,0.9252,0.9015,0.8905,0.8885,0.8885,0.8885,0.8885,0.8885,0.8885,0.8967,0.9035,0.9286,0.9415,0.949,0.9734,0.9822,0.9822,0.9822,0.9822,0.9822,0.9822,0.9822,0.9822,0.9822,0.9822,0.9822,0.9822,0.9822,0.9822,0.9822,0.9822,0.9822,0.9822,0.9822,0.9822,0.9822,0.9897,1.0971,1.4463,1.5289,1.6542,2.0188,2.0828,2.0895,2.1082,2.1109,2.1109,2.1109,2.1109,2.1109,2.1109,2.1109,2.1109,2.1109,2.1109,2.1109,2.1109,2.1109,2.1109,2.1109,2.1109,2.1109,2.1109,2.1109,2.1109,2.1109,2.1109,2.1109,2.1109,2.1109,2.1109]}]]